<?xml version="1.0" encoding="utf-8"?>
<gpx xmlns:xsi="http://www.w3.org/2001/XMLSchema-instance" xmlns:xsd="http://www.w3.org/2001/XMLSchema" version="1.1" creator="Shapelink.com" xmlns="http://www.topografix.com/GPX/1/1" xmlns:gpxtpx="http://www.garmin.com/xmlschemas/TrackPointExtension/v1">
  <metadata>
    <name>Cykling - CX 4.16 km, 2019-09-18</name>
    <desc></desc>
    <author><name>Alexander Engvall</name></author> 
    <time>2019-09-18T18:04:50Z</time>
  </metadata>
  <trk>
    <name>Cykling - CX 4.16 km, 2019-09-18</name>
    <trkseg>
      <trkpt lat="59.193084585406" lon="17.901849203559">
        <ele>127</ele>
        <time>2019-09-18T18:04:50Z</time>
      </trkpt>
      <trkpt lat="59.193024906278" lon="17.901691791477">
        <ele>124.4</ele>
        <time>2019-09-18T18:05:52Z</time>
      </trkpt>
      <trkpt lat="59.1930113276" lon="17.901689276907">
        <ele>124.4</ele>
        <time>2019-09-18T18:05:53Z</time>
      </trkpt>
      <trkpt lat="59.192998838569" lon="17.901682068473">
        <ele>124.4</ele>
        <time>2019-09-18T18:05:54Z</time>
      </trkpt>
      <trkpt lat="59.192986684814" lon="17.901668573614">
        <ele>124.2</ele>
        <time>2019-09-18T18:05:55Z</time>
      </trkpt>
      <trkpt lat="59.19297360905" lon="17.901651893633">
        <ele>124.2</ele>
        <time>2019-09-18T18:05:56Z</time>
      </trkpt>
      <trkpt lat="59.192957934897" lon="17.901630855064">
        <ele>124.2</ele>
        <time>2019-09-18T18:05:57Z</time>
      </trkpt>
      <trkpt lat="59.192940165269" lon="17.90160688283">
        <ele>124.2</ele>
        <time>2019-09-18T18:05:58Z</time>
      </trkpt>
      <trkpt lat="59.192921138356" lon="17.90158173713">
        <ele>124.2</ele>
        <time>2019-09-18T18:05:59Z</time>
      </trkpt>
      <trkpt lat="59.192901608529" lon="17.901560279466">
        <ele>124.2</ele>
        <time>2019-09-18T18:06:00Z</time>
      </trkpt>
      <trkpt lat="59.192882833073" lon="17.901546281693">
        <ele>124.2</ele>
        <time>2019-09-18T18:06:01Z</time>
      </trkpt>
      <trkpt lat="59.192865817816" lon="17.901536558689">
        <ele>124.2</ele>
        <time>2019-09-18T18:06:02Z</time>
      </trkpt>
      <trkpt lat="59.192846874722" lon="17.901524069658">
        <ele>124.2</ele>
        <time>2019-09-18T18:06:03Z</time>
      </trkpt>
      <trkpt lat="59.192828266904" lon="17.901510910075">
        <ele>124.2</ele>
        <time>2019-09-18T18:06:04Z</time>
      </trkpt>
      <trkpt lat="59.192809491448" lon="17.901500181243">
        <ele>124.2</ele>
        <time>2019-09-18T18:06:05Z</time>
      </trkpt>
      <trkpt lat="59.192792140915" lon="17.90148953623">
        <ele>124.2</ele>
        <time>2019-09-18T18:06:06Z</time>
      </trkpt>
      <trkpt lat="59.192775880029" lon="17.901473191525">
        <ele>124.2</ele>
        <time>2019-09-18T18:06:07Z</time>
      </trkpt>
      <trkpt lat="59.192758278039" lon="17.901452572051">
        <ele>124.2</ele>
        <time>2019-09-18T18:06:08Z</time>
      </trkpt>
      <trkpt lat="59.192735395452" lon="17.901435724432">
        <ele>124.2</ele>
        <time>2019-09-18T18:06:09Z</time>
      </trkpt>
      <trkpt lat="59.192711507037" lon="17.901415104958">
        <ele>124.4</ele>
        <time>2019-09-18T18:06:10Z</time>
      </trkpt>
      <trkpt lat="59.192687618622" lon="17.901393647294">
        <ele>124.4</ele>
        <time>2019-09-18T18:06:11Z</time>
      </trkpt>
      <trkpt lat="59.192665909501" lon="17.901374285105">
        <ele>124.4</ele>
        <time>2019-09-18T18:06:12Z</time>
      </trkpt>
      <trkpt lat="59.19264168581" lon="17.901359365323">
        <ele>124.8</ele>
        <time>2019-09-18T18:06:13Z</time>
      </trkpt>
      <trkpt lat="59.19264168581" lon="17.901359365323">
        <ele>124.8</ele>
        <time>2019-09-18T18:06:14Z</time>
      </trkpt>
      <trkpt lat="59.192592735514" lon="17.901317455823">
        <ele>124.8</ele>
        <time>2019-09-18T18:06:15Z</time>
      </trkpt>
      <trkpt lat="59.19256960147" lon="17.901296081978">
        <ele>124.8</ele>
        <time>2019-09-18T18:06:16Z</time>
      </trkpt>
      <trkpt lat="59.19256960147" lon="17.901296081978">
        <ele>124.8</ele>
        <time>2019-09-18T18:06:17Z</time>
      </trkpt>
      <trkpt lat="59.192532050558" lon="17.90126406312">
        <ele>124.8</ele>
        <time>2019-09-18T18:06:18Z</time>
      </trkpt>
      <trkpt lat="59.192519477708" lon="17.901262805835">
        <ele>124.8</ele>
        <time>2019-09-18T18:06:19Z</time>
      </trkpt>
      <trkpt lat="59.192504390288" lon="17.901251154994">
        <ele>124.8</ele>
        <time>2019-09-18T18:06:20Z</time>
      </trkpt>
      <trkpt lat="59.192493074723" lon="17.901243192189">
        <ele>124.8</ele>
        <time>2019-09-18T18:06:21Z</time>
      </trkpt>
      <trkpt lat="59.192486285384" lon="17.901234391194">
        <ele>124.8</ele>
        <time>2019-09-18T18:06:22Z</time>
      </trkpt>
      <trkpt lat="59.192478071122" lon="17.901221818344">
        <ele>125</ele>
        <time>2019-09-18T18:06:23Z</time>
      </trkpt>
      <trkpt lat="59.192464492444" lon="17.90119784611">
        <ele>125.2</ele>
        <time>2019-09-18T18:06:24Z</time>
      </trkpt>
      <trkpt lat="59.192454015069" lon="17.901181333767">
        <ele>125.2</ele>
        <time>2019-09-18T18:06:25Z</time>
      </trkpt>
      <trkpt lat="59.192454015069" lon="17.901181333767">
        <ele>125.2</ele>
        <time>2019-09-18T18:06:26Z</time>
      </trkpt>
      <trkpt lat="59.192430964844" lon="17.901135233317">
        <ele>125.2</ele>
        <time>2019-09-18T18:06:27Z</time>
      </trkpt>
      <trkpt lat="59.192421660935" lon="17.901116625499">
        <ele>125.2</ele>
        <time>2019-09-18T18:06:28Z</time>
      </trkpt>
      <trkpt lat="59.19241285994" lon="17.901106231943">
        <ele>125.2</ele>
        <time>2019-09-18T18:06:29Z</time>
      </trkpt>
      <trkpt lat="59.19240950718" lon="17.901092569446">
        <ele>125.4</ele>
        <time>2019-09-18T18:06:30Z</time>
      </trkpt>
      <trkpt lat="59.19240363985" lon="17.901078404035">
        <ele>125.4</ele>
        <time>2019-09-18T18:06:31Z</time>
      </trkpt>
      <trkpt lat="59.19240280166" lon="17.90106541209">
        <ele>125.4</ele>
        <time>2019-09-18T18:06:32Z</time>
      </trkpt>
      <trkpt lat="59.19240363985" lon="17.901056192">
        <ele>125.4</ele>
        <time>2019-09-18T18:06:33Z</time>
      </trkpt>
      <trkpt lat="59.192054282258" lon="17.900927613654">
        <ele>125.4</ele>
        <time>2019-09-18T18:07:08Z</time>
      </trkpt>
      <trkpt lat="59.192024191237" lon="17.900928535663">
        <ele>125.6</ele>
        <time>2019-09-18T18:07:09Z</time>
      </trkpt>
      <trkpt lat="59.191998626442" lon="17.900920153763">
        <ele>125.6</ele>
        <time>2019-09-18T18:07:10Z</time>
      </trkpt>
      <trkpt lat="59.191977923149" lon="17.900914118795">
        <ele>125.6</ele>
        <time>2019-09-18T18:07:11Z</time>
      </trkpt>
      <trkpt lat="59.191948754137" lon="17.90090783237">
        <ele>125.4</ele>
        <time>2019-09-18T18:07:12Z</time>
      </trkpt>
      <trkpt lat="59.191919836582" lon="17.900897690271">
        <ele>125.6</ele>
        <time>2019-09-18T18:07:13Z</time>
      </trkpt>
      <trkpt lat="59.191885303154" lon="17.900890733294">
        <ele>125.4</ele>
        <time>2019-09-18T18:07:14Z</time>
      </trkpt>
      <trkpt lat="59.191860325092" lon="17.900888470181">
        <ele>125.4</ele>
        <time>2019-09-18T18:07:15Z</time>
      </trkpt>
      <trkpt lat="59.1918378616" lon="17.900877406073">
        <ele>125.4</ele>
        <time>2019-09-18T18:07:16Z</time>
      </trkpt>
      <trkpt lat="59.191809949873" lon="17.90087011382">
        <ele>125.4</ele>
        <time>2019-09-18T18:07:17Z</time>
      </trkpt>
      <trkpt lat="59.191790252408" lon="17.900868772716">
        <ele>125.4</ele>
        <time>2019-09-18T18:07:18Z</time>
      </trkpt>
      <trkpt lat="59.191770303486" lon="17.90086257011">
        <ele>125.4</ele>
        <time>2019-09-18T18:07:19Z</time>
      </trkpt>
      <trkpt lat="59.191752450039" lon="17.900852092735">
        <ele>125.4</ele>
        <time>2019-09-18T18:07:20Z</time>
      </trkpt>
      <trkpt lat="59.191731327651" lon="17.90085083545">
        <ele>125.4</ele>
        <time>2019-09-18T18:07:21Z</time>
      </trkpt>
      <trkpt lat="59.191721017914" lon="17.900843459378">
        <ele>125.4</ele>
        <time>2019-09-18T18:07:22Z</time>
      </trkpt>
      <trkpt lat="59.191706433408" lon="17.900843878473">
        <ele>125.6</ele>
        <time>2019-09-18T18:07:23Z</time>
      </trkpt>
      <trkpt lat="59.191688160866" lon="17.900841782998">
        <ele>125.8</ele>
        <time>2019-09-18T18:07:24Z</time>
      </trkpt>
      <trkpt lat="59.191663685718" lon="17.900833149641">
        <ele>125.8</ele>
        <time>2019-09-18T18:07:25Z</time>
      </trkpt>
      <trkpt lat="59.191640803131" lon="17.900822169352">
        <ele>125.8</ele>
        <time>2019-09-18T18:07:26Z</time>
      </trkpt>
      <trkpt lat="59.191614819241" lon="17.900816050565">
        <ele>125.8</ele>
        <time>2019-09-18T18:07:27Z</time>
      </trkpt>
      <trkpt lat="59.191598725993" lon="17.900810267054">
        <ele>126</ele>
        <time>2019-09-18T18:07:28Z</time>
      </trkpt>
      <trkpt lat="59.191582968021" lon="17.900799538222">
        <ele>126</ele>
        <time>2019-09-18T18:07:29Z</time>
      </trkpt>
      <trkpt lat="59.191564108746" lon="17.900786630096">
        <ele>126</ele>
        <time>2019-09-18T18:07:30Z</time>
      </trkpt>
      <trkpt lat="59.191544159824" lon="17.900785372811">
        <ele>126</ele>
        <time>2019-09-18T18:07:31Z</time>
      </trkpt>
      <trkpt lat="59.191529072404" lon="17.900774392522">
        <ele>126</ele>
        <time>2019-09-18T18:07:32Z</time>
      </trkpt>
      <trkpt lat="59.191503591428" lon="17.90076534007">
        <ele>126</ele>
        <time>2019-09-18T18:07:33Z</time>
      </trkpt>
      <trkpt lat="59.191482049945" lon="17.900756455256">
        <ele>126</ele>
        <time>2019-09-18T18:07:34Z</time>
      </trkpt>
      <trkpt lat="59.191467213982" lon="17.900746983709">
        <ele>126</ele>
        <time>2019-09-18T18:07:35Z</time>
      </trkpt>
      <trkpt lat="59.191449947268" lon="17.900735584325">
        <ele>126</ele>
        <time>2019-09-18T18:07:36Z</time>
      </trkpt>
      <trkpt lat="59.191446091594" lon="17.900734410859">
        <ele>126</ele>
        <time>2019-09-18T18:07:37Z</time>
      </trkpt>
      <trkpt lat="59.191442068282" lon="17.900743379492">
        <ele>126.2</ele>
        <time>2019-09-18T18:07:38Z</time>
      </trkpt>
      <trkpt lat="59.191399991144" lon="17.900603988495">
        <ele>126</ele>
        <time>2019-09-18T18:09:31Z</time>
      </trkpt>
      <trkpt lat="59.191399404411" lon="17.900559564425">
        <ele>126.2</ele>
        <time>2019-09-18T18:09:32Z</time>
      </trkpt>
      <trkpt lat="59.191399404411" lon="17.900559564425">
        <ele>126</ele>
        <time>2019-09-18T18:09:33Z</time>
      </trkpt>
      <trkpt lat="59.191392028339" lon="17.900460658005">
        <ele>126</ele>
        <time>2019-09-18T18:09:34Z</time>
      </trkpt>
      <trkpt lat="59.191388005027" lon="17.900416150116">
        <ele>126</ele>
        <time>2019-09-18T18:09:35Z</time>
      </trkpt>
      <trkpt lat="59.191381383326" lon="17.900367954191">
        <ele>126</ele>
        <time>2019-09-18T18:09:36Z</time>
      </trkpt>
      <trkpt lat="59.191371157408" lon="17.900313639479">
        <ele>126</ele>
        <time>2019-09-18T18:09:37Z</time>
      </trkpt>
      <trkpt lat="59.191359590386" lon="17.900260582052">
        <ele>126</ele>
        <time>2019-09-18T18:09:38Z</time>
      </trkpt>
      <trkpt lat="59.191346263165" lon="17.900197633983">
        <ele>126</ele>
        <time>2019-09-18T18:09:39Z</time>
      </trkpt>
      <trkpt lat="59.191333103582" lon="17.900135105009">
        <ele>126</ele>
        <time>2019-09-18T18:09:40Z</time>
      </trkpt>
      <trkpt lat="59.191321285103" lon="17.900063355945">
        <ele>126</ele>
        <time>2019-09-18T18:09:41Z</time>
      </trkpt>
      <trkpt lat="59.191309634262" lon="17.89999420527">
        <ele>126</ele>
        <time>2019-09-18T18:09:42Z</time>
      </trkpt>
      <trkpt lat="59.191294965937" lon="17.899925054595">
        <ele>126</ele>
        <time>2019-09-18T18:09:43Z</time>
      </trkpt>
      <trkpt lat="59.191282728363" lon="17.899869398779">
        <ele>126</ele>
        <time>2019-09-18T18:09:44Z</time>
      </trkpt>
      <trkpt lat="59.191282728363" lon="17.899869398779">
        <ele>126</ele>
        <time>2019-09-18T18:09:45Z</time>
      </trkpt>
      <trkpt lat="59.191228665108" lon="17.899611403897">
        <ele>126.2</ele>
        <time>2019-09-18T18:09:48Z</time>
      </trkpt>
      <trkpt lat="59.191217768638" lon="17.899557005366">
        <ele>126.2</ele>
        <time>2019-09-18T18:09:49Z</time>
      </trkpt>
      <trkpt lat="59.191207207444" lon="17.899502103921">
        <ele>126.2</ele>
        <time>2019-09-18T18:09:50Z</time>
      </trkpt>
      <trkpt lat="59.191197735897" lon="17.899454662367">
        <ele>126.2</ele>
        <time>2019-09-18T18:09:51Z</time>
      </trkpt>
      <trkpt lat="59.191197735897" lon="17.899454662367">
        <ele>126.2</ele>
        <time>2019-09-18T18:09:52Z</time>
      </trkpt>
      <trkpt lat="59.191176194414" lon="17.899381991294">
        <ele>126.6</ele>
        <time>2019-09-18T18:09:53Z</time>
      </trkpt>
      <trkpt lat="59.191166639048" lon="17.89935969544">
        <ele>126.6</ele>
        <time>2019-09-18T18:09:54Z</time>
      </trkpt>
      <trkpt lat="59.191145768117" lon="17.899329688238">
        <ele>126.4</ele>
        <time>2019-09-18T18:09:55Z</time>
      </trkpt>
      <trkpt lat="59.191127327937" lon="17.899312170067">
        <ele>126.8</ele>
        <time>2019-09-18T18:09:56Z</time>
      </trkpt>
      <trkpt lat="59.191118275485" lon="17.899290880041">
        <ele>126.8</ele>
        <time>2019-09-18T18:09:57Z</time>
      </trkpt>
      <trkpt lat="59.191109558309" lon="17.899273613327">
        <ele>126.8</ele>
        <time>2019-09-18T18:09:58Z</time>
      </trkpt>
      <trkpt lat="59.191098075106" lon="17.899251317473">
        <ele>127</ele>
        <time>2019-09-18T18:09:59Z</time>
      </trkpt>
      <trkpt lat="59.191098075106" lon="17.899251317473">
        <ele>127</ele>
        <time>2019-09-18T18:10:00Z</time>
      </trkpt>
      <trkpt lat="59.190994726279" lon="17.899235308044">
        <ele>127</ele>
        <time>2019-09-18T18:10:19Z</time>
      </trkpt>
      <trkpt lat="59.190978884488" lon="17.899252490939">
        <ele>126.8</ele>
        <time>2019-09-18T18:10:20Z</time>
      </trkpt>
      <trkpt lat="59.190962288326" lon="17.899271936947">
        <ele>126.8</ele>
        <time>2019-09-18T18:10:21Z</time>
      </trkpt>
      <trkpt lat="59.190941249757" lon="17.89929683119">
        <ele>126.8</ele>
        <time>2019-09-18T18:10:22Z</time>
      </trkpt>
      <trkpt lat="59.190919372998" lon="17.899321893071">
        <ele>126.8</ele>
        <time>2019-09-18T18:10:23Z</time>
      </trkpt>
      <trkpt lat="59.190895987497" lon="17.899356258861">
        <ele>126.8</ele>
        <time>2019-09-18T18:10:24Z</time>
      </trkpt>
      <trkpt lat="59.190868411046" lon="17.899391127565">
        <ele>126.8</ele>
        <time>2019-09-18T18:10:25Z</time>
      </trkpt>
      <trkpt lat="59.190839661129" lon="17.899424319889">
        <ele>126.6</ele>
        <time>2019-09-18T18:10:26Z</time>
      </trkpt>
      <trkpt lat="59.190807474633" lon="17.899458769498">
        <ele>126.6</ele>
        <time>2019-09-18T18:10:27Z</time>
      </trkpt>
      <trkpt lat="59.190775204318" lon="17.899494979306">
        <ele>126.6</ele>
        <time>2019-09-18T18:10:28Z</time>
      </trkpt>
      <trkpt lat="59.190746622039" lon="17.899529764191">
        <ele>126.8</ele>
        <time>2019-09-18T18:10:29Z</time>
      </trkpt>
      <trkpt lat="59.190719548502" lon="17.89957091932">
        <ele>126.8</ele>
        <time>2019-09-18T18:10:30Z</time>
      </trkpt>
      <trkpt lat="59.190690128033" lon="17.899610733345">
        <ele>126.6</ele>
        <time>2019-09-18T18:10:31Z</time>
      </trkpt>
      <trkpt lat="59.19066188103" lon="17.899646021144">
        <ele>126.6</ele>
        <time>2019-09-18T18:10:32Z</time>
      </trkpt>
      <trkpt lat="59.19066188103" lon="17.899646021144">
        <ele>126.6</ele>
        <time>2019-09-18T18:10:33Z</time>
      </trkpt>
      <trkpt lat="59.190603962101" lon="17.899713746896">
        <ele>126.4</ele>
        <time>2019-09-18T18:10:34Z</time>
      </trkpt>
      <trkpt lat="59.190574793089" lon="17.89974945379">
        <ele>126.6</ele>
        <time>2019-09-18T18:10:35Z</time>
      </trkpt>
      <trkpt lat="59.19054537262" lon="17.899787675254">
        <ele>126.4</ele>
        <time>2019-09-18T18:10:36Z</time>
      </trkpt>
      <trkpt lat="59.190515365418" lon="17.899818688284">
        <ele>126.4</ele>
        <time>2019-09-18T18:10:37Z</time>
      </trkpt>
      <trkpt lat="59.190493321021" lon="17.899840145948">
        <ele>126.4</ele>
        <time>2019-09-18T18:10:38Z</time>
      </trkpt>
      <trkpt lat="59.190464822561" lon="17.899869482598">
        <ele>126.4</ele>
        <time>2019-09-18T18:10:39Z</time>
      </trkpt>
      <trkpt lat="59.190447220571" lon="17.899896472316">
        <ele>126.2</ele>
        <time>2019-09-18T18:10:40Z</time>
      </trkpt>
      <trkpt lat="59.190424002708" lon="17.899930921925">
        <ele>126.2</ele>
        <time>2019-09-18T18:10:41Z</time>
      </trkpt>
      <trkpt lat="59.190424002708" lon="17.899930921925">
        <ele>126.2</ele>
        <time>2019-09-18T18:10:42Z</time>
      </trkpt>
      <trkpt lat="59.190382260846" lon="17.900001329885">
        <ele>126.2</ele>
        <time>2019-09-18T18:10:43Z</time>
      </trkpt>
      <trkpt lat="59.190353594748" lon="17.900031504725">
        <ele>126.2</ele>
        <time>2019-09-18T18:10:44Z</time>
      </trkpt>
      <trkpt lat="59.19033079598" lon="17.900057991529">
        <ele>126.2</ele>
        <time>2019-09-18T18:10:45Z</time>
      </trkpt>
      <trkpt lat="59.19031067942" lon="17.900081879944">
        <ele>126</ele>
        <time>2019-09-18T18:10:46Z</time>
      </trkpt>
      <trkpt lat="59.190294418534" lon="17.900099314296">
        <ele>126</ele>
        <time>2019-09-18T18:10:47Z</time>
      </trkpt>
      <trkpt lat="59.190277822372" lon="17.900121023417">
        <ele>126</ele>
        <time>2019-09-18T18:10:48Z</time>
      </trkpt>
      <trkpt lat="59.190262986409" lon="17.900146252936">
        <ele>126</ele>
        <time>2019-09-18T18:10:49Z</time>
      </trkpt>
      <trkpt lat="59.190233817397" lon="17.90017776888">
        <ele>126</ele>
        <time>2019-09-18T18:10:50Z</time>
      </trkpt>
      <trkpt lat="59.190202217634" lon="17.900209368643">
        <ele>125.8</ele>
        <time>2019-09-18T18:10:51Z</time>
      </trkpt>
      <trkpt lat="59.190181095246" lon="17.900240800768">
        <ele>125.8</ele>
        <time>2019-09-18T18:10:52Z</time>
      </trkpt>
      <trkpt lat="59.190164582903" lon="17.900265611192">
        <ele>125.8</ele>
        <time>2019-09-18T18:10:53Z</time>
      </trkpt>
      <trkpt lat="59.190146645637" lon="17.90029176272">
        <ele>125.8</ele>
        <time>2019-09-18T18:10:54Z</time>
      </trkpt>
      <trkpt lat="59.190126529077" lon="17.900317830429">
        <ele>125.8</ele>
        <time>2019-09-18T18:10:55Z</time>
      </trkpt>
      <trkpt lat="59.190101299558" lon="17.900349933106">
        <ele>125.8</ele>
        <time>2019-09-18T18:10:56Z</time>
      </trkpt>
      <trkpt lat="59.190078919885" lon="17.900376503729">
        <ele>125.8</ele>
        <time>2019-09-18T18:10:57Z</time>
      </trkpt>
      <trkpt lat="59.190049080321" lon="17.90041330027">
        <ele>125.8</ele>
        <time>2019-09-18T18:10:58Z</time>
      </trkpt>
      <trkpt lat="59.190023264069" lon="17.900445570585">
        <ele>125.8</ele>
        <time>2019-09-18T18:10:59Z</time>
      </trkpt>
      <trkpt lat="59.190001806405" lon="17.900470632466">
        <ele>126</ele>
        <time>2019-09-18T18:11:00Z</time>
      </trkpt>
      <trkpt lat="59.189980767836" lon="17.900497789822">
        <ele>126</ele>
        <time>2019-09-18T18:11:01Z</time>
      </trkpt>
      <trkpt lat="59.189965428959" lon="17.900525869187">
        <ele>126</ele>
        <time>2019-09-18T18:11:02Z</time>
      </trkpt>
      <trkpt lat="59.189946569684" lon="17.900556379303">
        <ele>126</ele>
        <time>2019-09-18T18:11:03Z</time>
      </trkpt>
      <trkpt lat="59.189929889703" lon="17.900577501691">
        <ele>125.8</ele>
        <time>2019-09-18T18:11:04Z</time>
      </trkpt>
      <trkpt lat="59.189920334337" lon="17.900601976839">
        <ele>126</ele>
        <time>2019-09-18T18:11:05Z</time>
      </trkpt>
      <trkpt lat="59.189901391243" lon="17.90062284777">
        <ele>125.8</ele>
        <time>2019-09-18T18:11:06Z</time>
      </trkpt>
      <trkpt lat="59.18989158442" lon="17.900629804747">
        <ele>125.8</ele>
        <time>2019-09-18T18:11:07Z</time>
      </trkpt>
      <trkpt lat="59.189872641326" lon="17.900637180819">
        <ele>125.8</ele>
        <time>2019-09-18T18:11:08Z</time>
      </trkpt>
      <trkpt lat="59.189850680748" lon="17.900644556891">
        <ele>125.8</ele>
        <time>2019-09-18T18:11:09Z</time>
      </trkpt>
      <trkpt lat="59.189816482596" lon="17.90064380252">
        <ele>125.6</ele>
        <time>2019-09-18T18:11:10Z</time>
      </trkpt>
      <trkpt lat="59.189816482596" lon="17.90064380252">
        <ele>125.6</ele>
        <time>2019-09-18T18:11:11Z</time>
      </trkpt>
      <trkpt lat="59.189758060753" lon="17.900681604889">
        <ele>125.6</ele>
        <time>2019-09-18T18:11:12Z</time>
      </trkpt>
      <trkpt lat="59.189724449334" lon="17.900710522444">
        <ele>125.6</ele>
        <time>2019-09-18T18:11:13Z</time>
      </trkpt>
      <trkpt lat="59.189695950874" lon="17.900745055872">
        <ele>125.6</ele>
        <time>2019-09-18T18:11:14Z</time>
      </trkpt>
      <trkpt lat="59.189671056631" lon="17.900792832702">
        <ele>125.4</ele>
        <time>2019-09-18T18:11:15Z</time>
      </trkpt>
      <trkpt lat="59.189671056631" lon="17.900792832702">
        <ele>125.4</ele>
        <time>2019-09-18T18:11:16Z</time>
      </trkpt>
      <trkpt lat="59.189651610623" lon="17.90088520124">
        <ele>125.4</ele>
        <time>2019-09-18T18:11:17Z</time>
      </trkpt>
      <trkpt lat="59.189652532632" lon="17.900928284206">
        <ele>125.6</ele>
        <time>2019-09-18T18:11:18Z</time>
      </trkpt>
      <trkpt lat="59.189652616451" lon="17.900953849001">
        <ele>125.6</ele>
        <time>2019-09-18T18:11:19Z</time>
      </trkpt>
      <trkpt lat="59.189658316143" lon="17.900968098231">
        <ele>125.6</ele>
        <time>2019-09-18T18:11:20Z</time>
      </trkpt>
      <trkpt lat="59.189664267292" lon="17.900960386883">
        <ele>125.6</ele>
        <time>2019-09-18T18:11:21Z</time>
      </trkpt>
      <trkpt lat="59.189670637536" lon="17.900935325002">
        <ele>125.6</ele>
        <time>2019-09-18T18:11:22Z</time>
      </trkpt>
      <trkpt lat="59.189676421047" lon="17.900901713583">
        <ele>125.6</ele>
        <time>2019-09-18T18:11:23Z</time>
      </trkpt>
      <trkpt lat="59.189683461843" lon="17.90086759925">
        <ele>125.6</ele>
        <time>2019-09-18T18:11:24Z</time>
      </trkpt>
      <trkpt lat="59.189695699417" lon="17.900830802709">
        <ele>125.4</ele>
        <time>2019-09-18T18:11:25Z</time>
      </trkpt>
      <trkpt lat="59.189706428249" lon="17.900800376412">
        <ele>125.6</ele>
        <time>2019-09-18T18:11:26Z</time>
      </trkpt>
      <trkpt lat="59.189706428249" lon="17.900800376412">
        <ele>125.6</ele>
        <time>2019-09-18T18:11:27Z</time>
      </trkpt>
      <trkpt lat="59.189734256157" lon="17.900746648433">
        <ele>125.6</ele>
        <time>2019-09-18T18:11:28Z</time>
      </trkpt>
      <trkpt lat="59.189753450708" lon="17.900718149973">
        <ele>125.6</ele>
        <time>2019-09-18T18:11:29Z</time>
      </trkpt>
      <trkpt lat="59.189769543956" lon="17.900687053124">
        <ele>125.6</ele>
        <time>2019-09-18T18:11:30Z</time>
      </trkpt>
      <trkpt lat="59.189790331068" lon="17.900658638483">
        <ele>125.6</ele>
        <time>2019-09-18T18:11:31Z</time>
      </trkpt>
      <trkpt lat="59.189810615266" lon="17.900631313489">
        <ele>125.6</ele>
        <time>2019-09-18T18:11:32Z</time>
      </trkpt>
      <trkpt lat="59.189824613039" lon="17.90059770207">
        <ele>125.6</ele>
        <time>2019-09-18T18:11:33Z</time>
      </trkpt>
      <trkpt lat="59.189843723771" lon="17.900563587737">
        <ele>125.6</ele>
        <time>2019-09-18T18:11:34Z</time>
      </trkpt>
      <trkpt lat="59.189863169779" lon="17.900530563051">
        <ele>125.6</ele>
        <time>2019-09-18T18:11:35Z</time>
      </trkpt>
      <trkpt lat="59.189883873072" lon="17.900499382383">
        <ele>125.6</ele>
        <time>2019-09-18T18:11:36Z</time>
      </trkpt>
      <trkpt lat="59.189907090935" lon="17.900468956086">
        <ele>125.6</ele>
        <time>2019-09-18T18:11:37Z</time>
      </trkpt>
      <trkpt lat="59.189935002662" lon="17.900428639147">
        <ele>125.6</ele>
        <time>2019-09-18T18:11:38Z</time>
      </trkpt>
      <trkpt lat="59.189964171674" lon="17.900389579493">
        <ele>125.6</ele>
        <time>2019-09-18T18:11:39Z</time>
      </trkpt>
      <trkpt lat="59.189993927419" lon="17.900353704961">
        <ele>125.6</ele>
        <time>2019-09-18T18:11:40Z</time>
      </trkpt>
      <trkpt lat="59.190027622657" lon="17.900310454357">
        <ele>125.6</ele>
        <time>2019-09-18T18:11:41Z</time>
      </trkpt>
      <trkpt lat="59.190055115289" lon="17.900256977835">
        <ele>125.8</ele>
        <time>2019-09-18T18:11:42Z</time>
      </trkpt>
      <trkpt lat="59.190088642889" lon="17.900195538508">
        <ele>125.8</ele>
        <time>2019-09-18T18:11:43Z</time>
      </trkpt>
      <trkpt lat="59.190118482453" lon="17.900148767506">
        <ele>126</ele>
        <time>2019-09-18T18:11:44Z</time>
      </trkpt>
      <trkpt lat="59.190149076388" lon="17.900105935997">
        <ele>126</ele>
        <time>2019-09-18T18:11:45Z</time>
      </trkpt>
      <trkpt lat="59.19017489264" lon="17.900069810008">
        <ele>126</ele>
        <time>2019-09-18T18:11:46Z</time>
      </trkpt>
      <trkpt lat="59.190198194322" lon="17.900037874969">
        <ele>126</ele>
        <time>2019-09-18T18:11:47Z</time>
      </trkpt>
      <trkpt lat="59.190212778828" lon="17.900006023749">
        <ele>125.8</ele>
        <time>2019-09-18T18:11:48Z</time>
      </trkpt>
      <trkpt lat="59.190226106049" lon="17.899981800058">
        <ele>125.8</ele>
        <time>2019-09-18T18:11:49Z</time>
      </trkpt>
      <trkpt lat="59.19024110965" lon="17.899959755661">
        <ele>126</ele>
        <time>2019-09-18T18:11:50Z</time>
      </trkpt>
      <trkpt lat="59.190257789631" lon="17.899936453979">
        <ele>126</ele>
        <time>2019-09-18T18:11:51Z</time>
      </trkpt>
      <trkpt lat="59.190278995838" lon="17.89990619532">
        <ele>126.2</ele>
        <time>2019-09-18T18:11:52Z</time>
      </trkpt>
      <trkpt lat="59.190300202045" lon="17.899883731828">
        <ele>126.2</ele>
        <time>2019-09-18T18:11:53Z</time>
      </trkpt>
      <trkpt lat="59.190320821519" lon="17.899860346327">
        <ele>126.2</ele>
        <time>2019-09-18T18:11:54Z</time>
      </trkpt>
      <trkpt lat="59.190345212848" lon="17.899836793188">
        <ele>126.2</ele>
        <time>2019-09-18T18:11:55Z</time>
      </trkpt>
      <trkpt lat="59.190369017444" lon="17.89981818537">
        <ele>126.4</ele>
        <time>2019-09-18T18:11:56Z</time>
      </trkpt>
      <trkpt lat="59.190392905859" lon="17.899789519272">
        <ele>126.4</ele>
        <time>2019-09-18T18:11:57Z</time>
      </trkpt>
      <trkpt lat="59.190419308844" lon="17.899756243129">
        <ele>126.4</ele>
        <time>2019-09-18T18:11:58Z</time>
      </trkpt>
      <trkpt lat="59.190419308844" lon="17.899756243129">
        <ele>126.4</ele>
        <time>2019-09-18T18:11:59Z</time>
      </trkpt>
      <trkpt lat="59.190492901926" lon="17.899691451042">
        <ele>126.4</ele>
        <time>2019-09-18T18:12:00Z</time>
      </trkpt>
      <trkpt lat="59.190525675155" lon="17.899644344764">
        <ele>126.4</ele>
        <time>2019-09-18T18:12:01Z</time>
      </trkpt>
      <trkpt lat="59.19056213642" lon="17.899600926522">
        <ele>126.4</ele>
        <time>2019-09-18T18:12:02Z</time>
      </trkpt>
      <trkpt lat="59.190604800291" lon="17.899556753909">
        <ele>126.4</ele>
        <time>2019-09-18T18:12:03Z</time>
      </trkpt>
      <trkpt lat="59.190650230189" lon="17.899508390346">
        <ele>126.4</ele>
        <time>2019-09-18T18:12:04Z</time>
      </trkpt>
      <trkpt lat="59.190693480793" lon="17.899467905769">
        <ele>126.4</ele>
        <time>2019-09-18T18:12:05Z</time>
      </trkpt>
      <trkpt lat="59.190732540447" lon="17.899438652938">
        <ele>126.2</ele>
        <time>2019-09-18T18:12:06Z</time>
      </trkpt>
      <trkpt lat="59.190769001712" lon="17.899425493355">
        <ele>126.2</ele>
        <time>2019-09-18T18:12:07Z</time>
      </trkpt>
      <trkpt lat="59.190800014742" lon="17.899414093971">
        <ele>126.2</ele>
        <time>2019-09-18T18:12:08Z</time>
      </trkpt>
      <trkpt lat="59.190823819338" lon="17.899399341827">
        <ele>126.2</ele>
        <time>2019-09-18T18:12:09Z</time>
      </trkpt>
      <trkpt lat="59.190823819338" lon="17.899399341827">
        <ele>126.2</ele>
        <time>2019-09-18T18:12:10Z</time>
      </trkpt>
      <trkpt lat="59.190882408819" lon="17.899331699894">
        <ele>126.2</ele>
        <time>2019-09-18T18:12:12Z</time>
      </trkpt>
      <trkpt lat="59.190896238954" lon="17.899297166466">
        <ele>126.2</ele>
        <time>2019-09-18T18:12:13Z</time>
      </trkpt>
      <trkpt lat="59.190906381053" lon="17.899262968314">
        <ele>126.2</ele>
        <time>2019-09-18T18:12:14Z</time>
      </trkpt>
      <trkpt lat="59.190917445161" lon="17.899225082126">
        <ele>126.2</ele>
        <time>2019-09-18T18:12:15Z</time>
      </trkpt>
      <trkpt lat="59.190924150681" lon="17.899207312498">
        <ele>126.2</ele>
        <time>2019-09-18T18:12:16Z</time>
      </trkpt>
      <trkpt lat="59.190918534808" lon="17.899203624462">
        <ele>126.4</ele>
        <time>2019-09-18T18:12:17Z</time>
      </trkpt>
      <trkpt lat="59.190918031894" lon="17.899195661657">
        <ele>126.4</ele>
        <time>2019-09-18T18:12:18Z</time>
      </trkpt>
      <trkpt lat="59.190923480129" lon="17.899184429911">
        <ele>126.6</ele>
        <time>2019-09-18T18:12:19Z</time>
      </trkpt>
      <trkpt lat="59.190900429904" lon="17.89919121925">
        <ele>127.2</ele>
        <time>2019-09-18T18:12:49Z</time>
      </trkpt>
      <trkpt lat="59.190884671932" lon="17.899207228679">
        <ele>127.2</ele>
        <time>2019-09-18T18:12:50Z</time>
      </trkpt>
      <trkpt lat="59.190872182901" lon="17.899220136805">
        <ele>127.2</ele>
        <time>2019-09-18T18:12:51Z</time>
      </trkpt>
      <trkpt lat="59.190861621707" lon="17.899233044931">
        <ele>127</ele>
        <time>2019-09-18T18:12:52Z</time>
      </trkpt>
      <trkpt lat="59.190852736893" lon="17.899245533962">
        <ele>127</ele>
        <time>2019-09-18T18:12:53Z</time>
      </trkpt>
      <trkpt lat="59.190847623934" lon="17.899250898378">
        <ele>127</ele>
        <time>2019-09-18T18:12:54Z</time>
      </trkpt>
      <trkpt lat="59.190836140731" lon="17.899255256966">
        <ele>127.2</ele>
        <time>2019-09-18T18:12:55Z</time>
      </trkpt>
      <trkpt lat="59.190817952008" lon="17.899269757653">
        <ele>127.2</ele>
        <time>2019-09-18T18:12:56Z</time>
      </trkpt>
      <trkpt lat="59.190800517656" lon="17.899281408494">
        <ele>127.2</ele>
        <time>2019-09-18T18:12:57Z</time>
      </trkpt>
      <trkpt lat="59.190778976173" lon="17.899293646068">
        <ele>127.2</ele>
        <time>2019-09-18T18:12:58Z</time>
      </trkpt>
      <trkpt lat="59.190763637296" lon="17.899310074592">
        <ele>127.2</ele>
        <time>2019-09-18T18:12:59Z</time>
      </trkpt>
      <trkpt lat="59.190751399722" lon="17.899327508944">
        <ele>127.2</ele>
        <time>2019-09-18T18:13:00Z</time>
      </trkpt>
      <trkpt lat="59.190730277334" lon="17.89934041707">
        <ele>127</ele>
        <time>2019-09-18T18:13:01Z</time>
      </trkpt>
      <trkpt lat="59.190703203797" lon="17.899363132019">
        <ele>127</ele>
        <time>2019-09-18T18:13:02Z</time>
      </trkpt>
      <trkpt lat="59.190683506332" lon="17.899381153104">
        <ele>127.2</ele>
        <time>2019-09-18T18:13:03Z</time>
      </trkpt>
      <trkpt lat="59.190663808867" lon="17.899402862225">
        <ele>127.2</ele>
        <time>2019-09-18T18:13:04Z</time>
      </trkpt>
      <trkpt lat="59.190638914624" lon="17.899423649337">
        <ele>127</ele>
        <time>2019-09-18T18:13:05Z</time>
      </trkpt>
      <trkpt lat="59.190623156652" lon="17.89944099987">
        <ele>127</ele>
        <time>2019-09-18T18:13:06Z</time>
      </trkpt>
      <trkpt lat="59.19061075144" lon="17.899450974331">
        <ele>127.2</ele>
        <time>2019-09-18T18:13:07Z</time>
      </trkpt>
      <trkpt lat="59.190580073686" lon="17.899499589351">
        <ele>127.2</ele>
        <time>2019-09-18T18:13:10Z</time>
      </trkpt>
      <trkpt lat="59.190560208583" lon="17.899525824698">
        <ele>127.2</ele>
        <time>2019-09-18T18:13:11Z</time>
      </trkpt>
      <trkpt lat="59.190544785887" lon="17.899555328986">
        <ele>127.2</ele>
        <time>2019-09-18T18:13:12Z</time>
      </trkpt>
      <trkpt lat="59.190526261888" lon="17.899580474686">
        <ele>127.2</ele>
        <time>2019-09-18T18:13:13Z</time>
      </trkpt>
      <trkpt lat="59.190517963807" lon="17.899594891554">
        <ele>127.2</ele>
        <time>2019-09-18T18:13:14Z</time>
      </trkpt>
      <trkpt lat="59.190510084821" lon="17.899604866015">
        <ele>127.2</ele>
        <time>2019-09-18T18:13:15Z</time>
      </trkpt>
      <trkpt lat="59.190410759306" lon="17.899720033321">
        <ele>127</ele>
        <time>2019-09-18T18:13:23Z</time>
      </trkpt>
      <trkpt lat="59.190396342438" lon="17.899738473501">
        <ele>127</ele>
        <time>2019-09-18T18:13:24Z</time>
      </trkpt>
      <trkpt lat="59.190380835923" lon="17.899756662224">
        <ele>127</ele>
        <time>2019-09-18T18:13:25Z</time>
      </trkpt>
      <trkpt lat="59.190371615833" lon="17.899764038296">
        <ele>127</ele>
        <time>2019-09-18T18:13:26Z</time>
      </trkpt>
      <trkpt lat="59.190355271128" lon="17.899779377173">
        <ele>127</ele>
        <time>2019-09-18T18:13:27Z</time>
      </trkpt>
      <trkpt lat="59.190345967219" lon="17.899793794041">
        <ele>127</ele>
        <time>2019-09-18T18:13:28Z</time>
      </trkpt>
      <trkpt lat="59.190333562007" lon="17.899814413515">
        <ele>126.8</ele>
        <time>2019-09-18T18:13:29Z</time>
      </trkpt>
      <trkpt lat="59.190316379112" lon="17.899827740736">
        <ele>127</ele>
        <time>2019-09-18T18:13:30Z</time>
      </trkpt>
      <trkpt lat="59.190296346371" lon="17.899838553387">
        <ele>126.8</ele>
        <time>2019-09-18T18:13:31Z</time>
      </trkpt>
      <trkpt lat="59.190279582571" lon="17.899858837585">
        <ele>126.8</ele>
        <time>2019-09-18T18:13:32Z</time>
      </trkpt>
      <trkpt lat="59.1902620644" lon="17.899883396552">
        <ele>126.8</ele>
        <time>2019-09-18T18:13:33Z</time>
      </trkpt>
      <trkpt lat="59.190243791858" lon="17.899914325763">
        <ele>126.6</ele>
        <time>2019-09-18T18:13:34Z</time>
      </trkpt>
      <trkpt lat="59.190226776601" lon="17.899933101219">
        <ele>126.6</ele>
        <time>2019-09-18T18:13:35Z</time>
      </trkpt>
      <trkpt lat="59.190212778828" lon="17.899951876675">
        <ele>126.6</ele>
        <time>2019-09-18T18:13:36Z</time>
      </trkpt>
      <trkpt lat="59.190196350304" lon="17.899976519461">
        <ele>126.4</ele>
        <time>2019-09-18T18:13:37Z</time>
      </trkpt>
      <trkpt lat="59.190196350304" lon="17.899976519461">
        <ele>126.4</ele>
        <time>2019-09-18T18:13:38Z</time>
      </trkpt>
      <trkpt lat="59.190183358359" lon="17.900009879423">
        <ele>126.4</ele>
        <time>2019-09-18T18:13:39Z</time>
      </trkpt>
      <trkpt lat="59.190168103301" lon="17.900027900508">
        <ele>126.4</ele>
        <time>2019-09-18T18:13:40Z</time>
      </trkpt>
      <trkpt lat="59.190150501311" lon="17.900056063692">
        <ele>126.6</ele>
        <time>2019-09-18T18:13:41Z</time>
      </trkpt>
      <trkpt lat="59.190131977312" lon="17.900083807781">
        <ele>126.4</ele>
        <time>2019-09-18T18:13:42Z</time>
      </trkpt>
      <trkpt lat="59.190115967883" lon="17.900111048956">
        <ele>126.4</ele>
        <time>2019-09-18T18:13:43Z</time>
      </trkpt>
      <trkpt lat="59.190100377549" lon="17.900138960683">
        <ele>126.2</ele>
        <time>2019-09-18T18:13:44Z</time>
      </trkpt>
      <trkpt lat="59.190086547414" lon="17.900160585985">
        <ele>126.4</ele>
        <time>2019-09-18T18:13:45Z</time>
      </trkpt>
      <trkpt lat="59.190072717279" lon="17.900175589586">
        <ele>126.4</ele>
        <time>2019-09-18T18:13:46Z</time>
      </trkpt>
      <trkpt lat="59.19005670785" lon="17.900194113585">
        <ele>126.4</ele>
        <time>2019-09-18T18:13:47Z</time>
      </trkpt>
      <trkpt lat="59.190035836919" lon="17.900221690036">
        <ele>126.2</ele>
        <time>2019-09-18T18:13:48Z</time>
      </trkpt>
      <trkpt lat="59.190019911309" lon="17.900246835736">
        <ele>126.2</ele>
        <time>2019-09-18T18:13:49Z</time>
      </trkpt>
      <trkpt lat="59.18999887274" lon="17.900268125762">
        <ele>126.2</ele>
        <time>2019-09-18T18:13:50Z</time>
      </trkpt>
      <trkpt lat="59.189976744524" lon="17.900290337797">
        <ele>126.2</ele>
        <time>2019-09-18T18:13:51Z</time>
      </trkpt>
      <trkpt lat="59.189953023747" lon="17.900314226212">
        <ele>126.4</ele>
        <time>2019-09-18T18:13:52Z</time>
      </trkpt>
      <trkpt lat="59.189937181956" lon="17.900336102971">
        <ele>126.4</ele>
        <time>2019-09-18T18:13:53Z</time>
      </trkpt>
      <trkpt lat="59.189920501975" lon="17.900364182336">
        <ele>126.4</ele>
        <time>2019-09-18T18:13:54Z</time>
      </trkpt>
      <trkpt lat="59.189907174754" lon="17.900381365231">
        <ele>126.4</ele>
        <time>2019-09-18T18:13:55Z</time>
      </trkpt>
      <trkpt lat="59.189890159497" lon="17.900393351348">
        <ele>126.4</ele>
        <time>2019-09-18T18:13:56Z</time>
      </trkpt>
      <trkpt lat="59.189866271082" lon="17.900413216451">
        <ele>126.4</ele>
        <time>2019-09-18T18:13:57Z</time>
      </trkpt>
      <trkpt lat="59.189843723771" lon="17.900432075726">
        <ele>126.4</ele>
        <time>2019-09-18T18:13:58Z</time>
      </trkpt>
      <trkpt lat="59.189815644406" lon="17.900459987453">
        <ele>126.4</ele>
        <time>2019-09-18T18:13:59Z</time>
      </trkpt>
      <trkpt lat="59.18979016343" lon="17.900484043506">
        <ele>126.2</ele>
        <time>2019-09-18T18:14:00Z</time>
      </trkpt>
      <trkpt lat="59.18976669411" lon="17.900509273025">
        <ele>126.2</ele>
        <time>2019-09-18T18:14:01Z</time>
      </trkpt>
      <trkpt lat="59.18976669411" lon="17.900509273025">
        <ele>126.2</ele>
        <time>2019-09-18T18:14:02Z</time>
      </trkpt>
      <trkpt lat="59.189690502639" lon="17.900574316569">
        <ele>126.2</ele>
        <time>2019-09-18T18:14:04Z</time>
      </trkpt>
      <trkpt lat="59.18967030226" lon="17.900592253835">
        <ele>126.2</ele>
        <time>2019-09-18T18:14:05Z</time>
      </trkpt>
      <trkpt lat="59.189649431329" lon="17.900608095626">
        <ele>126</ele>
        <time>2019-09-18T18:14:06Z</time>
      </trkpt>
      <trkpt lat="59.189626884018" lon="17.900637348457">
        <ele>126</ele>
        <time>2019-09-18T18:14:07Z</time>
      </trkpt>
      <trkpt lat="59.18960073249" lon="17.90066391908">
        <ele>126</ele>
        <time>2019-09-18T18:14:08Z</time>
      </trkpt>
      <trkpt lat="59.18957139584" lon="17.900698871603">
        <ele>126</ele>
        <time>2019-09-18T18:14:09Z</time>
      </trkpt>
      <trkpt lat="59.189553207117" lon="17.900757461084">
        <ele>125.8</ele>
        <time>2019-09-18T18:14:10Z</time>
      </trkpt>
      <trkpt lat="59.189551195461" lon="17.900816721117">
        <ele>125.8</ele>
        <time>2019-09-18T18:14:11Z</time>
      </trkpt>
      <trkpt lat="59.189556140782" lon="17.900872209295">
        <ele>125.8</ele>
        <time>2019-09-18T18:14:12Z</time>
      </trkpt>
      <trkpt lat="59.189565360872" lon="17.900909592569">
        <ele>125.8</ele>
        <time>2019-09-18T18:14:13Z</time>
      </trkpt>
      <trkpt lat="59.189572066392" lon="17.900954016639">
        <ele>125.6</ele>
        <time>2019-09-18T18:14:14Z</time>
      </trkpt>
      <trkpt lat="59.18958145412" lon="17.900977905054">
        <ele>125.6</ele>
        <time>2019-09-18T18:14:15Z</time>
      </trkpt>
      <trkpt lat="59.189594781341" lon="17.900982934194">
        <ele>125.6</ele>
        <time>2019-09-18T18:14:16Z</time>
      </trkpt>
      <trkpt lat="59.18960743801" lon="17.900969774611">
        <ele>125.6</ele>
        <time>2019-09-18T18:14:17Z</time>
      </trkpt>
      <trkpt lat="59.189616909557" lon="17.900944461273">
        <ele>125.8</ele>
        <time>2019-09-18T18:14:18Z</time>
      </trkpt>
      <trkpt lat="59.18962420181" lon="17.900915040804">
        <ele>125.6</ele>
        <time>2019-09-18T18:14:19Z</time>
      </trkpt>
      <trkpt lat="59.18963258371" lon="17.900881345566">
        <ele>125.6</ele>
        <time>2019-09-18T18:14:20Z</time>
      </trkpt>
      <trkpt lat="59.189646162388" lon="17.90085251183">
        <ele>125.4</ele>
        <time>2019-09-18T18:14:21Z</time>
      </trkpt>
      <trkpt lat="59.189660327799" lon="17.900826276483">
        <ele>125.6</ele>
        <time>2019-09-18T18:14:22Z</time>
      </trkpt>
      <trkpt lat="59.189675247581" lon="17.900804735">
        <ele>125.6</ele>
        <time>2019-09-18T18:14:23Z</time>
      </trkpt>
      <trkpt lat="59.189694274494" lon="17.900777661463">
        <ele>125.6</ele>
        <time>2019-09-18T18:14:24Z</time>
      </trkpt>
      <trkpt lat="59.189708272267" lon="17.900751426116">
        <ele>125.6</ele>
        <time>2019-09-18T18:14:25Z</time>
      </trkpt>
      <trkpt lat="59.189727131542" lon="17.900731980108">
        <ele>125.6</ele>
        <time>2019-09-18T18:14:26Z</time>
      </trkpt>
      <trkpt lat="59.189752277242" lon="17.900713875204">
        <ele>125.6</ele>
        <time>2019-09-18T18:14:27Z</time>
      </trkpt>
      <trkpt lat="59.189775830381" lon="17.900697865775">
        <ele>125.6</ele>
        <time>2019-09-18T18:14:28Z</time>
      </trkpt>
      <trkpt lat="59.189797288045" lon="17.900666517469">
        <ele>125.6</ele>
        <time>2019-09-18T18:14:29Z</time>
      </trkpt>
      <trkpt lat="59.189820254451" lon="17.900630223842">
        <ele>125.6</ele>
        <time>2019-09-18T18:14:30Z</time>
      </trkpt>
      <trkpt lat="59.189843891409" lon="17.900599126993">
        <ele>125.6</ele>
        <time>2019-09-18T18:14:31Z</time>
      </trkpt>
      <trkpt lat="59.189866271082" lon="17.900564677384">
        <ele>125.6</ele>
        <time>2019-09-18T18:14:32Z</time>
      </trkpt>
      <trkpt lat="59.189892590248" lon="17.900530898327">
        <ele>125.6</ele>
        <time>2019-09-18T18:14:33Z</time>
      </trkpt>
      <trkpt lat="59.189916897758" lon="17.900490665207">
        <ele>125.6</ele>
        <time>2019-09-18T18:14:34Z</time>
      </trkpt>
      <trkpt lat="59.18993852306" lon="17.900451102639">
        <ele>125.6</ele>
        <time>2019-09-18T18:14:35Z</time>
      </trkpt>
      <trkpt lat="59.189959980724" lon="17.900423107093">
        <ele>125.6</ele>
        <time>2019-09-18T18:14:36Z</time>
      </trkpt>
      <trkpt lat="59.189986718985" lon="17.900385053267">
        <ele>125.6</ele>
        <time>2019-09-18T18:14:37Z</time>
      </trkpt>
      <trkpt lat="59.190005662079" lon="17.900358315006">
        <ele>125.8</ele>
        <time>2019-09-18T18:14:38Z</time>
      </trkpt>
      <trkpt lat="59.190027874114" lon="17.900321853741">
        <ele>125.8</ele>
        <time>2019-09-18T18:14:39Z</time>
      </trkpt>
      <trkpt lat="59.190050169968" lon="17.900291846539">
        <ele>125.8</ele>
        <time>2019-09-18T18:14:40Z</time>
      </trkpt>
      <trkpt lat="59.19009023545" lon="17.900249350306">
        <ele>125.8</ele>
        <time>2019-09-18T18:14:41Z</time>
      </trkpt>
      <trkpt lat="59.19011538115" lon="17.900217750543">
        <ele>125.8</ele>
        <time>2019-09-18T18:14:42Z</time>
      </trkpt>
      <trkpt lat="59.19011538115" lon="17.900217750543">
        <ele>125.8</ele>
        <time>2019-09-18T18:14:43Z</time>
      </trkpt>
      <trkpt lat="59.190156033365" lon="17.900165028392">
        <ele>125.8</ele>
        <time>2019-09-18T18:14:44Z</time>
      </trkpt>
      <trkpt lat="59.190156033365" lon="17.900165028392">
        <ele>125.8</ele>
        <time>2019-09-18T18:14:45Z</time>
      </trkpt>
      <trkpt lat="59.190193751915" lon="17.900118676485">
        <ele>126</ele>
        <time>2019-09-18T18:14:46Z</time>
      </trkpt>
      <trkpt lat="59.190206240946" lon="17.900099984848">
        <ele>126.2</ele>
        <time>2019-09-18T18:14:47Z</time>
      </trkpt>
      <trkpt lat="59.190219819624" lon="17.90007886246">
        <ele>126.2</ele>
        <time>2019-09-18T18:14:48Z</time>
      </trkpt>
      <trkpt lat="59.190234152673" lon="17.900057823891">
        <ele>126.2</ele>
        <time>2019-09-18T18:14:49Z</time>
      </trkpt>
      <trkpt lat="59.190252928129" lon="17.900030917992">
        <ele>126.2</ele>
        <time>2019-09-18T18:14:50Z</time>
      </trkpt>
      <trkpt lat="59.190271619766" lon="17.900000575514">
        <ele>126.2</ele>
        <time>2019-09-18T18:14:51Z</time>
      </trkpt>
      <trkpt lat="59.190299028579" lon="17.899969227208">
        <ele>126.2</ele>
        <time>2019-09-18T18:14:52Z</time>
      </trkpt>
      <trkpt lat="59.19032828141" lon="17.899932598305">
        <ele>126.2</ele>
        <time>2019-09-18T18:14:53Z</time>
      </trkpt>
      <trkpt lat="59.190355271128" lon="17.899894628298">
        <ele>126.2</ele>
        <time>2019-09-18T18:14:54Z</time>
      </trkpt>
      <trkpt lat="59.190386032701" lon="17.899858334671">
        <ele>126.2</ele>
        <time>2019-09-18T18:14:55Z</time>
      </trkpt>
      <trkpt lat="59.190417381007" lon="17.899825980537">
        <ele>126.2</ele>
        <time>2019-09-18T18:14:56Z</time>
      </trkpt>
      <trkpt lat="59.190444119268" lon="17.899783987218">
        <ele>126.2</ele>
        <time>2019-09-18T18:14:57Z</time>
      </trkpt>
      <trkpt lat="59.190460547792" lon="17.899746268668">
        <ele>126.2</ele>
        <time>2019-09-18T18:14:58Z</time>
      </trkpt>
      <trkpt lat="59.19047747923" lon="17.899719865683">
        <ele>126.2</ele>
        <time>2019-09-18T18:14:59Z</time>
      </trkpt>
      <trkpt lat="59.190493823935" lon="17.899699665304">
        <ele>126.2</ele>
        <time>2019-09-18T18:15:00Z</time>
      </trkpt>
      <trkpt lat="59.190512599391" lon="17.899678459097">
        <ele>126.2</ele>
        <time>2019-09-18T18:15:01Z</time>
      </trkpt>
      <trkpt lat="59.190512599391" lon="17.899678459097">
        <ele>126.2</ele>
        <time>2019-09-18T18:15:02Z</time>
      </trkpt>
      <trkpt lat="59.19054956357" lon="17.89962707805">
        <ele>126.2</ele>
        <time>2019-09-18T18:15:03Z</time>
      </trkpt>
      <trkpt lat="59.190572529976" lon="17.89959857959">
        <ele>126.4</ele>
        <time>2019-09-18T18:15:04Z</time>
      </trkpt>
      <trkpt lat="59.190588371767" lon="17.899579720315">
        <ele>126.4</ele>
        <time>2019-09-18T18:15:05Z</time>
      </trkpt>
      <trkpt lat="59.190602285721" lon="17.899563207972">
        <ele>126.4</ele>
        <time>2019-09-18T18:15:06Z</time>
      </trkpt>
      <trkpt lat="59.190628437249" lon="17.899533368408">
        <ele>126.6</ele>
        <time>2019-09-18T18:15:07Z</time>
      </trkpt>
      <trkpt lat="59.190657606261" lon="17.899497326238">
        <ele>126.6</ele>
        <time>2019-09-18T18:15:08Z</time>
      </trkpt>
      <trkpt lat="59.190685769445" lon="17.899456841661">
        <ele>126.6</ele>
        <time>2019-09-18T18:15:09Z</time>
      </trkpt>
      <trkpt lat="59.190712088611" lon="17.89942675064">
        <ele>126.6</ele>
        <time>2019-09-18T18:15:10Z</time>
      </trkpt>
      <trkpt lat="59.190744358926" lon="17.899393893592">
        <ele>126.6</ele>
        <time>2019-09-18T18:15:11Z</time>
      </trkpt>
      <trkpt lat="59.190744358926" lon="17.899393893592">
        <ele>126.6</ele>
        <time>2019-09-18T18:15:12Z</time>
      </trkpt>
      <trkpt lat="59.190805462977" lon="17.89931694775">
        <ele>126.4</ele>
        <time>2019-09-18T18:15:13Z</time>
      </trkpt>
      <trkpt lat="59.190834212894" lon="17.899279899752">
        <ele>126.4</ele>
        <time>2019-09-18T18:15:14Z</time>
      </trkpt>
      <trkpt lat="59.190854161816" lon="17.899252323301">
        <ele>126.4</ele>
        <time>2019-09-18T18:15:15Z</time>
      </trkpt>
      <trkpt lat="59.190865142105" lon="17.899231284732">
        <ele>126.4</ele>
        <time>2019-09-18T18:15:16Z</time>
      </trkpt>
      <trkpt lat="59.190877128222" lon="17.899216448769">
        <ele>126.4</ele>
        <time>2019-09-18T18:15:17Z</time>
      </trkpt>
      <trkpt lat="59.190877128222" lon="17.899216448769">
        <ele>126.6</ele>
        <time>2019-09-18T18:15:18Z</time>
      </trkpt>
      <trkpt lat="59.190896490411" lon="17.899200774616">
        <ele>126.6</ele>
        <time>2019-09-18T18:15:19Z</time>
      </trkpt>
      <trkpt lat="59.19090244156" lon="17.899199098236">
        <ele>126.6</ele>
        <time>2019-09-18T18:15:20Z</time>
      </trkpt>
      <trkpt lat="59.190905375225" lon="17.899193230906">
        <ele>126.6</ele>
        <time>2019-09-18T18:15:21Z</time>
      </trkpt>
      <trkpt lat="59.190913673306" lon="17.899189039956">
        <ele>126.6</ele>
        <time>2019-09-18T18:15:22Z</time>
      </trkpt>
      <trkpt lat="59.190886935045" lon="17.899288197833">
        <ele>127</ele>
        <time>2019-09-18T18:17:13Z</time>
      </trkpt>
      <trkpt lat="59.190870255064" lon="17.899309068764">
        <ele>127</ele>
        <time>2019-09-18T18:17:14Z</time>
      </trkpt>
      <trkpt lat="59.190849048857" lon="17.899334130645">
        <ele>127</ele>
        <time>2019-09-18T18:17:15Z</time>
      </trkpt>
      <trkpt lat="59.190829016116" lon="17.899357599965">
        <ele>127</ele>
        <time>2019-09-18T18:17:16Z</time>
      </trkpt>
      <trkpt lat="59.190808815737" lon="17.899381069285">
        <ele>127</ele>
        <time>2019-09-18T18:17:17Z</time>
      </trkpt>
      <trkpt lat="59.190791213747" lon="17.899395318515">
        <ele>127</ele>
        <time>2019-09-18T18:17:18Z</time>
      </trkpt>
      <trkpt lat="59.190771264825" lon="17.899405460614">
        <ele>127.2</ele>
        <time>2019-09-18T18:17:19Z</time>
      </trkpt>
      <trkpt lat="59.190747460229" lon="17.899415770351">
        <ele>127</ele>
        <time>2019-09-18T18:17:20Z</time>
      </trkpt>
      <trkpt lat="59.190726505479" lon="17.899413926333">
        <ele>127</ele>
        <time>2019-09-18T18:17:21Z</time>
      </trkpt>
      <trkpt lat="59.190710998964" lon="17.899402107854">
        <ele>127</ele>
        <time>2019-09-18T18:17:22Z</time>
      </trkpt>
      <trkpt lat="59.190697671743" lon="17.899386433701">
        <ele>126.8</ele>
        <time>2019-09-18T18:17:23Z</time>
      </trkpt>
      <trkpt lat="59.190685853264" lon="17.899378638534">
        <ele>126.6</ele>
        <time>2019-09-18T18:17:24Z</time>
      </trkpt>
      <trkpt lat="59.190680237391" lon="17.899376040145">
        <ele>126.6</ele>
        <time>2019-09-18T18:17:25Z</time>
      </trkpt>
      <trkpt lat="59.190670682025" lon="17.899373609394">
        <ele>126.8</ele>
        <time>2019-09-18T18:17:26Z</time>
      </trkpt>
      <trkpt lat="59.190584599912" lon="17.899347541685">
        <ele>126.8</ele>
        <time>2019-09-18T18:17:32Z</time>
      </trkpt>
      <trkpt lat="59.190563896619" lon="17.899338573052">
        <ele>126.8</ele>
        <time>2019-09-18T18:17:33Z</time>
      </trkpt>
      <trkpt lat="59.190543863878" lon="17.89933203517">
        <ele>126.8</ele>
        <time>2019-09-18T18:17:34Z</time>
      </trkpt>
      <trkpt lat="59.190529279372" lon="17.899327257487">
        <ele>126.8</ele>
        <time>2019-09-18T18:17:35Z</time>
      </trkpt>
      <trkpt lat="59.190511761201" lon="17.899326251659">
        <ele>126.8</ele>
        <time>2019-09-18T18:17:36Z</time>
      </trkpt>
      <trkpt lat="59.19049591941" lon="17.899327341306">
        <ele>126.8</ele>
        <time>2019-09-18T18:17:37Z</time>
      </trkpt>
      <trkpt lat="59.190479574705" lon="17.899329185324">
        <ele>126.6</ele>
        <time>2019-09-18T18:17:38Z</time>
      </trkpt>
      <trkpt lat="59.190463984371" lon="17.899336812853">
        <ele>126.8</ele>
        <time>2019-09-18T18:17:39Z</time>
      </trkpt>
      <trkpt lat="59.190452584987" lon="17.899346200581">
        <ele>126.8</ele>
        <time>2019-09-18T18:17:40Z</time>
      </trkpt>
      <trkpt lat="59.19043724611" lon="17.899356258861">
        <ele>126.6</ele>
        <time>2019-09-18T18:17:41Z</time>
      </trkpt>
      <trkpt lat="59.190419979396" lon="17.899372100652">
        <ele>126.6</ele>
        <time>2019-09-18T18:17:42Z</time>
      </trkpt>
      <trkpt lat="59.190402209768" lon="17.899386266063">
        <ele>126.6</ele>
        <time>2019-09-18T18:17:43Z</time>
      </trkpt>
      <trkpt lat="59.190385110692" lon="17.89939154666">
        <ele>126.6</ele>
        <time>2019-09-18T18:17:44Z</time>
      </trkpt>
      <trkpt lat="59.190363988304" lon="17.899397497809">
        <ele>126.6</ele>
        <time>2019-09-18T18:17:45Z</time>
      </trkpt>
      <trkpt lat="59.190342111545" lon="17.899409735383">
        <ele>126.6</ele>
        <time>2019-09-18T18:17:46Z</time>
      </trkpt>
      <trkpt lat="59.190322581718" lon="17.899420715672">
        <ele>126.6</ele>
        <time>2019-09-18T18:17:47Z</time>
      </trkpt>
      <trkpt lat="59.190304979728" lon="17.899441251327">
        <ele>126.6</ele>
        <time>2019-09-18T18:17:48Z</time>
      </trkpt>
      <trkpt lat="59.19029056286" lon="17.899456003471">
        <ele>126.4</ele>
        <time>2019-09-18T18:17:49Z</time>
      </trkpt>
      <trkpt lat="59.190276397449" lon="17.89946614557">
        <ele>126.4</ele>
        <time>2019-09-18T18:17:50Z</time>
      </trkpt>
      <trkpt lat="59.190270027205" lon="17.899474946565">
        <ele>126.4</ele>
        <time>2019-09-18T18:17:51Z</time>
      </trkpt>
      <trkpt lat="59.190255694156" lon="17.89948542394">
        <ele>126.4</ele>
        <time>2019-09-18T18:17:52Z</time>
      </trkpt>
      <trkpt lat="59.190242199297" lon="17.89949129127">
        <ele>126.2</ele>
        <time>2019-09-18T18:17:53Z</time>
      </trkpt>
      <trkpt lat="59.190230045542" lon="17.899497493876">
        <ele>126.2</ele>
        <time>2019-09-18T18:17:54Z</time>
      </trkpt>
      <trkpt lat="59.190219400529" lon="17.899489866347">
        <ele>126.4</ele>
        <time>2019-09-18T18:17:55Z</time>
      </trkpt>
      <trkpt lat="59.190208504059" lon="17.899486597406">
        <ele>126.2</ele>
        <time>2019-09-18T18:17:56Z</time>
      </trkpt>
      <trkpt lat="59.190199870702" lon="17.899485675397">
        <ele>126.2</ele>
        <time>2019-09-18T18:17:57Z</time>
      </trkpt>
      <trkpt lat="59.190185537653" lon="17.899479137515">
        <ele>126.2</ele>
        <time>2019-09-18T18:17:58Z</time>
      </trkpt>
      <trkpt lat="59.190182855445" lon="17.899474946565">
        <ele>126.2</ele>
        <time>2019-09-18T18:17:59Z</time>
      </trkpt>
      <trkpt lat="59.19017237807" lon="17.899458015127">
        <ele>126.2</ele>
        <time>2019-09-18T18:18:00Z</time>
      </trkpt>
      <trkpt lat="59.190158883211" lon="17.899448711218">
        <ele>126.2</ele>
        <time>2019-09-18T18:18:01Z</time>
      </trkpt>
      <trkpt lat="59.190149495483" lon="17.899440496956">
        <ele>126.2</ele>
        <time>2019-09-18T18:18:02Z</time>
      </trkpt>
      <trkpt lat="59.190140359212" lon="17.899422811147">
        <ele>126.2</ele>
        <time>2019-09-18T18:18:03Z</time>
      </trkpt>
      <trkpt lat="59.190131139122" lon="17.899400180017">
        <ele>126.2</ele>
        <time>2019-09-18T18:18:04Z</time>
      </trkpt>
      <trkpt lat="59.190120075014" lon="17.899376375421">
        <ele>126.4</ele>
        <time>2019-09-18T18:18:05Z</time>
      </trkpt>
      <trkpt lat="59.190108759449" lon="17.899358605793">
        <ele>126.4</ele>
        <time>2019-09-18T18:18:06Z</time>
      </trkpt>
      <trkpt lat="59.19009275002" lon="17.899341925812">
        <ele>126.4</ele>
        <time>2019-09-18T18:18:07Z</time>
      </trkpt>
      <trkpt lat="59.190080512446" lon="17.8993295206">
        <ele>126.4</ele>
        <time>2019-09-18T18:18:08Z</time>
      </trkpt>
      <trkpt lat="59.190070789442" lon="17.89931862413">
        <ele>126.4</ele>
        <time>2019-09-18T18:18:09Z</time>
      </trkpt>
      <trkpt lat="59.190054109461" lon="17.899302530882">
        <ele>126.2</ele>
        <time>2019-09-18T18:18:10Z</time>
      </trkpt>
      <trkpt lat="59.190032567978" lon="17.899297082647">
        <ele>126.2</ele>
        <time>2019-09-18T18:18:11Z</time>
      </trkpt>
      <trkpt lat="59.19001396016" lon="17.899296747371">
        <ele>126.2</ele>
        <time>2019-09-18T18:18:12Z</time>
      </trkpt>
      <trkpt lat="59.19001396016" lon="17.899296747371">
        <ele>126.2</ele>
        <time>2019-09-18T18:18:13Z</time>
      </trkpt>
      <trkpt lat="59.189974229954" lon="17.899312672981">
        <ele>126.2</ele>
        <time>2019-09-18T18:18:14Z</time>
      </trkpt>
      <trkpt lat="59.189959645448" lon="17.899328598591">
        <ele>126.2</ele>
        <time>2019-09-18T18:18:15Z</time>
      </trkpt>
      <trkpt lat="59.189947324055" lon="17.89935047535">
        <ele>126.2</ele>
        <time>2019-09-18T18:18:16Z</time>
      </trkpt>
      <trkpt lat="59.189932571911" lon="17.899364221666">
        <ele>126.2</ele>
        <time>2019-09-18T18:18:17Z</time>
      </trkpt>
      <trkpt lat="59.189908096763" lon="17.89939070847">
        <ele>126.2</ele>
        <time>2019-09-18T18:18:18Z</time>
      </trkpt>
      <trkpt lat="59.189890830049" lon="17.899411411763">
        <ele>126.2</ele>
        <time>2019-09-18T18:18:19Z</time>
      </trkpt>
      <trkpt lat="59.189870545851" lon="17.899432785608">
        <ele>126.2</ele>
        <time>2019-09-18T18:18:20Z</time>
      </trkpt>
      <trkpt lat="59.189857134811" lon="17.899448795037">
        <ele>126</ele>
        <time>2019-09-18T18:18:21Z</time>
      </trkpt>
      <trkpt lat="59.189835090414" lon="17.899467570493">
        <ele>126.2</ele>
        <time>2019-09-18T18:18:22Z</time>
      </trkpt>
      <trkpt lat="59.18981363275" lon="17.899477461135">
        <ele>126.2</ele>
        <time>2019-09-18T18:18:23Z</time>
      </trkpt>
      <trkpt lat="59.189794019104" lon="17.899486178311">
        <ele>126.2</ele>
        <time>2019-09-18T18:18:24Z</time>
      </trkpt>
      <trkpt lat="59.189772393802" lon="17.899500846636">
        <ele>126</ele>
        <time>2019-09-18T18:18:25Z</time>
      </trkpt>
      <trkpt lat="59.189760491504" lon="17.899522052843">
        <ele>126</ele>
        <time>2019-09-18T18:18:26Z</time>
      </trkpt>
      <trkpt lat="59.189740794039" lon="17.899543761964">
        <ele>126</ele>
        <time>2019-09-18T18:18:27Z</time>
      </trkpt>
      <trkpt lat="59.189721850945" lon="17.899552898235">
        <ele>125.8</ele>
        <time>2019-09-18T18:18:28Z</time>
      </trkpt>
      <trkpt lat="59.189710619199" lon="17.899557592099">
        <ele>125.8</ele>
        <time>2019-09-18T18:18:29Z</time>
      </trkpt>
      <trkpt lat="59.189710619199" lon="17.899557592099">
        <ele>125.8</ele>
        <time>2019-09-18T18:18:30Z</time>
      </trkpt>
      <trkpt lat="59.189672230097" lon="17.89954661181">
        <ele>125.8</ele>
        <time>2019-09-18T18:18:31Z</time>
      </trkpt>
      <trkpt lat="59.189660746894" lon="17.899532781675">
        <ele>125.8</ele>
        <time>2019-09-18T18:18:32Z</time>
      </trkpt>
      <trkpt lat="59.189644569827" lon="17.899524064499">
        <ele>126</ele>
        <time>2019-09-18T18:18:33Z</time>
      </trkpt>
      <trkpt lat="59.189616406643" lon="17.899512748934">
        <ele>125.8</ele>
        <time>2019-09-18T18:18:34Z</time>
      </trkpt>
      <trkpt lat="59.189600229576" lon="17.899496655686">
        <ele>125.8</ele>
        <time>2019-09-18T18:18:35Z</time>
      </trkpt>
      <trkpt lat="59.189580699749" lon="17.899476958221">
        <ele>125.8</ele>
        <time>2019-09-18T18:18:36Z</time>
      </trkpt>
      <trkpt lat="59.1895663667" lon="17.899456338747">
        <ele>125.8</ele>
        <time>2019-09-18T18:18:37Z</time>
      </trkpt>
      <trkpt lat="59.18955044109" lon="17.8994468672">
        <ele>125.8</ele>
        <time>2019-09-18T18:18:38Z</time>
      </trkpt>
      <trkpt lat="59.18953619186" lon="17.899431947418">
        <ele>125.8</ele>
        <time>2019-09-18T18:18:39Z</time>
      </trkpt>
      <trkpt lat="59.189525714485" lon="17.899413591057">
        <ele>125.8</ele>
        <time>2019-09-18T18:18:40Z</time>
      </trkpt>
      <trkpt lat="59.189514063644" lon="17.899400263836">
        <ele>125.6</ele>
        <time>2019-09-18T18:18:41Z</time>
      </trkpt>
      <trkpt lat="59.189501658432" lon="17.899375453412">
        <ele>125.6</ele>
        <time>2019-09-18T18:18:42Z</time>
      </trkpt>
      <trkpt lat="59.189487325383" lon="17.899357599965">
        <ele>125.6</ele>
        <time>2019-09-18T18:18:43Z</time>
      </trkpt>
      <trkpt lat="59.189472908515" lon="17.89935047535">
        <ele>125.6</ele>
        <time>2019-09-18T18:18:44Z</time>
      </trkpt>
      <trkpt lat="59.189458072552" lon="17.899333208636">
        <ele>125.6</ele>
        <time>2019-09-18T18:18:45Z</time>
      </trkpt>
      <trkpt lat="59.189438878001" lon="17.89932281508">
        <ele>125.6</ele>
        <time>2019-09-18T18:18:46Z</time>
      </trkpt>
      <trkpt lat="59.18941716888" lon="17.89931359499">
        <ele>125.8</ele>
        <time>2019-09-18T18:18:47Z</time>
      </trkpt>
      <trkpt lat="59.189392945189" lon="17.899301525054">
        <ele>125.8</ele>
        <time>2019-09-18T18:18:48Z</time>
      </trkpt>
      <trkpt lat="59.18937023024" lon="17.89929347843">
        <ele>125.8</ele>
        <time>2019-09-18T18:18:49Z</time>
      </trkpt>
      <trkpt lat="59.189347515291" lon="17.899281576132">
        <ele>125.8</ele>
        <time>2019-09-18T18:18:50Z</time>
      </trkpt>
      <trkpt lat="59.189329913301" lon="17.899274283879">
        <ele>125.8</ele>
        <time>2019-09-18T18:18:51Z</time>
      </trkpt>
      <trkpt lat="59.189309461465" lon="17.899266907807">
        <ele>125.8</ele>
        <time>2019-09-18T18:18:52Z</time>
      </trkpt>
      <trkpt lat="59.189281801195" lon="17.899259196459">
        <ele>125.8</ele>
        <time>2019-09-18T18:18:53Z</time>
      </trkpt>
      <trkpt lat="59.189258248056" lon="17.899256346613">
        <ele>125.6</ele>
        <time>2019-09-18T18:18:54Z</time>
      </trkpt>
      <trkpt lat="59.189258248056" lon="17.899256346613">
        <ele>125.6</ele>
        <time>2019-09-18T18:18:55Z</time>
      </trkpt>
      <trkpt lat="59.189202173145" lon="17.899286102358">
        <ele>125.6</ele>
        <time>2019-09-18T18:18:56Z</time>
      </trkpt>
      <trkpt lat="59.189202173145" lon="17.899286102358">
        <ele>125.6</ele>
        <time>2019-09-18T18:18:57Z</time>
      </trkpt>
      <trkpt lat="59.189159593093" lon="17.899317702121">
        <ele>125.6</ele>
        <time>2019-09-18T18:18:58Z</time>
      </trkpt>
      <trkpt lat="59.189141991103" lon="17.899332454265">
        <ele>125.4</ele>
        <time>2019-09-18T18:18:59Z</time>
      </trkpt>
      <trkpt lat="59.189124221475" lon="17.899350810626">
        <ele>125.4</ele>
        <time>2019-09-18T18:19:00Z</time>
      </trkpt>
      <trkpt lat="59.189107541494" lon="17.899373274118">
        <ele>125.2</ele>
        <time>2019-09-18T18:19:01Z</time>
      </trkpt>
      <trkpt lat="59.189084239812" lon="17.89939573761">
        <ele>125.2</ele>
        <time>2019-09-18T18:19:02Z</time>
      </trkpt>
      <trkpt lat="59.189058675017" lon="17.899415099799">
        <ele>125.2</ele>
        <time>2019-09-18T18:19:03Z</time>
      </trkpt>
      <trkpt lat="59.189038390819" lon="17.899431193047">
        <ele>125.4</ele>
        <time>2019-09-18T18:19:04Z</time>
      </trkpt>
      <trkpt lat="59.189020202096" lon="17.899423816975">
        <ele>125.2</ele>
        <time>2019-09-18T18:19:05Z</time>
      </trkpt>
      <trkpt lat="59.189005869047" lon="17.899412585229">
        <ele>125.2</ele>
        <time>2019-09-18T18:19:06Z</time>
      </trkpt>
      <trkpt lat="59.188984579021" lon="17.899397330171">
        <ele>125.2</ele>
        <time>2019-09-18T18:19:07Z</time>
      </trkpt>
      <trkpt lat="59.188968066678" lon="17.899369166987">
        <ele>125</ele>
        <time>2019-09-18T18:19:08Z</time>
      </trkpt>
      <trkpt lat="59.1889461061" lon="17.899342764002">
        <ele>125</ele>
        <time>2019-09-18T18:19:09Z</time>
      </trkpt>
      <trkpt lat="59.188934706716" lon="17.89931778594">
        <ele>124.8</ele>
        <time>2019-09-18T18:19:10Z</time>
      </trkpt>
      <trkpt lat="59.188924564617" lon="17.899294484258">
        <ele>124.8</ele>
        <time>2019-09-18T18:19:11Z</time>
      </trkpt>
      <trkpt lat="59.188914757794" lon="17.899269422377">
        <ele>124.8</ele>
        <time>2019-09-18T18:19:12Z</time>
      </trkpt>
      <trkpt lat="59.188906375894" lon="17.899245114867">
        <ele>124.8</ele>
        <time>2019-09-18T18:19:13Z</time>
      </trkpt>
      <trkpt lat="59.188898999822" lon="17.899210665258">
        <ele>124.8</ele>
        <time>2019-09-18T18:19:14Z</time>
      </trkpt>
      <trkpt lat="59.18888827099" lon="17.899165905912">
        <ele>124.6</ele>
        <time>2019-09-18T18:19:15Z</time>
      </trkpt>
      <trkpt lat="59.188881816927" lon="17.899123409679">
        <ele>124.6</ele>
        <time>2019-09-18T18:19:16Z</time>
      </trkpt>
      <trkpt lat="59.188876871606" lon="17.899080745808">
        <ele>124.6</ele>
        <time>2019-09-18T18:19:17Z</time>
      </trkpt>
      <trkpt lat="59.188870585181" lon="17.899030370589">
        <ele>124.6</ele>
        <time>2019-09-18T18:19:18Z</time>
      </trkpt>
      <trkpt lat="59.188867400059" lon="17.898984773053">
        <ele>124.6</ele>
        <time>2019-09-18T18:19:19Z</time>
      </trkpt>
      <trkpt lat="59.188866310412" lon="17.89894227682">
        <ele>124.6</ele>
        <time>2019-09-18T18:19:20Z</time>
      </trkpt>
      <trkpt lat="59.188866310412" lon="17.89894227682">
        <ele>124.6</ele>
        <time>2019-09-18T18:19:21Z</time>
      </trkpt>
      <trkpt lat="59.188868489706" lon="17.898867845548">
        <ele>124.8</ele>
        <time>2019-09-18T18:19:22Z</time>
      </trkpt>
      <trkpt lat="59.18886312529" lon="17.898823337659">
        <ele>124.8</ele>
        <time>2019-09-18T18:19:23Z</time>
      </trkpt>
      <trkpt lat="59.188861868005" lon="17.89879894633">
        <ele>124.8</ele>
        <time>2019-09-18T18:19:24Z</time>
      </trkpt>
      <trkpt lat="59.188859688711" lon="17.898769525861">
        <ele>125</ele>
        <time>2019-09-18T18:19:25Z</time>
      </trkpt>
      <trkpt lat="59.18885725796" lon="17.898741781772">
        <ele>125</ele>
        <time>2019-09-18T18:19:26Z</time>
      </trkpt>
      <trkpt lat="59.188853821381" lon="17.898713199493">
        <ele>125</ele>
        <time>2019-09-18T18:19:27Z</time>
      </trkpt>
      <trkpt lat="59.188846277671" lon="17.898687969974">
        <ele>125</ele>
        <time>2019-09-18T18:19:28Z</time>
      </trkpt>
      <trkpt lat="59.188840997074" lon="17.898670535622">
        <ele>125</ele>
        <time>2019-09-18T18:19:29Z</time>
      </trkpt>
      <trkpt lat="59.188830016785" lon="17.898645976655">
        <ele>125</ele>
        <time>2019-09-18T18:19:30Z</time>
      </trkpt>
      <trkpt lat="59.188824317093" lon="17.898629212855">
        <ele>125.2</ele>
        <time>2019-09-18T18:19:31Z</time>
      </trkpt>
      <trkpt lat="59.188820880514" lon="17.898619154575">
        <ele>125.4</ele>
        <time>2019-09-18T18:19:32Z</time>
      </trkpt>
      <trkpt lat="59.18881702484" lon="17.89861370634">
        <ele>125.6</ele>
        <time>2019-09-18T18:19:33Z</time>
      </trkpt>
      <trkpt lat="59.188791627683" lon="17.898537347231">
        <ele>125.8</ele>
        <time>2019-09-18T18:20:01Z</time>
      </trkpt>
      <trkpt lat="59.188780815032" lon="17.89850641802">
        <ele>125.8</ele>
        <time>2019-09-18T18:20:02Z</time>
      </trkpt>
      <trkpt lat="59.188766314345" lon="17.898472722782">
        <ele>125.8</ele>
        <time>2019-09-18T18:20:03Z</time>
      </trkpt>
      <trkpt lat="59.188748628536" lon="17.89844439196">
        <ele>125.8</ele>
        <time>2019-09-18T18:20:04Z</time>
      </trkpt>
      <trkpt lat="59.188726751777" lon="17.898418910984">
        <ele>125.8</ele>
        <time>2019-09-18T18:20:05Z</time>
      </trkpt>
      <trkpt lat="59.188706132303" lon="17.898392507999">
        <ele>125.6</ele>
        <time>2019-09-18T18:20:06Z</time>
      </trkpt>
      <trkpt lat="59.188686351019" lon="17.898357723114">
        <ele>125.6</ele>
        <time>2019-09-18T18:20:07Z</time>
      </trkpt>
      <trkpt lat="59.188667575563" lon="17.898315562157">
        <ele>125.6</ele>
        <time>2019-09-18T18:20:08Z</time>
      </trkpt>
      <trkpt lat="59.18865022503" lon="17.898273149743">
        <ele>125.6</ele>
        <time>2019-09-18T18:20:09Z</time>
      </trkpt>
      <trkpt lat="59.188631030479" lon="17.898231240243">
        <ele>125.8</ele>
        <time>2019-09-18T18:20:10Z</time>
      </trkpt>
      <trkpt lat="59.188612925575" lon="17.898196958272">
        <ele>125.8</ele>
        <time>2019-09-18T18:20:11Z</time>
      </trkpt>
      <trkpt lat="59.188612925575" lon="17.898196958272">
        <ele>125.8</ele>
        <time>2019-09-18T18:20:12Z</time>
      </trkpt>
      <trkpt lat="59.188571518989" lon="17.898137362963">
        <ele>125.8</ele>
        <time>2019-09-18T18:20:13Z</time>
      </trkpt>
      <trkpt lat="59.18856137689" lon="17.898107271942">
        <ele>125.6</ele>
        <time>2019-09-18T18:20:14Z</time>
      </trkpt>
      <trkpt lat="59.188551570067" lon="17.89807642655">
        <ele>125.6</ele>
        <time>2019-09-18T18:20:15Z</time>
      </trkpt>
      <trkpt lat="59.18854042214" lon="17.898046335529">
        <ele>125.6</ele>
        <time>2019-09-18T18:20:16Z</time>
      </trkpt>
      <trkpt lat="59.188533046068" lon="17.898016663603">
        <ele>125.6</ele>
        <time>2019-09-18T18:20:17Z</time>
      </trkpt>
      <trkpt lat="59.188524747987" lon="17.897987746048">
        <ele>125.6</ele>
        <time>2019-09-18T18:20:18Z</time>
      </trkpt>
      <trkpt lat="59.188518210105" lon="17.897961845977">
        <ele>125.6</ele>
        <time>2019-09-18T18:20:19Z</time>
      </trkpt>
      <trkpt lat="59.188511672223" lon="17.89793477244">
        <ele>125.6</ele>
        <time>2019-09-18T18:20:20Z</time>
      </trkpt>
      <trkpt lat="59.1885018654" lon="17.897900658107">
        <ele>125.8</ele>
        <time>2019-09-18T18:20:21Z</time>
      </trkpt>
      <trkpt lat="59.188493399681" lon="17.897869142163">
        <ele>125.8</ele>
        <time>2019-09-18T18:20:22Z</time>
      </trkpt>
      <trkpt lat="59.188484682505" lon="17.89783921878">
        <ele>125.8</ele>
        <time>2019-09-18T18:20:23Z</time>
      </trkpt>
      <trkpt lat="59.188477054976" lon="17.897803428067">
        <ele>125.8</ele>
        <time>2019-09-18T18:20:24Z</time>
      </trkpt>
      <trkpt lat="59.188469511266" lon="17.897770990114">
        <ele>125.8</ele>
        <time>2019-09-18T18:20:25Z</time>
      </trkpt>
      <trkpt lat="59.188461967556" lon="17.897738468342">
        <ele>125.8</ele>
        <time>2019-09-18T18:20:26Z</time>
      </trkpt>
      <trkpt lat="59.18845408857" lon="17.897703683457">
        <ele>125.8</ele>
        <time>2019-09-18T18:20:27Z</time>
      </trkpt>
      <trkpt lat="59.188444533204" lon="17.897672754246">
        <ele>125.8</ele>
        <time>2019-09-18T18:20:28Z</time>
      </trkpt>
      <trkpt lat="59.188444533204" lon="17.897672754246">
        <ele>125.8</ele>
        <time>2019-09-18T18:20:29Z</time>
      </trkpt>
      <trkpt lat="59.188431792716" lon="17.897603435933">
        <ele>125.8</ele>
        <time>2019-09-18T18:20:30Z</time>
      </trkpt>
      <trkpt lat="59.188423578454" lon="17.897561945528">
        <ele>126</ele>
        <time>2019-09-18T18:20:31Z</time>
      </trkpt>
      <trkpt lat="59.188414274545" lon="17.897526070996">
        <ele>126</ele>
        <time>2019-09-18T18:20:32Z</time>
      </trkpt>
      <trkpt lat="59.18840631174" lon="17.897489358274">
        <ele>126</ele>
        <time>2019-09-18T18:20:33Z</time>
      </trkpt>
      <trkpt lat="59.188399019487" lon="17.897451723543">
        <ele>126</ele>
        <time>2019-09-18T18:20:34Z</time>
      </trkpt>
      <trkpt lat="59.188391559596" lon="17.897424817644">
        <ele>126</ele>
        <time>2019-09-18T18:20:35Z</time>
      </trkpt>
      <trkpt lat="59.188391559596" lon="17.897424817644">
        <ele>126</ele>
        <time>2019-09-18T18:20:36Z</time>
      </trkpt>
      <trkpt lat="59.188376807452" lon="17.897383494877">
        <ele>126</ele>
        <time>2019-09-18T18:20:37Z</time>
      </trkpt>
      <trkpt lat="59.188368006457" lon="17.897367401629">
        <ele>126</ele>
        <time>2019-09-18T18:20:38Z</time>
      </trkpt>
      <trkpt lat="59.188364066964" lon="17.897352146571">
        <ele>126</ele>
        <time>2019-09-18T18:20:39Z</time>
      </trkpt>
      <trkpt lat="59.188357612901" lon="17.897331443278">
        <ele>126</ele>
        <time>2019-09-18T18:20:40Z</time>
      </trkpt>
      <trkpt lat="59.188352080847" lon="17.897317194048">
        <ele>126</ele>
        <time>2019-09-18T18:20:41Z</time>
      </trkpt>
      <trkpt lat="59.188347303164" lon="17.89730445356">
        <ele>126</ele>
        <time>2019-09-18T18:20:42Z</time>
      </trkpt>
      <trkpt lat="59.188341435834" lon="17.897292802719">
        <ele>126</ele>
        <time>2019-09-18T18:20:43Z</time>
      </trkpt>
      <trkpt lat="59.188338502169" lon="17.897282828258">
        <ele>126</ele>
        <time>2019-09-18T18:20:44Z</time>
      </trkpt>
      <trkpt lat="59.188334814133" lon="17.897270003951">
        <ele>126.2</ele>
        <time>2019-09-18T18:20:45Z</time>
      </trkpt>
      <trkpt lat="59.188330120269" lon="17.897258939843">
        <ele>126.2</ele>
        <time>2019-09-18T18:20:46Z</time>
      </trkpt>
      <trkpt lat="59.188328527708" lon="17.897248462468">
        <ele>126.2</ele>
        <time>2019-09-18T18:20:47Z</time>
      </trkpt>
      <trkpt lat="59.188328527708" lon="17.897248462468">
        <ele>126.4</ele>
        <time>2019-09-18T18:20:48Z</time>
      </trkpt>
      <trkpt lat="59.188321235455" lon="17.89723236922">
        <ele>126.4</ele>
        <time>2019-09-18T18:20:49Z</time>
      </trkpt>
      <trkpt lat="59.188314865211" lon="17.897224238777">
        <ele>126.4</ele>
        <time>2019-09-18T18:20:50Z</time>
      </trkpt>
      <trkpt lat="59.188276895204" lon="17.8970999352">
        <ele>126.4</ele>
        <time>2019-09-18T18:21:02Z</time>
      </trkpt>
      <trkpt lat="59.188273542444" lon="17.89706976036">
        <ele>126.4</ele>
        <time>2019-09-18T18:21:03Z</time>
      </trkpt>
      <trkpt lat="59.188267507476" lon="17.89703958552">
        <ele>126.4</ele>
        <time>2019-09-18T18:21:04Z</time>
      </trkpt>
      <trkpt lat="59.188259041757" lon="17.897008069576">
        <ele>126.6</ele>
        <time>2019-09-18T18:21:05Z</time>
      </trkpt>
      <trkpt lat="59.188249654029" lon="17.896971189216">
        <ele>126.6</ele>
        <time>2019-09-18T18:21:06Z</time>
      </trkpt>
      <trkpt lat="59.18824035012" lon="17.896936069055">
        <ele>126.4</ele>
        <time>2019-09-18T18:21:07Z</time>
      </trkpt>
      <trkpt lat="59.188232471134" lon="17.896909498432">
        <ele>126.4</ele>
        <time>2019-09-18T18:21:08Z</time>
      </trkpt>
      <trkpt lat="59.188223670139" lon="17.896883095447">
        <ele>126.4</ele>
        <time>2019-09-18T18:21:09Z</time>
      </trkpt>
      <trkpt lat="59.188215539696" lon="17.896863481801">
        <ele>126.4</ele>
        <time>2019-09-18T18:21:10Z</time>
      </trkpt>
      <trkpt lat="59.188208415081" lon="17.896849567847">
        <ele>126.4</ele>
        <time>2019-09-18T18:21:11Z</time>
      </trkpt>
      <trkpt lat="59.188208415081" lon="17.896849567847">
        <ele>126.4</ele>
        <time>2019-09-18T18:21:12Z</time>
      </trkpt>
      <trkpt lat="59.188185783951" lon="17.896791648918">
        <ele>126.4</ele>
        <time>2019-09-18T18:21:15Z</time>
      </trkpt>
      <trkpt lat="59.188177737327" lon="17.896767509046">
        <ele>126.4</ele>
        <time>2019-09-18T18:21:16Z</time>
      </trkpt>
      <trkpt lat="59.18817413311" lon="17.896742530984">
        <ele>126.6</ele>
        <time>2019-09-18T18:21:17Z</time>
      </trkpt>
      <trkpt lat="59.188168684875" lon="17.896720067492">
        <ele>126.6</ele>
        <time>2019-09-18T18:21:18Z</time>
      </trkpt>
      <trkpt lat="59.188163655735" lon="17.896704728615">
        <ele>126.6</ele>
        <time>2019-09-18T18:21:19Z</time>
      </trkpt>
      <trkpt lat="59.188156112025" lon="17.896677655078">
        <ele>126.6</ele>
        <time>2019-09-18T18:21:20Z</time>
      </trkpt>
      <trkpt lat="59.188146975754" lon="17.89664815079">
        <ele>126.6</ele>
        <time>2019-09-18T18:21:21Z</time>
      </trkpt>
      <trkpt lat="59.188141862795" lon="17.896621915443">
        <ele>126.6</ele>
        <time>2019-09-18T18:21:22Z</time>
      </trkpt>
      <trkpt lat="59.18813557637" lon="17.896602637073">
        <ele>126.6</ele>
        <time>2019-09-18T18:21:23Z</time>
      </trkpt>
      <trkpt lat="59.188124260805" lon="17.896576401726">
        <ele>126.6</ele>
        <time>2019-09-18T18:21:24Z</time>
      </trkpt>
      <trkpt lat="59.188116884733" lon="17.89655092075">
        <ele>126.6</ele>
        <time>2019-09-18T18:21:25Z</time>
      </trkpt>
      <trkpt lat="59.188107999919" lon="17.896523931032">
        <ele>126.6</ele>
        <time>2019-09-18T18:21:26Z</time>
      </trkpt>
      <trkpt lat="59.188098779829" lon="17.896497108952">
        <ele>126.6</ele>
        <time>2019-09-18T18:21:27Z</time>
      </trkpt>
      <trkpt lat="59.188090817024" lon="17.896470370691">
        <ele>126.6</ele>
        <time>2019-09-18T18:21:28Z</time>
      </trkpt>
      <trkpt lat="59.188079501459" lon="17.896438268014">
        <ele>126.6</ele>
        <time>2019-09-18T18:21:29Z</time>
      </trkpt>
      <trkpt lat="59.188067096247" lon="17.896403315491">
        <ele>126.6</ele>
        <time>2019-09-18T18:21:30Z</time>
      </trkpt>
      <trkpt lat="59.18805091918" lon="17.896363920561">
        <ele>126.6</ele>
        <time>2019-09-18T18:21:31Z</time>
      </trkpt>
      <trkpt lat="59.188041447633" lon="17.896325196183">
        <ele>126.6</ele>
        <time>2019-09-18T18:21:32Z</time>
      </trkpt>
      <trkpt lat="59.188034071561" lon="17.896285968891">
        <ele>126.6</ele>
        <time>2019-09-18T18:21:33Z</time>
      </trkpt>
      <trkpt lat="59.188027282222" lon="17.896247328332">
        <ele>126.6</ele>
        <time>2019-09-18T18:21:34Z</time>
      </trkpt>
      <trkpt lat="59.188019822331" lon="17.896212543447">
        <ele>126.6</ele>
        <time>2019-09-18T18:21:35Z</time>
      </trkpt>
      <trkpt lat="59.188005154006" lon="17.896191756335">
        <ele>126.6</ele>
        <time>2019-09-18T18:21:36Z</time>
      </trkpt>
      <trkpt lat="59.188005154006" lon="17.896191756335">
        <ele>126.6</ele>
        <time>2019-09-18T18:21:37Z</time>
      </trkpt>
      <trkpt lat="59.187960981393" lon="17.896149763016">
        <ele>126.6</ele>
        <time>2019-09-18T18:21:39Z</time>
      </trkpt>
      <trkpt lat="59.187940864833" lon="17.896150098292">
        <ele>126.6</ele>
        <time>2019-09-18T18:21:40Z</time>
      </trkpt>
      <trkpt lat="59.187918988074" lon="17.89614858955">
        <ele>126.6</ele>
        <time>2019-09-18T18:21:41Z</time>
      </trkpt>
      <trkpt lat="59.187899290609" lon="17.896136351976">
        <ele>126.6</ele>
        <time>2019-09-18T18:21:42Z</time>
      </trkpt>
      <trkpt lat="59.187875653651" lon="17.896124449678">
        <ele>126.6</ele>
        <time>2019-09-18T18:21:43Z</time>
      </trkpt>
      <trkpt lat="59.187854279806" lon="17.896108943163">
        <ele>126.6</ele>
        <time>2019-09-18T18:21:44Z</time>
      </trkpt>
      <trkpt lat="59.187827793002" lon="17.896102908195">
        <ele>126.6</ele>
        <time>2019-09-18T18:21:45Z</time>
      </trkpt>
      <trkpt lat="59.187791164099" lon="17.896090167707">
        <ele>126.8</ele>
        <time>2019-09-18T18:21:46Z</time>
      </trkpt>
      <trkpt lat="59.187758642327" lon="17.896070218785">
        <ele>126.6</ele>
        <time>2019-09-18T18:21:47Z</time>
      </trkpt>
      <trkpt lat="59.187758642327" lon="17.896070218785">
        <ele>126.6</ele>
        <time>2019-09-18T18:21:48Z</time>
      </trkpt>
      <trkpt lat="59.187691168032" lon="17.896035098624">
        <ele>126.6</ele>
        <time>2019-09-18T18:21:49Z</time>
      </trkpt>
      <trkpt lat="59.187661244649" lon="17.896022190498">
        <ele>126.6</ele>
        <time>2019-09-18T18:21:50Z</time>
      </trkpt>
      <trkpt lat="59.187635428397" lon="17.896015401159">
        <ele>126.6</ele>
        <time>2019-09-18T18:21:51Z</time>
      </trkpt>
      <trkpt lat="59.187607265213" lon="17.896003834137">
        <ele>126.4</ele>
        <time>2019-09-18T18:21:52Z</time>
      </trkpt>
      <trkpt lat="59.187577928563" lon="17.895994614047">
        <ele>126.4</ele>
        <time>2019-09-18T18:21:53Z</time>
      </trkpt>
      <trkpt lat="59.187547753723" lon="17.89599268621">
        <ele>126.4</ele>
        <time>2019-09-18T18:21:54Z</time>
      </trkpt>
      <trkpt lat="59.187519841996" lon="17.895989417269">
        <ele>126.6</ele>
        <time>2019-09-18T18:21:55Z</time>
      </trkpt>
      <trkpt lat="59.187495869762" lon="17.895991428925">
        <ele>126.6</ele>
        <time>2019-09-18T18:21:56Z</time>
      </trkpt>
      <trkpt lat="59.187470724062" lon="17.895988662898">
        <ele>126.6</ele>
        <time>2019-09-18T18:21:57Z</time>
      </trkpt>
      <trkpt lat="59.187451697149" lon="17.895991512744">
        <ele>126.6</ele>
        <time>2019-09-18T18:21:58Z</time>
      </trkpt>
      <trkpt lat="59.187436693548" lon="17.895995452237">
        <ele>126.6</ele>
        <time>2019-09-18T18:21:59Z</time>
      </trkpt>
      <trkpt lat="59.187419259196" lon="17.896002912128">
        <ele>126.6</ele>
        <time>2019-09-18T18:22:00Z</time>
      </trkpt>
      <trkpt lat="59.187419259196" lon="17.896002912128">
        <ele>126.6</ele>
        <time>2019-09-18T18:22:01Z</time>
      </trkpt>
      <trkpt lat="59.187374583669" lon="17.89601950829">
        <ele>126.6</ele>
        <time>2019-09-18T18:22:02Z</time>
      </trkpt>
      <trkpt lat="59.187350611435" lon="17.896023196326">
        <ele>126.4</ele>
        <time>2019-09-18T18:22:03Z</time>
      </trkpt>
      <trkpt lat="59.187327142115" lon="17.896030488579">
        <ele>126.6</ele>
        <time>2019-09-18T18:22:04Z</time>
      </trkpt>
      <trkpt lat="59.187304259528" lon="17.896034344253">
        <ele>126.6</ele>
        <time>2019-09-18T18:22:05Z</time>
      </trkpt>
      <trkpt lat="59.187284729701" lon="17.896034428072">
        <ele>126.6</ele>
        <time>2019-09-18T18:22:06Z</time>
      </trkpt>
      <trkpt lat="59.187259164906" lon="17.896044402533">
        <ele>126.6</ele>
        <time>2019-09-18T18:22:07Z</time>
      </trkpt>
      <trkpt lat="59.187238126337" lon="17.89604800675">
        <ele>126.6</ele>
        <time>2019-09-18T18:22:08Z</time>
      </trkpt>
      <trkpt lat="59.187218764148" lon="17.89604884494">
        <ele>126.6</ele>
        <time>2019-09-18T18:22:09Z</time>
      </trkpt>
      <trkpt lat="59.187199821054" lon="17.896057645935">
        <ele>126.6</ele>
        <time>2019-09-18T18:22:10Z</time>
      </trkpt>
      <trkpt lat="59.187180207408" lon="17.896062507437">
        <ele>126.6</ele>
        <time>2019-09-18T18:22:11Z</time>
      </trkpt>
      <trkpt lat="59.187162102504" lon="17.896067368939">
        <ele>126.6</ele>
        <time>2019-09-18T18:22:12Z</time>
      </trkpt>
      <trkpt lat="59.187140141926" lon="17.896068374767">
        <ele>126.6</ele>
        <time>2019-09-18T18:22:13Z</time>
      </trkpt>
      <trkpt lat="59.187118935719" lon="17.896058484125">
        <ele>126.6</ele>
        <time>2019-09-18T18:22:14Z</time>
      </trkpt>
      <trkpt lat="59.18709538258" lon="17.896049180216">
        <ele>126.6</ele>
        <time>2019-09-18T18:22:15Z</time>
      </trkpt>
      <trkpt lat="59.187074260192" lon="17.896039457212">
        <ele>126.6</ele>
        <time>2019-09-18T18:22:16Z</time>
      </trkpt>
      <trkpt lat="59.18705934041" lon="17.896025543258">
        <ele>126.6</ele>
        <time>2019-09-18T18:22:17Z</time>
      </trkpt>
      <trkpt lat="59.18704173842" lon="17.896008444182">
        <ele>126.6</ele>
        <time>2019-09-18T18:22:18Z</time>
      </trkpt>
      <trkpt lat="59.18704173842" lon="17.896008444182">
        <ele>126.8</ele>
        <time>2019-09-18T18:22:19Z</time>
      </trkpt>
      <trkpt lat="59.187015586892" lon="17.895995787513">
        <ele>126.8</ele>
        <time>2019-09-18T18:22:20Z</time>
      </trkpt>
      <trkpt lat="59.187007540268" lon="17.895995955151">
        <ele>126.8</ele>
        <time>2019-09-18T18:22:21Z</time>
      </trkpt>
      <trkpt lat="59.186897066826" lon="17.89604549218">
        <ele>126.8</ele>
        <time>2019-09-18T18:24:07Z</time>
      </trkpt>
      <trkpt lat="59.186879883931" lon="17.89606812331">
        <ele>126.8</ele>
        <time>2019-09-18T18:24:08Z</time>
      </trkpt>
      <trkpt lat="59.186862449579" lon="17.896086898766">
        <ele>126.6</ele>
        <time>2019-09-18T18:24:09Z</time>
      </trkpt>
      <trkpt lat="59.186845015227" lon="17.89610416548">
        <ele>126.8</ele>
        <time>2019-09-18T18:24:10Z</time>
      </trkpt>
      <trkpt lat="59.186828670522" lon="17.896120007271">
        <ele>126.6</ele>
        <time>2019-09-18T18:24:11Z</time>
      </trkpt>
      <trkpt lat="59.186811487627" lon="17.896140542926">
        <ele>126.4</ele>
        <time>2019-09-18T18:24:12Z</time>
      </trkpt>
      <trkpt lat="59.18679279599" lon="17.896163090237">
        <ele>126.2</ele>
        <time>2019-09-18T18:24:13Z</time>
      </trkpt>
      <trkpt lat="59.186774942543" lon="17.896185972824">
        <ele>125.6</ele>
        <time>2019-09-18T18:24:14Z</time>
      </trkpt>
      <trkpt lat="59.186758178743" lon="17.896202904262">
        <ele>125.2</ele>
        <time>2019-09-18T18:24:15Z</time>
      </trkpt>
      <trkpt lat="59.186741331124" lon="17.896219584243">
        <ele>124.8</ele>
        <time>2019-09-18T18:24:16Z</time>
      </trkpt>
      <trkpt lat="59.18672909355" lon="17.896230396894">
        <ele>124.4</ele>
        <time>2019-09-18T18:24:17Z</time>
      </trkpt>
      <trkpt lat="59.186713670854" lon="17.896242550649">
        <ele>124.2</ele>
        <time>2019-09-18T18:24:18Z</time>
      </trkpt>
      <trkpt lat="59.186699086348" lon="17.896264427408">
        <ele>124.4</ele>
        <time>2019-09-18T18:24:19Z</time>
      </trkpt>
      <trkpt lat="59.186689363344" lon="17.896278173724">
        <ele>124.2</ele>
        <time>2019-09-18T18:24:20Z</time>
      </trkpt>
      <trkpt lat="59.186499513309" lon="17.896402896396">
        <ele>123.4</ele>
        <time>2019-09-18T18:24:31Z</time>
      </trkpt>
      <trkpt lat="59.186481324586" lon="17.896412200305">
        <ele>123.4</ele>
        <time>2019-09-18T18:24:32Z</time>
      </trkpt>
      <trkpt lat="59.186457687628" lon="17.896421755671">
        <ele>123.4</ele>
        <time>2019-09-18T18:24:33Z</time>
      </trkpt>
      <trkpt lat="59.186434553584" lon="17.896434831435">
        <ele>123.2</ele>
        <time>2019-09-18T18:24:34Z</time>
      </trkpt>
      <trkpt lat="59.186403372916" lon="17.896454025986">
        <ele>123.2</ele>
        <time>2019-09-18T18:24:35Z</time>
      </trkpt>
      <trkpt lat="59.186379819777" lon="17.896467269388">
        <ele>123.2</ele>
        <time>2019-09-18T18:24:36Z</time>
      </trkpt>
      <trkpt lat="59.186354087344" lon="17.896481602437">
        <ele>123.4</ele>
        <time>2019-09-18T18:24:37Z</time>
      </trkpt>
      <trkpt lat="59.186321230296" lon="17.896512447829">
        <ele>123.4</ele>
        <time>2019-09-18T18:24:38Z</time>
      </trkpt>
      <trkpt lat="59.186298096252" lon="17.896529463086">
        <ele>123.4</ele>
        <time>2019-09-18T18:24:39Z</time>
      </trkpt>
      <trkpt lat="59.186275213665" lon="17.896544969601">
        <ele>123.4</ele>
        <time>2019-09-18T18:24:40Z</time>
      </trkpt>
      <trkpt lat="59.186275213665" lon="17.896544969601">
        <ele>123.4</ele>
        <time>2019-09-18T18:24:41Z</time>
      </trkpt>
      <trkpt lat="59.186235064364" lon="17.896577072278">
        <ele>123.4</ele>
        <time>2019-09-18T18:24:42Z</time>
      </trkpt>
      <trkpt lat="59.186208912836" lon="17.89659366844">
        <ele>123.4</ele>
        <time>2019-09-18T18:24:43Z</time>
      </trkpt>
      <trkpt lat="59.186188628638" lon="17.896606576566">
        <ele>123.4</ele>
        <time>2019-09-18T18:24:44Z</time>
      </trkpt>
      <trkpt lat="59.186169937001" lon="17.896621412529">
        <ele>123.4</ele>
        <time>2019-09-18T18:24:45Z</time>
      </trkpt>
      <trkpt lat="59.186153759934" lon="17.896632560456">
        <ele>123.4</ele>
        <time>2019-09-18T18:24:46Z</time>
      </trkpt>
      <trkpt lat="59.186137918143" lon="17.896643792202">
        <ele>123.4</ele>
        <time>2019-09-18T18:24:47Z</time>
      </trkpt>
      <trkpt lat="59.186121573438" lon="17.896653766663">
        <ele>123.4</ele>
        <time>2019-09-18T18:24:48Z</time>
      </trkpt>
      <trkpt lat="59.186121573438" lon="17.896653766663">
        <ele>123.4</ele>
        <time>2019-09-18T18:24:49Z</time>
      </trkpt>
      <trkpt lat="59.186074886255" lon="17.896703052235">
        <ele>123.4</ele>
        <time>2019-09-18T18:24:50Z</time>
      </trkpt>
      <trkpt lat="59.186050327288" lon="17.896726521555">
        <ele>123.6</ele>
        <time>2019-09-18T18:24:51Z</time>
      </trkpt>
      <trkpt lat="59.186028282891" lon="17.896745799925">
        <ele>123.6</ele>
        <time>2019-09-18T18:24:52Z</time>
      </trkpt>
      <trkpt lat="59.18600657377" lon="17.896763150458">
        <ele>123.6</ele>
        <time>2019-09-18T18:24:53Z</time>
      </trkpt>
      <trkpt lat="59.185990815798" lon="17.896775052756">
        <ele>123.6</ele>
        <time>2019-09-18T18:24:54Z</time>
      </trkpt>
      <trkpt lat="59.185974051998" lon="17.896784440484">
        <ele>123.4</ele>
        <time>2019-09-18T18:24:55Z</time>
      </trkpt>
      <trkpt lat="59.185955276542" lon="17.896793409117">
        <ele>123.4</ele>
        <time>2019-09-18T18:24:56Z</time>
      </trkpt>
      <trkpt lat="59.185955276542" lon="17.896793409117">
        <ele>123.4</ele>
        <time>2019-09-18T18:24:57Z</time>
      </trkpt>
      <trkpt lat="59.185915378698" lon="17.896825679432">
        <ele>123.2</ele>
        <time>2019-09-18T18:24:58Z</time>
      </trkpt>
      <trkpt lat="59.185900375097" lon="17.896839425748">
        <ele>123.2</ele>
        <time>2019-09-18T18:24:59Z</time>
      </trkpt>
      <trkpt lat="59.185882856926" lon="17.896854429349">
        <ele>123.2</ele>
        <time>2019-09-18T18:25:00Z</time>
      </trkpt>
      <trkpt lat="59.185873133922" lon="17.896869181493">
        <ele>123.2</ele>
        <time>2019-09-18T18:25:01Z</time>
      </trkpt>
      <trkpt lat="59.185873133922" lon="17.896869181493">
        <ele>123.4</ele>
        <time>2019-09-18T18:25:02Z</time>
      </trkpt>
      <trkpt lat="59.185840528331" lon="17.896899021057">
        <ele>123.4</ele>
        <time>2019-09-18T18:25:03Z</time>
      </trkpt>
      <trkpt lat="59.185819070667" lon="17.896907905871">
        <ele>123.2</ele>
        <time>2019-09-18T18:25:04Z</time>
      </trkpt>
      <trkpt lat="59.185790739845" lon="17.896904469292">
        <ele>123.2</ele>
        <time>2019-09-18T18:25:05Z</time>
      </trkpt>
      <trkpt lat="59.185766180878" lon="17.896888376044">
        <ele>123.2</ele>
        <time>2019-09-18T18:25:06Z</time>
      </trkpt>
      <trkpt lat="59.185766180878" lon="17.896888376044">
        <ele>123.2</ele>
        <time>2019-09-18T18:25:07Z</time>
      </trkpt>
      <trkpt lat="59.185727791776" lon="17.896848226743">
        <ele>123.2</ele>
        <time>2019-09-18T18:25:08Z</time>
      </trkpt>
      <trkpt lat="59.185709183958" lon="17.896834061332">
        <ele>123.2</ele>
        <time>2019-09-18T18:25:09Z</time>
      </trkpt>
      <trkpt lat="59.185699209497" lon="17.896826852898">
        <ele>123.2</ele>
        <time>2019-09-18T18:25:10Z</time>
      </trkpt>
      <trkpt lat="59.185692839253" lon="17.896816962256">
        <ele>123</ele>
        <time>2019-09-18T18:25:11Z</time>
      </trkpt>
      <trkpt lat="59.185683535344" lon="17.896806903976">
        <ele>123</ele>
        <time>2019-09-18T18:25:12Z</time>
      </trkpt>
      <trkpt lat="59.185673728521" lon="17.896799444085">
        <ele>123</ele>
        <time>2019-09-18T18:25:13Z</time>
      </trkpt>
      <trkpt lat="59.185662748232" lon="17.896785446312">
        <ele>123</ele>
        <time>2019-09-18T18:25:14Z</time>
      </trkpt>
      <trkpt lat="59.185647493174" lon="17.896765916485">
        <ele>122.8</ele>
        <time>2019-09-18T18:25:15Z</time>
      </trkpt>
      <trkpt lat="59.185631232288" lon="17.896746554296">
        <ele>122.8</ele>
        <time>2019-09-18T18:25:16Z</time>
      </trkpt>
      <trkpt lat="59.185614384669" lon="17.896725180451">
        <ele>122.8</ele>
        <time>2019-09-18T18:25:17Z</time>
      </trkpt>
      <trkpt lat="59.185603320561" lon="17.896709087203">
        <ele>122.8</ele>
        <time>2019-09-18T18:25:18Z</time>
      </trkpt>
      <trkpt lat="59.185597453231" lon="17.896703219873">
        <ele>122.8</ele>
        <time>2019-09-18T18:25:19Z</time>
      </trkpt>
      <trkpt lat="59.185591334444" lon="17.896698190733">
        <ele>122.8</ele>
        <time>2019-09-18T18:25:20Z</time>
      </trkpt>
      <trkpt lat="59.185436185475" lon="17.89648638012">
        <ele>123.2</ele>
        <time>2019-09-18T18:25:50Z</time>
      </trkpt>
      <trkpt lat="59.185422606797" lon="17.89646207261">
        <ele>123.2</ele>
        <time>2019-09-18T18:25:51Z</time>
      </trkpt>
      <trkpt lat="59.185401316771" lon="17.896428796467">
        <ele>123.2</ele>
        <time>2019-09-18T18:25:52Z</time>
      </trkpt>
      <trkpt lat="59.185373907958" lon="17.896385126768">
        <ele>123.2</ele>
        <time>2019-09-18T18:25:53Z</time>
      </trkpt>
      <trkpt lat="59.185347840249" lon="17.896339277775">
        <ele>123.2</ele>
        <time>2019-09-18T18:25:54Z</time>
      </trkpt>
      <trkpt lat="59.18532428711" lon="17.896297200637">
        <ele>123.2</ele>
        <time>2019-09-18T18:25:55Z</time>
      </trkpt>
      <trkpt lat="59.185305176378" lon="17.896257889526">
        <ele>123.2</ele>
        <time>2019-09-18T18:25:56Z</time>
      </trkpt>
      <trkpt lat="59.185287909664" lon="17.896218662234">
        <ele>123.2</ele>
        <time>2019-09-18T18:25:57Z</time>
      </trkpt>
      <trkpt lat="59.185269888579" lon="17.89618127896">
        <ele>123.2</ele>
        <time>2019-09-18T18:25:58Z</time>
      </trkpt>
      <trkpt lat="59.18525220277" lon="17.896149008645">
        <ele>123.4</ele>
        <time>2019-09-18T18:25:59Z</time>
      </trkpt>
      <trkpt lat="59.18523627716" lon="17.896120174909">
        <ele>123.4</ele>
        <time>2019-09-18T18:26:00Z</time>
      </trkpt>
      <trkpt lat="59.18523627716" lon="17.896120174909">
        <ele>123.4</ele>
        <time>2019-09-18T18:26:01Z</time>
      </trkpt>
      <trkpt lat="59.18520610232" lon="17.896065022007">
        <ele>123.4</ele>
        <time>2019-09-18T18:26:02Z</time>
      </trkpt>
      <trkpt lat="59.185190679624" lon="17.896041720325">
        <ele>123.2</ele>
        <time>2019-09-18T18:26:03Z</time>
      </trkpt>
      <trkpt lat="59.185178525869" lon="17.89601950829">
        <ele>123.2</ele>
        <time>2019-09-18T18:26:04Z</time>
      </trkpt>
      <trkpt lat="59.185168551408" lon="17.895994530228">
        <ele>123.2</ele>
        <time>2019-09-18T18:26:05Z</time>
      </trkpt>
      <trkpt lat="59.185155056549" lon="17.895969468347">
        <ele>123.2</ele>
        <time>2019-09-18T18:26:06Z</time>
      </trkpt>
      <trkpt lat="59.185141729328" lon="17.895952536909">
        <ele>123.2</ele>
        <time>2019-09-18T18:26:07Z</time>
      </trkpt>
      <trkpt lat="59.185141729328" lon="17.895952536909">
        <ele>123.2</ele>
        <time>2019-09-18T18:26:08Z</time>
      </trkpt>
      <trkpt lat="59.185132006324" lon="17.895937449489">
        <ele>123.2</ele>
        <time>2019-09-18T18:26:09Z</time>
      </trkpt>
      <trkpt lat="59.185127647736" lon="17.895933593815">
        <ele>123.2</ele>
        <time>2019-09-18T18:26:10Z</time>
      </trkpt>
      <trkpt lat="59.185002505969" lon="17.895753466784">
        <ele>122.8</ele>
        <time>2019-09-18T18:26:34Z</time>
      </trkpt>
      <trkpt lat="59.184975516251" lon="17.895725890333">
        <ele>122.8</ele>
        <time>2019-09-18T18:26:35Z</time>
      </trkpt>
      <trkpt lat="59.184964955057" lon="17.895716167329">
        <ele>123</ele>
        <time>2019-09-18T18:26:36Z</time>
      </trkpt>
      <trkpt lat="59.1849563217" lon="17.895705522316">
        <ele>123.2</ele>
        <time>2019-09-18T18:26:37Z</time>
      </trkpt>
      <trkpt lat="59.184949532361" lon="17.895689680525">
        <ele>123.2</ele>
        <time>2019-09-18T18:26:38Z</time>
      </trkpt>
      <trkpt lat="59.184946598696" lon="17.89566998306">
        <ele>123.2</ele>
        <time>2019-09-18T18:26:39Z</time>
      </trkpt>
      <trkpt lat="59.184946598696" lon="17.89566998306">
        <ele>123.4</ele>
        <time>2019-09-18T18:26:40Z</time>
      </trkpt>
      <trkpt lat="59.184938216796" lon="17.895646597559">
        <ele>123.6</ele>
        <time>2019-09-18T18:26:41Z</time>
      </trkpt>
      <trkpt lat="59.184934864036" lon="17.895639053849">
        <ele>123.8</ele>
        <time>2019-09-18T18:26:42Z</time>
      </trkpt>
      <trkpt lat="59.184869401397" lon="17.895570992821">
        <ele>124.4</ele>
        <time>2019-09-18T18:26:49Z</time>
      </trkpt>
      <trkpt lat="59.184857163823" lon="17.895547774958">
        <ele>124.6</ele>
        <time>2019-09-18T18:26:50Z</time>
      </trkpt>
      <trkpt lat="59.18484819519" lon="17.895528245131">
        <ele>124.8</ele>
        <time>2019-09-18T18:26:51Z</time>
      </trkpt>
      <trkpt lat="59.18484316605" lon="17.895513492987">
        <ele>124.8</ele>
        <time>2019-09-18T18:26:52Z</time>
      </trkpt>
      <trkpt lat="59.18483981329" lon="17.895498405567">
        <ele>124.8</ele>
        <time>2019-09-18T18:26:53Z</time>
      </trkpt>
      <trkpt lat="59.184835454702" lon="17.89547636117">
        <ele>125.2</ele>
        <time>2019-09-18T18:26:54Z</time>
      </trkpt>
      <trkpt lat="59.184827156621" lon="17.895454149135">
        <ele>125.2</ele>
        <time>2019-09-18T18:26:55Z</time>
      </trkpt>
      <trkpt lat="59.184820954015" lon="17.895440235181">
        <ele>125.2</ele>
        <time>2019-09-18T18:26:56Z</time>
      </trkpt>
      <trkpt lat="59.18481634397" lon="17.895427662331">
        <ele>125.2</ele>
        <time>2019-09-18T18:26:57Z</time>
      </trkpt>
      <trkpt lat="59.184811650106" lon="17.895408803056">
        <ele>125.2</ele>
        <time>2019-09-18T18:26:58Z</time>
      </trkpt>
      <trkpt lat="59.184808548803" lon="17.895390111419">
        <ele>125.2</ele>
        <time>2019-09-18T18:26:59Z</time>
      </trkpt>
      <trkpt lat="59.18480712388" lon="17.895387848306">
        <ele>125.2</ele>
        <time>2019-09-18T18:27:00Z</time>
      </trkpt>
      <trkpt lat="59.184748785856" lon="17.894921311752">
        <ele>127.2</ele>
        <time>2019-09-18T18:27:45Z</time>
      </trkpt>
      <trkpt lat="59.184748785856" lon="17.894921311752">
        <ele>127.2</ele>
        <time>2019-09-18T18:27:46Z</time>
      </trkpt>
      <trkpt lat="59.184751132788" lon="17.894839504408">
        <ele>127</ele>
        <time>2019-09-18T18:27:48Z</time>
      </trkpt>
      <trkpt lat="59.184750210779" lon="17.894811927957">
        <ele>127</ele>
        <time>2019-09-18T18:27:49Z</time>
      </trkpt>
      <trkpt lat="59.184751048969" lon="17.894796253804">
        <ele>127</ele>
        <time>2019-09-18T18:27:50Z</time>
      </trkpt>
      <trkpt lat="59.18475180334" lon="17.894774712321">
        <ele>126.8</ele>
        <time>2019-09-18T18:27:51Z</time>
      </trkpt>
      <trkpt lat="59.184752306254" lon="17.894759876358">
        <ele>126.8</ele>
        <time>2019-09-18T18:27:52Z</time>
      </trkpt>
      <trkpt lat="59.184721796138" lon="17.893840130471">
        <ele>120.8</ele>
        <time>2019-09-18T18:33:53Z</time>
      </trkpt>
      <trkpt lat="59.184738476119" lon="17.893845997801">
        <ele>120.8</ele>
        <time>2019-09-18T18:33:54Z</time>
      </trkpt>
      <trkpt lat="59.184754904643" lon="17.893846165439">
        <ele>120.8</ele>
        <time>2019-09-18T18:33:55Z</time>
      </trkpt>
      <trkpt lat="59.184754904643" lon="17.893846165439">
        <ele>120.8</ele>
        <time>2019-09-18T18:33:56Z</time>
      </trkpt>
      <trkpt lat="59.184791365908" lon="17.893849015285">
        <ele>120.8</ele>
        <time>2019-09-18T18:33:57Z</time>
      </trkpt>
      <trkpt lat="59.184808045889" lon="17.893848512371">
        <ele>121</ele>
        <time>2019-09-18T18:33:58Z</time>
      </trkpt>
      <trkpt lat="59.184833191589" lon="17.89385278714">
        <ele>121</ele>
        <time>2019-09-18T18:33:59Z</time>
      </trkpt>
      <trkpt lat="59.184863198791" lon="17.89386368361">
        <ele>121</ele>
        <time>2019-09-18T18:34:00Z</time>
      </trkpt>
      <trkpt lat="59.184894882373" lon="17.893888745491">
        <ele>121</ele>
        <time>2019-09-18T18:34:01Z</time>
      </trkpt>
      <trkpt lat="59.184929164344" lon="17.893911963354">
        <ele>121</ele>
        <time>2019-09-18T18:34:02Z</time>
      </trkpt>
      <trkpt lat="59.184957327528" lon="17.893931577">
        <ele>121</ele>
        <time>2019-09-18T18:34:03Z</time>
      </trkpt>
      <trkpt lat="59.184981551219" lon="17.893957141795">
        <ele>121</ele>
        <time>2019-09-18T18:34:04Z</time>
      </trkpt>
      <trkpt lat="59.185012396611" lon="17.893991339947">
        <ele>121</ele>
        <time>2019-09-18T18:34:05Z</time>
      </trkpt>
      <trkpt lat="59.185040392157" lon="17.894032914171">
        <ele>121</ele>
        <time>2019-09-18T18:34:06Z</time>
      </trkpt>
      <trkpt lat="59.18506696278" lon="17.894078763164">
        <ele>121.2</ele>
        <time>2019-09-18T18:34:07Z</time>
      </trkpt>
      <trkpt lat="59.185093449584" lon="17.894124863614">
        <ele>121.2</ele>
        <time>2019-09-18T18:34:08Z</time>
      </trkpt>
      <trkpt lat="59.185113985239" lon="17.894177921041">
        <ele>121.2</ele>
        <time>2019-09-18T18:34:09Z</time>
      </trkpt>
      <trkpt lat="59.185133012152" lon="17.894233073943">
        <ele>121.2</ele>
        <time>2019-09-18T18:34:10Z</time>
      </trkpt>
      <trkpt lat="59.185146087916" lon="17.894275570176">
        <ele>121.2</ele>
        <time>2019-09-18T18:34:11Z</time>
      </trkpt>
      <trkpt lat="59.185158576947" lon="17.894306750844">
        <ele>121.2</ele>
        <time>2019-09-18T18:34:12Z</time>
      </trkpt>
      <trkpt lat="59.185164611915" lon="17.894331142173">
        <ele>121.2</ele>
        <time>2019-09-18T18:34:13Z</time>
      </trkpt>
      <trkpt lat="59.185176346575" lon="17.894358802443">
        <ele>121.2</ele>
        <time>2019-09-18T18:34:14Z</time>
      </trkpt>
      <trkpt lat="59.185192104547" lon="17.89439509607">
        <ele>121.2</ele>
        <time>2019-09-18T18:34:15Z</time>
      </trkpt>
      <trkpt lat="59.185214400401" lon="17.894437424665">
        <ele>121.2</ele>
        <time>2019-09-18T18:34:16Z</time>
      </trkpt>
      <trkpt lat="59.185235103694" lon="17.894481178183">
        <ele>121.4</ele>
        <time>2019-09-18T18:34:17Z</time>
      </trkpt>
      <trkpt lat="59.185264105068" lon="17.894528033004">
        <ele>121.4</ele>
        <time>2019-09-18T18:34:18Z</time>
      </trkpt>
      <trkpt lat="59.185292854985" lon="17.894568266124">
        <ele>121.4</ele>
        <time>2019-09-18T18:34:19Z</time>
      </trkpt>
      <trkpt lat="59.18532261073" lon="17.894603134828">
        <ele>121.6</ele>
        <time>2019-09-18T18:34:20Z</time>
      </trkpt>
      <trkpt lat="59.18532261073" lon="17.894603134828">
        <ele>121.6</ele>
        <time>2019-09-18T18:34:21Z</time>
      </trkpt>
      <trkpt lat="59.185383966238" lon="17.894650660201">
        <ele>122</ele>
        <time>2019-09-18T18:34:22Z</time>
      </trkpt>
      <trkpt lat="59.185419086399" lon="17.8946608023">
        <ele>122</ele>
        <time>2019-09-18T18:34:23Z</time>
      </trkpt>
      <trkpt lat="59.185452278723" lon="17.894659461196">
        <ele>122</ele>
        <time>2019-09-18T18:34:24Z</time>
      </trkpt>
      <trkpt lat="59.185477256785" lon="17.894660550843">
        <ele>122</ele>
        <time>2019-09-18T18:34:25Z</time>
      </trkpt>
      <trkpt lat="59.185502234847" lon="17.8946440385">
        <ele>122</ele>
        <time>2019-09-18T18:34:26Z</time>
      </trkpt>
      <trkpt lat="59.185536935913" lon="17.894625765958">
        <ele>122.2</ele>
        <time>2019-09-18T18:34:27Z</time>
      </trkpt>
      <trkpt lat="59.185567697486" lon="17.894609588891">
        <ele>122.2</ele>
        <time>2019-09-18T18:34:28Z</time>
      </trkpt>
      <trkpt lat="59.185595693032" lon="17.894598105688">
        <ele>122.2</ele>
        <time>2019-09-18T18:34:29Z</time>
      </trkpt>
      <trkpt lat="59.185619916723" lon="17.894589137055">
        <ele>122.2</ele>
        <time>2019-09-18T18:34:30Z</time>
      </trkpt>
      <trkpt lat="59.185644308052" lon="17.894576815662">
        <ele>122.2</ele>
        <time>2019-09-18T18:34:31Z</time>
      </trkpt>
      <trkpt lat="59.185667525915" lon="17.894567511753">
        <ele>122.2</ele>
        <time>2019-09-18T18:34:32Z</time>
      </trkpt>
      <trkpt lat="59.185686552828" lon="17.894559968043">
        <ele>122.2</ele>
        <time>2019-09-18T18:34:33Z</time>
      </trkpt>
      <trkpt lat="59.185711279433" lon="17.89455435217">
        <ele>122.2</ele>
        <time>2019-09-18T18:34:34Z</time>
      </trkpt>
      <trkpt lat="59.185745812861" lon="17.894560387138">
        <ele>122.2</ele>
        <time>2019-09-18T18:34:35Z</time>
      </trkpt>
      <trkpt lat="59.185781519755" lon="17.894578324404">
        <ele>122.2</ele>
        <time>2019-09-18T18:34:36Z</time>
      </trkpt>
      <trkpt lat="59.185811778414" lon="17.894605900855">
        <ele>122.2</ele>
        <time>2019-09-18T18:34:37Z</time>
      </trkpt>
      <trkpt lat="59.185839606322" lon="17.894635069867">
        <ele>122.2</ele>
        <time>2019-09-18T18:34:38Z</time>
      </trkpt>
      <trkpt lat="59.185869864981" lon="17.894668178372">
        <ele>122.2</ele>
        <time>2019-09-18T18:34:39Z</time>
      </trkpt>
      <trkpt lat="59.185899872183" lon="17.894705896922">
        <ele>122.2</ele>
        <time>2019-09-18T18:34:40Z</time>
      </trkpt>
      <trkpt lat="59.185931304308" lon="17.894746046223">
        <ele>122.2</ele>
        <time>2019-09-18T18:34:41Z</time>
      </trkpt>
      <trkpt lat="59.185963490804" lon="17.894783513316">
        <ele>122.2</ele>
        <time>2019-09-18T18:34:42Z</time>
      </trkpt>
      <trkpt lat="59.185998359508" lon="17.894818214382">
        <ele>122.2</ele>
        <time>2019-09-18T18:34:43Z</time>
      </trkpt>
      <trkpt lat="59.186031887108" lon="17.894859537149">
        <ele>122.2</ele>
        <time>2019-09-18T18:34:44Z</time>
      </trkpt>
      <trkpt lat="59.186031887108" lon="17.894859537149">
        <ele>122.2</ele>
        <time>2019-09-18T18:34:45Z</time>
      </trkpt>
      <trkpt lat="59.186101205421" lon="17.89495249242">
        <ele>122</ele>
        <time>2019-09-18T18:34:46Z</time>
      </trkpt>
      <trkpt lat="59.186135571211" lon="17.894999095784">
        <ele>122</ele>
        <time>2019-09-18T18:34:47Z</time>
      </trkpt>
      <trkpt lat="59.186166919517" lon="17.895045950605">
        <ele>122</ele>
        <time>2019-09-18T18:34:48Z</time>
      </trkpt>
      <trkpt lat="59.18620354842" lon="17.895092973064">
        <ele>122</ele>
        <time>2019-09-18T18:34:49Z</time>
      </trkpt>
      <trkpt lat="59.186239925866" lon="17.89514443793">
        <ele>122</ele>
        <time>2019-09-18T18:34:50Z</time>
      </trkpt>
      <trkpt lat="59.186239925866" lon="17.89514443793">
        <ele>122</ele>
        <time>2019-09-18T18:34:51Z</time>
      </trkpt>
      <trkpt lat="59.186314608595" lon="17.895261281616">
        <ele>122</ele>
        <time>2019-09-18T18:34:52Z</time>
      </trkpt>
      <trkpt lat="59.186342436503" lon="17.895316434518">
        <ele>122</ele>
        <time>2019-09-18T18:34:53Z</time>
      </trkpt>
      <trkpt lat="59.186342436503" lon="17.895316434518">
        <ele>122</ele>
        <time>2019-09-18T18:34:54Z</time>
      </trkpt>
      <trkpt lat="59.186389794238" lon="17.895407461952">
        <ele>122</ele>
        <time>2019-09-18T18:34:55Z</time>
      </trkpt>
      <trkpt lat="59.186412090092" lon="17.895452137479">
        <ele>122</ele>
        <time>2019-09-18T18:34:56Z</time>
      </trkpt>
      <trkpt lat="59.186434134489" lon="17.895497483558">
        <ele>122</ele>
        <time>2019-09-18T18:34:57Z</time>
      </trkpt>
      <trkpt lat="59.186462800587" lon="17.89553922542">
        <ele>122</ele>
        <time>2019-09-18T18:34:58Z</time>
      </trkpt>
      <trkpt lat="59.186489119753" lon="17.895587421345">
        <ele>122</ele>
        <time>2019-09-18T18:34:59Z</time>
      </trkpt>
      <trkpt lat="59.186515858014" lon="17.895641987514">
        <ele>122</ele>
        <time>2019-09-18T18:35:00Z</time>
      </trkpt>
      <trkpt lat="59.18654217718" lon="17.895699571167">
        <ele>122</ele>
        <time>2019-09-18T18:35:01Z</time>
      </trkpt>
      <trkpt lat="59.186571346192" lon="17.895756065173">
        <ele>122.2</ele>
        <time>2019-09-18T18:35:02Z</time>
      </trkpt>
      <trkpt lat="59.18660085048" lon="17.895811553351">
        <ele>122.2</ele>
        <time>2019-09-18T18:35:03Z</time>
      </trkpt>
      <trkpt lat="59.186638820487" lon="17.89586025219">
        <ele>122.4</ele>
        <time>2019-09-18T18:35:04Z</time>
      </trkpt>
      <trkpt lat="59.186670587888" lon="17.895903754251">
        <ele>122.6</ele>
        <time>2019-09-18T18:35:05Z</time>
      </trkpt>
      <trkpt lat="59.186695146855" lon="17.895933929091">
        <ele>122.6</ele>
        <time>2019-09-18T18:35:06Z</time>
      </trkpt>
      <trkpt lat="59.186719202908" lon="17.895955135298">
        <ele>122.6</ele>
        <time>2019-09-18T18:35:07Z</time>
      </trkpt>
      <trkpt lat="59.18673579907" lon="17.895973659297">
        <ele>122.8</ele>
        <time>2019-09-18T18:35:08Z</time>
      </trkpt>
      <trkpt lat="59.186743594237" lon="17.895991177468">
        <ele>123</ele>
        <time>2019-09-18T18:35:09Z</time>
      </trkpt>
      <trkpt lat="59.186757256734" lon="17.896010120562">
        <ele>123</ele>
        <time>2019-09-18T18:35:10Z</time>
      </trkpt>
      <trkpt lat="59.186766309186" lon="17.896028979837">
        <ele>123</ele>
        <time>2019-09-18T18:35:11Z</time>
      </trkpt>
      <trkpt lat="59.18677016486" lon="17.896046665646">
        <ele>123.2</ele>
        <time>2019-09-18T18:35:12Z</time>
      </trkpt>
      <trkpt lat="59.18677016486" lon="17.896046665646">
        <ele>123.2</ele>
        <time>2019-09-18T18:35:13Z</time>
      </trkpt>
      <trkpt lat="59.186767231195" lon="17.896087904594">
        <ele>123.2</ele>
        <time>2019-09-18T18:35:14Z</time>
      </trkpt>
      <trkpt lat="59.186763124064" lon="17.896110703362">
        <ele>123.2</ele>
        <time>2019-09-18T18:35:15Z</time>
      </trkpt>
      <trkpt lat="59.186756670001" lon="17.896136519614">
        <ele>123.2</ele>
        <time>2019-09-18T18:35:16Z</time>
      </trkpt>
      <trkpt lat="59.186746611721" lon="17.89616283878">
        <ele>123.2</ele>
        <time>2019-09-18T18:35:17Z</time>
      </trkpt>
      <trkpt lat="59.186728422998" lon="17.896191504878">
        <ele>123.2</ele>
        <time>2019-09-18T18:35:18Z</time>
      </trkpt>
      <trkpt lat="59.186706797696" lon="17.896222853184">
        <ele>123.2</ele>
        <time>2019-09-18T18:35:19Z</time>
      </trkpt>
      <trkpt lat="59.186682657824" lon="17.896251435463">
        <ele>123.2</ele>
        <time>2019-09-18T18:35:20Z</time>
      </trkpt>
      <trkpt lat="59.186656003382" lon="17.896283957235">
        <ele>123.2</ele>
        <time>2019-09-18T18:35:21Z</time>
      </trkpt>
      <trkpt lat="59.186627337284" lon="17.896311701324">
        <ele>123</ele>
        <time>2019-09-18T18:35:22Z</time>
      </trkpt>
      <trkpt lat="59.186597832996" lon="17.896327543115">
        <ele>123</ele>
        <time>2019-09-18T18:35:23Z</time>
      </trkpt>
      <trkpt lat="59.186573357848" lon="17.896337601395">
        <ele>122.8</ele>
        <time>2019-09-18T18:35:24Z</time>
      </trkpt>
      <trkpt lat="59.186551564908" lon="17.89634807877">
        <ele>122.6</ele>
        <time>2019-09-18T18:35:25Z</time>
      </trkpt>
      <trkpt lat="59.186529352873" lon="17.896373643565">
        <ele>122.2</ele>
        <time>2019-09-18T18:35:26Z</time>
      </trkpt>
      <trkpt lat="59.186497585472" lon="17.896393508668">
        <ele>122</ele>
        <time>2019-09-18T18:35:27Z</time>
      </trkpt>
      <trkpt lat="59.186465315157" lon="17.896412284124">
        <ele>121.8</ele>
        <time>2019-09-18T18:35:28Z</time>
      </trkpt>
      <trkpt lat="59.186430446453" lon="17.896427958277">
        <ele>121.8</ele>
        <time>2019-09-18T18:35:29Z</time>
      </trkpt>
      <trkpt lat="59.186388453134" lon="17.896449164484">
        <ele>121.8</ele>
        <time>2019-09-18T18:35:30Z</time>
      </trkpt>
      <trkpt lat="59.186348387652" lon="17.89647213089">
        <ele>121.8</ele>
        <time>2019-09-18T18:35:31Z</time>
      </trkpt>
      <trkpt lat="59.186318548088" lon="17.89649140926">
        <ele>121.8</ele>
        <time>2019-09-18T18:35:32Z</time>
      </trkpt>
      <trkpt lat="59.186280326624" lon="17.896519404806">
        <ele>121.6</ele>
        <time>2019-09-18T18:35:33Z</time>
      </trkpt>
      <trkpt lat="59.186247637214" lon="17.89654589161">
        <ele>121.6</ele>
        <time>2019-09-18T18:35:34Z</time>
      </trkpt>
      <trkpt lat="59.186207404094" lon="17.896577826649">
        <ele>121.6</ele>
        <time>2019-09-18T18:35:35Z</time>
      </trkpt>
      <trkpt lat="59.186173960313" lon="17.896608001489">
        <ele>121.6</ele>
        <time>2019-09-18T18:35:36Z</time>
      </trkpt>
      <trkpt lat="59.186142695826" lon="17.896636332311">
        <ele>121.6</ele>
        <time>2019-09-18T18:35:37Z</time>
      </trkpt>
      <trkpt lat="59.186110257873" lon="17.896656784147">
        <ele>121.6</ele>
        <time>2019-09-18T18:35:38Z</time>
      </trkpt>
      <trkpt lat="59.186110257873" lon="17.896656784147">
        <ele>121.6</ele>
        <time>2019-09-18T18:35:39Z</time>
      </trkpt>
      <trkpt lat="59.186052171306" lon="17.896698777466">
        <ele>121.6</ele>
        <time>2019-09-18T18:35:40Z</time>
      </trkpt>
      <trkpt lat="59.186016967326" lon="17.89672777884">
        <ele>121.8</ele>
        <time>2019-09-18T18:35:41Z</time>
      </trkpt>
      <trkpt lat="59.185983775002" lon="17.896757283128">
        <ele>121.8</ele>
        <time>2019-09-18T18:35:42Z</time>
      </trkpt>
      <trkpt lat="59.185951504687" lon="17.896785027217">
        <ele>121.8</ele>
        <time>2019-09-18T18:35:43Z</time>
      </trkpt>
      <trkpt lat="59.185920575476" lon="17.896799611723">
        <ele>121.8</ele>
        <time>2019-09-18T18:35:44Z</time>
      </trkpt>
      <trkpt lat="59.185886880238" lon="17.896809670003">
        <ele>121.8</ele>
        <time>2019-09-18T18:35:45Z</time>
      </trkpt>
      <trkpt lat="59.185848491136" lon="17.89679734861">
        <ele>121.8</ele>
        <time>2019-09-18T18:35:46Z</time>
      </trkpt>
      <trkpt lat="59.185813873889" lon="17.896768598693">
        <ele>121.6</ele>
        <time>2019-09-18T18:35:47Z</time>
      </trkpt>
      <trkpt lat="59.185782357945" lon="17.896740435509">
        <ele>121.6</ele>
        <time>2019-09-18T18:35:48Z</time>
      </trkpt>
      <trkpt lat="59.18575511677" lon="17.896710093031">
        <ele>121.6</ele>
        <time>2019-09-18T18:35:49Z</time>
      </trkpt>
      <trkpt lat="59.18575511677" lon="17.896710093031">
        <ele>121.6</ele>
        <time>2019-09-18T18:35:50Z</time>
      </trkpt>
      <trkpt lat="59.185707172302" lon="17.896659298717">
        <ele>121.6</ele>
        <time>2019-09-18T18:35:51Z</time>
      </trkpt>
      <trkpt lat="59.185676746005" lon="17.896632392818">
        <ele>121.6</ele>
        <time>2019-09-18T18:35:52Z</time>
      </trkpt>
      <trkpt lat="59.185646571165" lon="17.896605067824">
        <ele>121.6</ele>
        <time>2019-09-18T18:35:53Z</time>
      </trkpt>
      <trkpt lat="59.185621425465" lon="17.896577491373">
        <ele>121.6</ele>
        <time>2019-09-18T18:35:54Z</time>
      </trkpt>
      <trkpt lat="59.185598542878" lon="17.896557039537">
        <ele>121.6</ele>
        <time>2019-09-18T18:35:55Z</time>
      </trkpt>
      <trkpt lat="59.185576666119" lon="17.896535498054">
        <ele>121.6</ele>
        <time>2019-09-18T18:35:56Z</time>
      </trkpt>
      <trkpt lat="59.185551771876" lon="17.896505323214">
        <ele>121.6</ele>
        <time>2019-09-18T18:35:57Z</time>
      </trkpt>
      <trkpt lat="59.185551771876" lon="17.896505323214">
        <ele>121.6</ele>
        <time>2019-09-18T18:35:58Z</time>
      </trkpt>
      <trkpt lat="59.185513885688" lon="17.896459641859">
        <ele>121.8</ele>
        <time>2019-09-18T18:35:59Z</time>
      </trkpt>
      <trkpt lat="59.185494607318" lon="17.896439106204">
        <ele>121.8</ele>
        <time>2019-09-18T18:36:00Z</time>
      </trkpt>
      <trkpt lat="59.185478681708" lon="17.89642267768">
        <ele>121.8</ele>
        <time>2019-09-18T18:36:01Z</time>
      </trkpt>
      <trkpt lat="59.18547264674" lon="17.896408344631">
        <ele>122</ele>
        <time>2019-09-18T18:36:02Z</time>
      </trkpt>
      <trkpt lat="59.185468120514" lon="17.896402896396">
        <ele>122</ele>
        <time>2019-09-18T18:36:03Z</time>
      </trkpt>
      <trkpt lat="59.185462839917" lon="17.896397783437">
        <ele>122.2</ele>
        <time>2019-09-18T18:36:04Z</time>
      </trkpt>
      <trkpt lat="59.185490081092" lon="17.896350341883">
        <ele>122.4</ele>
        <time>2019-09-18T18:36:12Z</time>
      </trkpt>
      <trkpt lat="59.18552126176" lon="17.896333410445">
        <ele>122.4</ele>
        <time>2019-09-18T18:36:13Z</time>
      </trkpt>
      <trkpt lat="59.185542048872" lon="17.896323016889">
        <ele>122.4</ele>
        <time>2019-09-18T18:36:14Z</time>
      </trkpt>
      <trkpt lat="59.185563003622" lon="17.896316730464">
        <ele>122.4</ele>
        <time>2019-09-18T18:36:15Z</time>
      </trkpt>
      <trkpt lat="59.185584377467" lon="17.89631538936">
        <ele>122.4</ele>
        <time>2019-09-18T18:36:16Z</time>
      </trkpt>
      <trkpt lat="59.185602230914" lon="17.896318239206">
        <ele>122.4</ele>
        <time>2019-09-18T18:36:17Z</time>
      </trkpt>
      <trkpt lat="59.185618324162" lon="17.896322849251">
        <ele>122.4</ele>
        <time>2019-09-18T18:36:18Z</time>
      </trkpt>
      <trkpt lat="59.185638775998" lon="17.896337852852">
        <ele>122.2</ele>
        <time>2019-09-18T18:36:19Z</time>
      </trkpt>
      <trkpt lat="59.185638775998" lon="17.896337852852">
        <ele>122.2</ele>
        <time>2019-09-18T18:36:20Z</time>
      </trkpt>
      <trkpt lat="59.185665095164" lon="17.89636148981">
        <ele>122.2</ele>
        <time>2019-09-18T18:36:21Z</time>
      </trkpt>
      <trkpt lat="59.185672471236" lon="17.896366602769">
        <ele>122.2</ele>
        <time>2019-09-18T18:36:22Z</time>
      </trkpt>
      <trkpt lat="59.185683786801" lon="17.89638076818">
        <ele>122</ele>
        <time>2019-09-18T18:36:23Z</time>
      </trkpt>
      <trkpt lat="59.185692503977" lon="17.896393760125">
        <ele>122</ele>
        <time>2019-09-18T18:36:24Z</time>
      </trkpt>
      <trkpt lat="59.185698790402" lon="17.89640507569">
        <ele>122</ele>
        <time>2019-09-18T18:36:25Z</time>
      </trkpt>
      <trkpt lat="59.185711195614" lon="17.896413541409">
        <ele>122</ele>
        <time>2019-09-18T18:36:26Z</time>
      </trkpt>
      <trkpt lat="59.18572494193" lon="17.896421588033">
        <ele>122</ele>
        <time>2019-09-18T18:36:27Z</time>
      </trkpt>
      <trkpt lat="59.18573919116" lon="17.896430389028">
        <ele>122</ele>
        <time>2019-09-18T18:36:28Z</time>
      </trkpt>
      <trkpt lat="59.185756960788" lon="17.896445224991">
        <ele>122</ele>
        <time>2019-09-18T18:36:29Z</time>
      </trkpt>
      <trkpt lat="59.185776406796" lon="17.896456624375">
        <ele>122</ele>
        <time>2019-09-18T18:36:30Z</time>
      </trkpt>
      <trkpt lat="59.185776406796" lon="17.896456624375">
        <ele>122</ele>
        <time>2019-09-18T18:36:31Z</time>
      </trkpt>
      <trkpt lat="59.185809431482" lon="17.896500126436">
        <ele>122</ele>
        <time>2019-09-18T18:36:32Z</time>
      </trkpt>
      <trkpt lat="59.185828626033" lon="17.896521416462">
        <ele>121.8</ele>
        <time>2019-09-18T18:36:33Z</time>
      </trkpt>
      <trkpt lat="59.185828626033" lon="17.896521416462">
        <ele>121.8</ele>
        <time>2019-09-18T18:36:34Z</time>
      </trkpt>
      <trkpt lat="59.185881432003" lon="17.896587046739">
        <ele>122</ele>
        <time>2019-09-18T18:36:36Z</time>
      </trkpt>
      <trkpt lat="59.185897776708" lon="17.896608588222">
        <ele>122.2</ele>
        <time>2019-09-18T18:36:37Z</time>
      </trkpt>
      <trkpt lat="59.185913115585" lon="17.896620322882">
        <ele>122.2</ele>
        <time>2019-09-18T18:36:38Z</time>
      </trkpt>
      <trkpt lat="59.185913115585" lon="17.896620322882">
        <ele>122.2</ele>
        <time>2019-09-18T18:36:39Z</time>
      </trkpt>
      <trkpt lat="59.185938345104" lon="17.89664815079">
        <ele>122.2</ele>
        <time>2019-09-18T18:36:40Z</time>
      </trkpt>
      <trkpt lat="59.185953013429" lon="17.896667932074">
        <ele>122.2</ele>
        <time>2019-09-18T18:36:41Z</time>
      </trkpt>
      <trkpt lat="59.185964161356" lon="17.896683019494">
        <ele>122.2</ele>
        <time>2019-09-18T18:36:42Z</time>
      </trkpt>
      <trkpt lat="59.185962484976" lon="17.896701543493">
        <ele>122.2</ele>
        <time>2019-09-18T18:36:43Z</time>
      </trkpt>
      <trkpt lat="59.185956030913" lon="17.896715876542">
        <ele>122</ele>
        <time>2019-09-18T18:36:44Z</time>
      </trkpt>
      <trkpt lat="59.185941614045" lon="17.896733059437">
        <ele>122</ele>
        <time>2019-09-18T18:36:45Z</time>
      </trkpt>
      <trkpt lat="59.18592191658" lon="17.896754014187">
        <ele>122</ele>
        <time>2019-09-18T18:36:46Z</time>
      </trkpt>
      <trkpt lat="59.185899369269" lon="17.896782177371">
        <ele>122</ele>
        <time>2019-09-18T18:36:47Z</time>
      </trkpt>
      <trkpt lat="59.18588084527" lon="17.896806401062">
        <ele>122</ele>
        <time>2019-09-18T18:36:48Z</time>
      </trkpt>
      <trkpt lat="59.185859219968" lon="17.896831127667">
        <ele>122</ele>
        <time>2019-09-18T18:36:49Z</time>
      </trkpt>
      <trkpt lat="59.185834828639" lon="17.896856189548">
        <ele>122</ele>
        <time>2019-09-18T18:36:50Z</time>
      </trkpt>
      <trkpt lat="59.185812532785" lon="17.896879994144">
        <ele>122</ele>
        <time>2019-09-18T18:36:51Z</time>
      </trkpt>
      <trkpt lat="59.185791494216" lon="17.896905726577">
        <ele>122</ele>
        <time>2019-09-18T18:36:52Z</time>
      </trkpt>
      <trkpt lat="59.18577104238" lon="17.896917712694">
        <ele>121.8</ele>
        <time>2019-09-18T18:36:53Z</time>
      </trkpt>
      <trkpt lat="59.185743214472" lon="17.896911845364">
        <ele>121.8</ele>
        <time>2019-09-18T18:36:54Z</time>
      </trkpt>
      <trkpt lat="59.185715386564" lon="17.896885526198">
        <ele>121.8</ele>
        <time>2019-09-18T18:36:55Z</time>
      </trkpt>
      <trkpt lat="59.185684792629" lon="17.896848226743">
        <ele>121.8</ele>
        <time>2019-09-18T18:36:56Z</time>
      </trkpt>
      <trkpt lat="59.185684792629" lon="17.896848226743">
        <ele>121.6</ele>
        <time>2019-09-18T18:36:57Z</time>
      </trkpt>
      <trkpt lat="59.185612540651" lon="17.896740854604">
        <ele>121.6</ele>
        <time>2019-09-18T18:36:59Z</time>
      </trkpt>
      <trkpt lat="59.185587143494" lon="17.89670347133">
        <ele>121.6</ele>
        <time>2019-09-18T18:37:00Z</time>
      </trkpt>
      <trkpt lat="59.185562416889" lon="17.896671117196">
        <ele>121.6</ele>
        <time>2019-09-18T18:37:01Z</time>
      </trkpt>
      <trkpt lat="59.185541629777" lon="17.896641780546">
        <ele>121.4</ele>
        <time>2019-09-18T18:37:02Z</time>
      </trkpt>
      <trkpt lat="59.185524698339" lon="17.89661797595">
        <ele>121.4</ele>
        <time>2019-09-18T18:37:03Z</time>
      </trkpt>
      <trkpt lat="59.185509024186" lon="17.896598362304">
        <ele>121.4</ele>
        <time>2019-09-18T18:37:04Z</time>
      </trkpt>
      <trkpt lat="59.185493266214" lon="17.896575312079">
        <ele>121.4</ele>
        <time>2019-09-18T18:37:05Z</time>
      </trkpt>
      <trkpt lat="59.18547767588" lon="17.896549663465">
        <ele>121.4</ele>
        <time>2019-09-18T18:37:06Z</time>
      </trkpt>
      <trkpt lat="59.185466527953" lon="17.896531055647">
        <ele>121.4</ele>
        <time>2019-09-18T18:37:07Z</time>
      </trkpt>
      <trkpt lat="59.185453871284" lon="17.896513621295">
        <ele>121.4</ele>
        <time>2019-09-18T18:37:08Z</time>
      </trkpt>
      <trkpt lat="59.185438867683" lon="17.896491660717">
        <ele>121.6</ele>
        <time>2019-09-18T18:37:09Z</time>
      </trkpt>
      <trkpt lat="59.185438867683" lon="17.896491660717">
        <ele>121.8</ele>
        <time>2019-09-18T18:37:10Z</time>
      </trkpt>
      <trkpt lat="59.18541900258" lon="17.89643692691">
        <ele>121.8</ele>
        <time>2019-09-18T18:37:11Z</time>
      </trkpt>
      <trkpt lat="59.185420930417" lon="17.896420079291">
        <ele>121.8</ele>
        <time>2019-09-18T18:37:12Z</time>
      </trkpt>
      <trkpt lat="59.185427049204" lon="17.896409937192">
        <ele>121.8</ele>
        <time>2019-09-18T18:37:13Z</time>
      </trkpt>
      <trkpt lat="59.185438364769" lon="17.896403315491">
        <ele>121.8</ele>
        <time>2019-09-18T18:37:14Z</time>
      </trkpt>
      <trkpt lat="59.185452278723" lon="17.896391413193">
        <ele>121.8</ele>
        <time>2019-09-18T18:37:15Z</time>
      </trkpt>
      <trkpt lat="59.185471221817" lon="17.896373978841">
        <ele>121.8</ele>
        <time>2019-09-18T18:37:16Z</time>
      </trkpt>
      <trkpt lat="59.185494858775" lon="17.896356795946">
        <ele>121.8</ele>
        <time>2019-09-18T18:37:17Z</time>
      </trkpt>
      <trkpt lat="59.185494858775" lon="17.896356795946">
        <ele>121.8</ele>
        <time>2019-09-18T18:37:18Z</time>
      </trkpt>
      <trkpt lat="59.185540121035" lon="17.896340786517">
        <ele>121.8</ele>
        <time>2019-09-18T18:37:19Z</time>
      </trkpt>
      <trkpt lat="59.185563506536" lon="17.896340199784">
        <ele>121.8</ele>
        <time>2019-09-18T18:37:20Z</time>
      </trkpt>
      <trkpt lat="59.18558747877" lon="17.8963455642">
        <ele>121.8</ele>
        <time>2019-09-18T18:37:21Z</time>
      </trkpt>
      <trkpt lat="59.185611702461" lon="17.896365596941">
        <ele>121.6</ele>
        <time>2019-09-18T18:37:22Z</time>
      </trkpt>
      <trkpt lat="59.185632489573" lon="17.896372553918">
        <ele>121.4</ele>
        <time>2019-09-18T18:37:23Z</time>
      </trkpt>
      <trkpt lat="59.185650426839" lon="17.896373056832">
        <ele>121.2</ele>
        <time>2019-09-18T18:37:24Z</time>
      </trkpt>
      <trkpt lat="59.185668028829" lon="17.89636987171">
        <ele>121.2</ele>
        <time>2019-09-18T18:37:25Z</time>
      </trkpt>
      <trkpt lat="59.185687642475" lon="17.896369704072">
        <ele>121.2</ele>
        <time>2019-09-18T18:37:26Z</time>
      </trkpt>
      <trkpt lat="59.185709770691" lon="17.896357466498">
        <ele>121.2</ele>
        <time>2019-09-18T18:37:27Z</time>
      </trkpt>
      <trkpt lat="59.185723768464" lon="17.896340954155">
        <ele>121.2</ele>
        <time>2019-09-18T18:37:28Z</time>
      </trkpt>
      <trkpt lat="59.185739526436" lon="17.896329219495">
        <ele>121.2</ele>
        <time>2019-09-18T18:37:29Z</time>
      </trkpt>
      <trkpt lat="59.185739526436" lon="17.896329219495">
        <ele>121.2</ele>
        <time>2019-09-18T18:37:30Z</time>
      </trkpt>
      <trkpt lat="59.18578110066" lon="17.896288734918">
        <ele>121.2</ele>
        <time>2019-09-18T18:37:31Z</time>
      </trkpt>
      <trkpt lat="59.185798451193" lon="17.896271132928">
        <ele>121.2</ele>
        <time>2019-09-18T18:37:32Z</time>
      </trkpt>
      <trkpt lat="59.185811778414" lon="17.896249759083">
        <ele>121.4</ele>
        <time>2019-09-18T18:37:33Z</time>
      </trkpt>
      <trkpt lat="59.185825189454" lon="17.896217656406">
        <ele>121.4</ele>
        <time>2019-09-18T18:37:34Z</time>
      </trkpt>
      <trkpt lat="59.18583558301" lon="17.896192845982">
        <ele>121.4</ele>
        <time>2019-09-18T18:37:35Z</time>
      </trkpt>
      <trkpt lat="59.18585150862" lon="17.896169292843">
        <ele>121.6</ele>
        <time>2019-09-18T18:37:36Z</time>
      </trkpt>
      <trkpt lat="59.185867098954" lon="17.896145907342">
        <ele>121.6</ele>
        <time>2019-09-18T18:37:37Z</time>
      </trkpt>
      <trkpt lat="59.185883695116" lon="17.896124449678">
        <ele>121.8</ele>
        <time>2019-09-18T18:37:38Z</time>
      </trkpt>
      <trkpt lat="59.185899620726" lon="17.896102992014">
        <ele>121.8</ele>
        <time>2019-09-18T18:37:39Z</time>
      </trkpt>
      <trkpt lat="59.185920324019" lon="17.896080779979">
        <ele>121.8</ele>
        <time>2019-09-18T18:37:40Z</time>
      </trkpt>
      <trkpt lat="59.185920324019" lon="17.896080779979">
        <ele>121.8</ele>
        <time>2019-09-18T18:37:41Z</time>
      </trkpt>
      <trkpt lat="59.185984697011" lon="17.895992518572">
        <ele>121.8</ele>
        <time>2019-09-18T18:37:43Z</time>
      </trkpt>
      <trkpt lat="59.186009004521" lon="17.895957398411">
        <ele>121.8</ele>
        <time>2019-09-18T18:37:44Z</time>
      </trkpt>
      <trkpt lat="59.186009004521" lon="17.895957398411">
        <ele>121.8</ele>
        <time>2019-09-18T18:37:45Z</time>
      </trkpt>
      <trkpt lat="59.186053177134" lon="17.89590467626">
        <ele>121.8</ele>
        <time>2019-09-18T18:37:46Z</time>
      </trkpt>
      <trkpt lat="59.186075556807" lon="17.895875842524">
        <ele>121.6</ele>
        <time>2019-09-18T18:37:47Z</time>
      </trkpt>
      <trkpt lat="59.1860962601" lon="17.895842734019">
        <ele>121.6</ele>
        <time>2019-09-18T18:37:48Z</time>
      </trkpt>
      <trkpt lat="59.186119310325" lon="17.895817085405">
        <ele>121.4</ele>
        <time>2019-09-18T18:37:49Z</time>
      </trkpt>
      <trkpt lat="59.186143114921" lon="17.895789425135">
        <ele>121.4</ele>
        <time>2019-09-18T18:37:50Z</time>
      </trkpt>
      <trkpt lat="59.186167338612" lon="17.895766039634">
        <ele>121.4</ele>
        <time>2019-09-18T18:37:51Z</time>
      </trkpt>
      <trkpt lat="59.186167338612" lon="17.895766039634">
        <ele>121.4</ele>
        <time>2019-09-18T18:37:52Z</time>
      </trkpt>
      <trkpt lat="59.186196591443" lon="17.895725638876">
        <ele>121.4</ele>
        <time>2019-09-18T18:37:53Z</time>
      </trkpt>
      <trkpt lat="59.186210673035" lon="17.895704600307">
        <ele>121.4</ele>
        <time>2019-09-18T18:37:54Z</time>
      </trkpt>
      <trkpt lat="59.186223245885" lon="17.895681885358">
        <ele>121.4</ele>
        <time>2019-09-18T18:37:55Z</time>
      </trkpt>
      <trkpt lat="59.186234729088" lon="17.895661265884">
        <ele>121.4</ele>
        <time>2019-09-18T18:37:56Z</time>
      </trkpt>
      <trkpt lat="59.1862471343" lon="17.895632599786">
        <ele>121.4</ele>
        <time>2019-09-18T18:37:57Z</time>
      </trkpt>
      <trkpt lat="59.186261048254" lon="17.895602844041">
        <ele>121.4</ele>
        <time>2019-09-18T18:37:58Z</time>
      </trkpt>
      <trkpt lat="59.186261048254" lon="17.895602844041">
        <ele>121.4</ele>
        <time>2019-09-18T18:37:59Z</time>
      </trkpt>
      <trkpt lat="59.186283427927" lon="17.895540985619">
        <ele>121.2</ele>
        <time>2019-09-18T18:38:00Z</time>
      </trkpt>
      <trkpt lat="59.186290552542" lon="17.895512487159">
        <ele>121.2</ele>
        <time>2019-09-18T18:38:01Z</time>
      </trkpt>
      <trkpt lat="59.186296419872" lon="17.895477366998">
        <ele>121.2</ele>
        <time>2019-09-18T18:38:02Z</time>
      </trkpt>
      <trkpt lat="59.186307400161" lon="17.895451886022">
        <ele>121.2</ele>
        <time>2019-09-18T18:38:03Z</time>
      </trkpt>
      <trkpt lat="59.186316871708" lon="17.895433864937">
        <ele>121.2</ele>
        <time>2019-09-18T18:38:04Z</time>
      </trkpt>
      <trkpt lat="59.186321565572" lon="17.895406204667">
        <ele>121.4</ele>
        <time>2019-09-18T18:38:05Z</time>
      </trkpt>
      <trkpt lat="59.186320811201" lon="17.895388099763">
        <ele>121.6</ele>
        <time>2019-09-18T18:38:06Z</time>
      </trkpt>
      <trkpt lat="59.186317793717" lon="17.895368402298">
        <ele>121.6</ele>
        <time>2019-09-18T18:38:07Z</time>
      </trkpt>
      <trkpt lat="59.186313518948" lon="17.895353314878">
        <ele>121.6</ele>
        <time>2019-09-18T18:38:08Z</time>
      </trkpt>
      <trkpt lat="59.18630748398" lon="17.895335293793">
        <ele>121.6</ele>
        <time>2019-09-18T18:38:09Z</time>
      </trkpt>
      <trkpt lat="59.186303879763" lon="17.89532213421">
        <ele>121.6</ele>
        <time>2019-09-18T18:38:10Z</time>
      </trkpt>
      <trkpt lat="59.186300275546" lon="17.895308639351">
        <ele>121.6</ele>
        <time>2019-09-18T18:38:11Z</time>
      </trkpt>
      <trkpt lat="59.186293150931" lon="17.895292127008">
        <ele>121.6</ele>
        <time>2019-09-18T18:38:12Z</time>
      </trkpt>
      <trkpt lat="59.186284685212" lon="17.89526346091">
        <ele>121.6</ele>
        <time>2019-09-18T18:38:13Z</time>
      </trkpt>
      <trkpt lat="59.186275213665" lon="17.895236052097">
        <ele>121.6</ele>
        <time>2019-09-18T18:38:14Z</time>
      </trkpt>
      <trkpt lat="59.186263143729" lon="17.895200848117">
        <ele>121.6</ele>
        <time>2019-09-18T18:38:15Z</time>
      </trkpt>
      <trkpt lat="59.186241518427" lon="17.895151562545">
        <ele>121.6</ele>
        <time>2019-09-18T18:38:16Z</time>
      </trkpt>
      <trkpt lat="59.186222994428" lon="17.895103701896">
        <ele>121.6</ele>
        <time>2019-09-18T18:38:17Z</time>
      </trkpt>
      <trkpt lat="59.186200279479" lon="17.895052488487">
        <ele>121.6</ele>
        <time>2019-09-18T18:38:18Z</time>
      </trkpt>
      <trkpt lat="59.186200279479" lon="17.895052488487">
        <ele>121.6</ele>
        <time>2019-09-18T18:38:19Z</time>
      </trkpt>
      <trkpt lat="59.186141438541" lon="17.894948972022">
        <ele>121.6</ele>
        <time>2019-09-18T18:38:20Z</time>
      </trkpt>
      <trkpt lat="59.186110593149" lon="17.894902117201">
        <ele>121.4</ele>
        <time>2019-09-18T18:38:21Z</time>
      </trkpt>
      <trkpt lat="59.186078071377" lon="17.894850819973">
        <ele>121.4</ele>
        <time>2019-09-18T18:38:22Z</time>
      </trkpt>
      <trkpt lat="59.186045214329" lon="17.894792733406">
        <ele>121.2</ele>
        <time>2019-09-18T18:38:23Z</time>
      </trkpt>
      <trkpt lat="59.186013195471" lon="17.894733138097">
        <ele>121.2</ele>
        <time>2019-09-18T18:38:24Z</time>
      </trkpt>
      <trkpt lat="59.185978326767" lon="17.894674632435">
        <ele>121</ele>
        <time>2019-09-18T18:38:25Z</time>
      </trkpt>
      <trkpt lat="59.185936584905" lon="17.89463146565">
        <ele>121</ele>
        <time>2019-09-18T18:38:26Z</time>
      </trkpt>
      <trkpt lat="59.185900458916" lon="17.894610678538">
        <ele>121</ele>
        <time>2019-09-18T18:38:27Z</time>
      </trkpt>
      <trkpt lat="59.185867266592" lon="17.894605314122">
        <ele>121</ele>
        <time>2019-09-18T18:38:28Z</time>
      </trkpt>
      <trkpt lat="59.185832146431" lon="17.894617719334">
        <ele>121</ele>
        <time>2019-09-18T18:38:29Z</time>
      </trkpt>
      <trkpt lat="59.185790656026" lon="17.894635824238">
        <ele>121</ele>
        <time>2019-09-18T18:38:30Z</time>
      </trkpt>
      <trkpt lat="59.185745980499" lon="17.894664741793">
        <ele>120.8</ele>
        <time>2019-09-18T18:38:31Z</time>
      </trkpt>
      <trkpt lat="59.185701724067" lon="17.894694497538">
        <ele>120.8</ele>
        <time>2019-09-18T18:38:32Z</time>
      </trkpt>
      <trkpt lat="59.185648499002" lon="17.894709082044">
        <ele>120.6</ele>
        <time>2019-09-18T18:38:33Z</time>
      </trkpt>
      <trkpt lat="59.185595441575" lon="17.894705561646">
        <ele>120.4</ele>
        <time>2019-09-18T18:38:34Z</time>
      </trkpt>
      <trkpt lat="59.185552526247" lon="17.894680248308">
        <ele>120.4</ele>
        <time>2019-09-18T18:38:35Z</time>
      </trkpt>
      <trkpt lat="59.185516484077" lon="17.89463398022">
        <ele>120.4</ele>
        <time>2019-09-18T18:38:36Z</time>
      </trkpt>
      <trkpt lat="59.185481783011" lon="17.894568349943">
        <ele>120.4</ele>
        <time>2019-09-18T18:38:37Z</time>
      </trkpt>
      <trkpt lat="59.185449093601" lon="17.894489895359">
        <ele>120.4</ele>
        <time>2019-09-18T18:38:38Z</time>
      </trkpt>
      <trkpt lat="59.18541984077" lon="17.894409680576">
        <ele>120.4</ele>
        <time>2019-09-18T18:38:39Z</time>
      </trkpt>
      <trkpt lat="59.185389833568" lon="17.894325023386">
        <ele>120.2</ele>
        <time>2019-09-18T18:38:40Z</time>
      </trkpt>
      <trkpt lat="59.185363095307" lon="17.894244724784">
        <ele>120.2</ele>
        <time>2019-09-18T18:38:41Z</time>
      </trkpt>
      <trkpt lat="59.18533183082" lon="17.894177585765">
        <ele>120.2</ele>
        <time>2019-09-18T18:38:42Z</time>
      </trkpt>
      <trkpt lat="59.185296207745" lon="17.894131401496">
        <ele>120.2</ele>
        <time>2019-09-18T18:38:43Z</time>
      </trkpt>
      <trkpt lat="59.185258237738" lon="17.894091168376">
        <ele>120.4</ele>
        <time>2019-09-18T18:38:44Z</time>
      </trkpt>
      <trkpt lat="59.185215657686" lon="17.894059065699">
        <ele>120.4</ele>
        <time>2019-09-18T18:38:45Z</time>
      </trkpt>
      <trkpt lat="59.185165953019" lon="17.894033668542">
        <ele>120.4</ele>
        <time>2019-09-18T18:38:46Z</time>
      </trkpt>
      <trkpt lat="59.185116918904" lon="17.89401371962">
        <ele>120.2</ele>
        <time>2019-09-18T18:38:47Z</time>
      </trkpt>
      <trkpt lat="59.185070650816" lon="17.89399360306">
        <ele>120.2</ele>
        <time>2019-09-18T18:38:48Z</time>
      </trkpt>
      <trkpt lat="59.185027232574" lon="17.893975749613">
        <ele>120.2</ele>
        <time>2019-09-18T18:38:49Z</time>
      </trkpt>
      <trkpt lat="59.184982976142" lon="17.893956974157">
        <ele>120.2</ele>
        <time>2019-09-18T18:38:50Z</time>
      </trkpt>
      <trkpt lat="59.184947353067" lon="17.893941300004">
        <ele>120</ele>
        <time>2019-09-18T18:38:51Z</time>
      </trkpt>
      <trkpt lat="59.184947353067" lon="17.893941300004">
        <ele>120</ele>
        <time>2019-09-18T18:38:52Z</time>
      </trkpt>
      <trkpt lat="59.18489681021" lon="17.89389637302">
        <ele>120</ele>
        <time>2019-09-18T18:38:53Z</time>
      </trkpt>
      <trkpt lat="59.184876609831" lon="17.893885141274">
        <ele>120</ele>
        <time>2019-09-18T18:38:54Z</time>
      </trkpt>
      <trkpt lat="59.184859259298" lon="17.893866449637">
        <ele>120</ele>
        <time>2019-09-18T18:38:55Z</time>
      </trkpt>
      <trkpt lat="59.184843668964" lon="17.893864102705">
        <ele>120</ele>
        <time>2019-09-18T18:38:56Z</time>
      </trkpt>
      <trkpt lat="59.184821708386" lon="17.893855217891">
        <ele>120</ele>
        <time>2019-09-18T18:38:57Z</time>
      </trkpt>
      <trkpt lat="59.184805028405" lon="17.893857313366">
        <ele>120</ele>
        <time>2019-09-18T18:38:58Z</time>
      </trkpt>
      <trkpt lat="59.184795221582" lon="17.893865695266">
        <ele>120</ele>
        <time>2019-09-18T18:38:59Z</time>
      </trkpt>
      <trkpt lat="59.184795221582" lon="17.893865695266">
        <ele>120</ele>
        <time>2019-09-18T18:39:00Z</time>
      </trkpt>
      <trkpt lat="59.184761358706" lon="17.8938645218">
        <ele>119.8</ele>
        <time>2019-09-18T18:39:01Z</time>
      </trkpt>
      <trkpt lat="59.184747193295" lon="17.89387206551">
        <ele>119.8</ele>
        <time>2019-09-18T18:39:02Z</time>
      </trkpt>
      <trkpt lat="59.184793126107" lon="17.893860163212">
        <ele>119.8</ele>
        <time>2019-09-18T18:40:18Z</time>
      </trkpt>
      <trkpt lat="59.184807459156" lon="17.893867287827">
        <ele>119.8</ele>
        <time>2019-09-18T18:40:19Z</time>
      </trkpt>
      <trkpt lat="59.184822798033" lon="17.893871394958">
        <ele>119.8</ele>
        <time>2019-09-18T18:40:20Z</time>
      </trkpt>
      <trkpt lat="59.184822798033" lon="17.893871394958">
        <ele>120</ele>
        <time>2019-09-18T18:40:21Z</time>
      </trkpt>
      <trkpt lat="59.184858924022" lon="17.893883716351">
        <ele>119.8</ele>
        <time>2019-09-18T18:40:22Z</time>
      </trkpt>
      <trkpt lat="59.184875687822" lon="17.893890673328">
        <ele>119.8</ele>
        <time>2019-09-18T18:40:23Z</time>
      </trkpt>
      <trkpt lat="59.184891697251" lon="17.893902407988">
        <ele>120</ele>
        <time>2019-09-18T18:40:24Z</time>
      </trkpt>
      <trkpt lat="59.184907790499" lon="17.893925793489">
        <ele>119.8</ele>
        <time>2019-09-18T18:40:25Z</time>
      </trkpt>
      <trkpt lat="59.184923129376" lon="17.893959991641">
        <ele>119.8</ele>
        <time>2019-09-18T18:40:26Z</time>
      </trkpt>
      <trkpt lat="59.184923129376" lon="17.893959991641">
        <ele>119.8</ele>
        <time>2019-09-18T18:40:27Z</time>
      </trkpt>
      <trkpt lat="59.18496218903" lon="17.894029309954">
        <ele>119.8</ele>
        <time>2019-09-18T18:40:28Z</time>
      </trkpt>
      <trkpt lat="59.184984484884" lon="17.894069710712">
        <ele>119.8</ele>
        <time>2019-09-18T18:40:29Z</time>
      </trkpt>
      <trkpt lat="59.185006026367" lon="17.894112877497">
        <ele>119.8</ele>
        <time>2019-09-18T18:40:30Z</time>
      </trkpt>
      <trkpt lat="59.185027148755" lon="17.894161911612">
        <ele>120</ele>
        <time>2019-09-18T18:40:31Z</time>
      </trkpt>
      <trkpt lat="59.185046259487" lon="17.894215304315">
        <ele>120</ele>
        <time>2019-09-18T18:40:32Z</time>
      </trkpt>
      <trkpt lat="59.185066208409" lon="17.894264254611">
        <ele>120</ele>
        <time>2019-09-18T18:40:33Z</time>
      </trkpt>
      <trkpt lat="59.18508540296" lon="17.89430540974">
        <ele>120</ele>
        <time>2019-09-18T18:40:34Z</time>
      </trkpt>
      <trkpt lat="59.185098059629" lon="17.894349247077">
        <ele>120</ele>
        <time>2019-09-18T18:40:35Z</time>
      </trkpt>
      <trkpt lat="59.18511893056" lon="17.894401885409">
        <ele>120</ele>
        <time>2019-09-18T18:40:36Z</time>
      </trkpt>
      <trkpt lat="59.185140555862" lon="17.894453014999">
        <ele>120</ele>
        <time>2019-09-18T18:40:37Z</time>
      </trkpt>
      <trkpt lat="59.185170143969" lon="17.894496684698">
        <ele>120.2</ele>
        <time>2019-09-18T18:40:38Z</time>
      </trkpt>
      <trkpt lat="59.185198055696" lon="17.89452501552">
        <ele>120.2</ele>
        <time>2019-09-18T18:40:39Z</time>
      </trkpt>
      <trkpt lat="59.185236863893" lon="17.894558124025">
        <ele>120.2</ele>
        <time>2019-09-18T18:40:40Z</time>
      </trkpt>
      <trkpt lat="59.185281036506" lon="17.894581258069">
        <ele>120.2</ele>
        <time>2019-09-18T18:40:41Z</time>
      </trkpt>
      <trkpt lat="59.18532931625" lon="17.894583856458">
        <ele>120.2</ele>
        <time>2019-09-18T18:40:42Z</time>
      </trkpt>
      <trkpt lat="59.185370052284" lon="17.894578492042">
        <ele>120.4</ele>
        <time>2019-09-18T18:40:43Z</time>
      </trkpt>
      <trkpt lat="59.185396622907" lon="17.894556112369">
        <ele>120.6</ele>
        <time>2019-09-18T18:40:44Z</time>
      </trkpt>
      <trkpt lat="59.185422858254" lon="17.894540605854">
        <ele>120.4</ele>
        <time>2019-09-18T18:40:45Z</time>
      </trkpt>
      <trkpt lat="59.185455547664" lon="17.894533984153">
        <ele>120.6</ele>
        <time>2019-09-18T18:40:46Z</time>
      </trkpt>
      <trkpt lat="59.185488320893" lon="17.894536833999">
        <ele>120.6</ele>
        <time>2019-09-18T18:40:47Z</time>
      </trkpt>
      <trkpt lat="59.185488320893" lon="17.894536833999">
        <ele>120.6</ele>
        <time>2019-09-18T18:40:48Z</time>
      </trkpt>
      <trkpt lat="59.185574319187" lon="17.894544880623">
        <ele>120.6</ele>
        <time>2019-09-18T18:40:49Z</time>
      </trkpt>
      <trkpt lat="59.185612456832" lon="17.894550664134">
        <ele>120.6</ele>
        <time>2019-09-18T18:40:50Z</time>
      </trkpt>
      <trkpt lat="59.18565285759" lon="17.894566254468">
        <ele>120.6</ele>
        <time>2019-09-18T18:40:51Z</time>
      </trkpt>
      <trkpt lat="59.185700550601" lon="17.894586371028">
        <ele>120.4</ele>
        <time>2019-09-18T18:40:52Z</time>
      </trkpt>
      <trkpt lat="59.185742963015" lon="17.894608163968">
        <ele>120.4</ele>
        <time>2019-09-18T18:40:53Z</time>
      </trkpt>
      <trkpt lat="59.185778669909" lon="17.89463314203">
        <ele>120.6</ele>
        <time>2019-09-18T18:40:54Z</time>
      </trkpt>
      <trkpt lat="59.185809682939" lon="17.89465744954">
        <ele>120.6</ele>
        <time>2019-09-18T18:40:55Z</time>
      </trkpt>
      <trkpt lat="59.185841953254" lon="17.89467253696">
        <ele>120.6</ele>
        <time>2019-09-18T18:40:56Z</time>
      </trkpt>
      <trkpt lat="59.185877995424" lon="17.894689133122">
        <ele>120.6</ele>
        <time>2019-09-18T18:40:57Z</time>
      </trkpt>
      <trkpt lat="59.185909930463" lon="17.894713440632">
        <ele>120.6</ele>
        <time>2019-09-18T18:40:58Z</time>
      </trkpt>
      <trkpt lat="59.185909930463" lon="17.894713440632">
        <ele>120.6</ele>
        <time>2019-09-18T18:40:59Z</time>
      </trkpt>
      <trkpt lat="59.1859621497" lon="17.894769683181">
        <ele>120.6</ele>
        <time>2019-09-18T18:41:00Z</time>
      </trkpt>
      <trkpt lat="59.185981930984" lon="17.89480580917">
        <ele>120.6</ele>
        <time>2019-09-18T18:41:01Z</time>
      </trkpt>
      <trkpt lat="59.185981930984" lon="17.89480580917">
        <ele>120.8</ele>
        <time>2019-09-18T18:41:02Z</time>
      </trkpt>
      <trkpt lat="59.18603004309" lon="17.894860459158">
        <ele>120.8</ele>
        <time>2019-09-18T18:41:03Z</time>
      </trkpt>
      <trkpt lat="59.186057870998" lon="17.894893400025">
        <ele>120.8</ele>
        <time>2019-09-18T18:41:04Z</time>
      </trkpt>
      <trkpt lat="59.186078825748" lon="17.894923658684">
        <ele>120.8</ele>
        <time>2019-09-18T18:41:05Z</time>
      </trkpt>
      <trkpt lat="59.186078825748" lon="17.894923658684">
        <ele>120.8</ele>
        <time>2019-09-18T18:41:06Z</time>
      </trkpt>
      <trkpt lat="59.186113442995" lon="17.894977302844">
        <ele>121</ele>
        <time>2019-09-18T18:41:07Z</time>
      </trkpt>
      <trkpt lat="59.186127608406" lon="17.895006723313">
        <ele>121</ele>
        <time>2019-09-18T18:41:08Z</time>
      </trkpt>
      <trkpt lat="59.186151329183" lon="17.895043352216">
        <ele>121.2</ele>
        <time>2019-09-18T18:41:09Z</time>
      </trkpt>
      <trkpt lat="59.186168931173" lon="17.895073275599">
        <ele>121.2</ele>
        <time>2019-09-18T18:41:10Z</time>
      </trkpt>
      <trkpt lat="59.186182426032" lon="17.895098840394">
        <ele>121.2</ele>
        <time>2019-09-18T18:41:11Z</time>
      </trkpt>
      <trkpt lat="59.186204554248" lon="17.895126500664">
        <ele>121.2</ele>
        <time>2019-09-18T18:41:12Z</time>
      </trkpt>
      <trkpt lat="59.186222742971" lon="17.895152568373">
        <ele>121.2</ele>
        <time>2019-09-18T18:41:13Z</time>
      </trkpt>
      <trkpt lat="59.186235902554" lon="17.895173104028">
        <ele>121.2</ele>
        <time>2019-09-18T18:41:14Z</time>
      </trkpt>
      <trkpt lat="59.186250570879" lon="17.895183665222">
        <ele>121.4</ele>
        <time>2019-09-18T18:41:15Z</time>
      </trkpt>
      <trkpt lat="59.186257695494" lon="17.895195651339">
        <ele>121.4</ele>
        <time>2019-09-18T18:41:16Z</time>
      </trkpt>
      <trkpt lat="59.186319553916" lon="17.895296820872">
        <ele>121.2</ele>
        <time>2019-09-18T18:44:51Z</time>
      </trkpt>
      <trkpt lat="59.186331037119" lon="17.895315093414">
        <ele>121.2</ele>
        <time>2019-09-18T18:44:52Z</time>
      </trkpt>
      <trkpt lat="59.186341598313" lon="17.895342753684">
        <ele>121.2</ele>
        <time>2019-09-18T18:44:53Z</time>
      </trkpt>
      <trkpt lat="59.186341598313" lon="17.895342753684">
        <ele>121.4</ele>
        <time>2019-09-18T18:44:54Z</time>
      </trkpt>
      <trkpt lat="59.186382669623" lon="17.895436547145">
        <ele>121.4</ele>
        <time>2019-09-18T18:44:55Z</time>
      </trkpt>
      <trkpt lat="59.186406893314" lon="17.895501171594">
        <ele>121.2</ele>
        <time>2019-09-18T18:44:56Z</time>
      </trkpt>
      <trkpt lat="59.186432625747" lon="17.895581470196">
        <ele>121.2</ele>
        <time>2019-09-18T18:44:57Z</time>
      </trkpt>
      <trkpt lat="59.186464476967" lon="17.895676940037">
        <ele>121.2</ele>
        <time>2019-09-18T18:44:58Z</time>
      </trkpt>
      <trkpt lat="59.186499764766" lon="17.895766877824">
        <ele>121.2</ele>
        <time>2019-09-18T18:44:59Z</time>
      </trkpt>
      <trkpt lat="59.186537818592" lon="17.895841644372">
        <ele>121.2</ele>
        <time>2019-09-18T18:45:00Z</time>
      </trkpt>
      <trkpt lat="59.186572854934" lon="17.895899144206">
        <ele>121.2</ele>
        <time>2019-09-18T18:45:01Z</time>
      </trkpt>
      <trkpt lat="59.186600096109" lon="17.895940131697">
        <ele>121.2</ele>
        <time>2019-09-18T18:45:02Z</time>
      </trkpt>
      <trkpt lat="59.186615015891" lon="17.895975587134">
        <ele>121.2</ele>
        <time>2019-09-18T18:45:03Z</time>
      </trkpt>
      <trkpt lat="59.186621218497" lon="17.896007522173">
        <ele>121.2</ele>
        <time>2019-09-18T18:45:04Z</time>
      </trkpt>
      <trkpt lat="59.186621218497" lon="17.896007522173">
        <ele>121.2</ele>
        <time>2019-09-18T18:45:05Z</time>
      </trkpt>
      <trkpt lat="59.186646196559" lon="17.896111876828">
        <ele>121.2</ele>
        <time>2019-09-18T18:45:08Z</time>
      </trkpt>
      <trkpt lat="59.186641335057" lon="17.89613434032">
        <ele>121.2</ele>
        <time>2019-09-18T18:45:09Z</time>
      </trkpt>
      <trkpt lat="59.186634964813" lon="17.896161246219">
        <ele>121.2</ele>
        <time>2019-09-18T18:45:10Z</time>
      </trkpt>
      <trkpt lat="59.186621637592" lon="17.896191840154">
        <ele>121</ele>
        <time>2019-09-18T18:45:11Z</time>
      </trkpt>
      <trkpt lat="59.186604538516" lon="17.896217069673">
        <ele>121</ele>
        <time>2019-09-18T18:45:12Z</time>
      </trkpt>
      <trkpt lat="59.186585427784" lon="17.896239365527">
        <ele>121</ele>
        <time>2019-09-18T18:45:13Z</time>
      </trkpt>
      <trkpt lat="59.186568915441" lon="17.896269624186">
        <ele>121</ele>
        <time>2019-09-18T18:45:14Z</time>
      </trkpt>
      <trkpt lat="59.186554498573" lon="17.89630616927">
        <ele>121</ele>
        <time>2019-09-18T18:45:15Z</time>
      </trkpt>
      <trkpt lat="59.186533627642" lon="17.896340870336">
        <ele>121</ele>
        <time>2019-09-18T18:45:16Z</time>
      </trkpt>
      <trkpt lat="59.186533627642" lon="17.896340870336">
        <ele>121</ele>
        <time>2019-09-18T18:45:17Z</time>
      </trkpt>
      <trkpt lat="59.186494903264" lon="17.896393508668">
        <ele>121</ele>
        <time>2019-09-18T18:45:18Z</time>
      </trkpt>
      <trkpt lat="59.18648601845" lon="17.8964126194">
        <ele>121</ele>
        <time>2019-09-18T18:45:19Z</time>
      </trkpt>
      <trkpt lat="59.186478893835" lon="17.896437681281">
        <ele>121</ele>
        <time>2019-09-18T18:45:20Z</time>
      </trkpt>
      <trkpt lat="59.186464812243" lon="17.896447236647">
        <ele>120.8</ele>
        <time>2019-09-18T18:45:21Z</time>
      </trkpt>
      <trkpt lat="59.186445701511" lon="17.896454445081">
        <ele>120.6</ele>
        <time>2019-09-18T18:45:22Z</time>
      </trkpt>
      <trkpt lat="59.186419466164" lon="17.896462826981">
        <ele>120.4</ele>
        <time>2019-09-18T18:45:23Z</time>
      </trkpt>
      <trkpt lat="59.186392727903" lon="17.896481853894">
        <ele>120.4</ele>
        <time>2019-09-18T18:45:24Z</time>
      </trkpt>
      <trkpt lat="59.186365235271" lon="17.896504904119">
        <ele>120.4</ele>
        <time>2019-09-18T18:45:25Z</time>
      </trkpt>
      <trkpt lat="59.186332126766" lon="17.896527283792">
        <ele>120.2</ele>
        <time>2019-09-18T18:45:26Z</time>
      </trkpt>
      <trkpt lat="59.186332126766" lon="17.896527283792">
        <ele>120.2</ele>
        <time>2019-09-18T18:45:27Z</time>
      </trkpt>
      <trkpt lat="59.186279488434" lon="17.896560811392">
        <ele>120.2</ele>
        <time>2019-09-18T18:45:28Z</time>
      </trkpt>
      <trkpt lat="59.186255097105" lon="17.896579000115">
        <ele>120.2</ele>
        <time>2019-09-18T18:45:29Z</time>
      </trkpt>
      <trkpt lat="59.186255097105" lon="17.896579000115">
        <ele>120.2</ele>
        <time>2019-09-18T18:45:30Z</time>
      </trkpt>
      <trkpt lat="59.186218468202" lon="17.896608672041">
        <ele>120.2</ele>
        <time>2019-09-18T18:45:31Z</time>
      </trkpt>
      <trkpt lat="59.186201285307" lon="17.896621747805">
        <ele>120.2</ele>
        <time>2019-09-18T18:45:32Z</time>
      </trkpt>
      <trkpt lat="59.186201285307" lon="17.896621747805">
        <ele>120.2</ele>
        <time>2019-09-18T18:45:33Z</time>
      </trkpt>
      <trkpt lat="59.186162728567" lon="17.896651419731">
        <ele>120.4</ele>
        <time>2019-09-18T18:45:34Z</time>
      </trkpt>
      <trkpt lat="59.186137918143" lon="17.896668854083">
        <ele>120.4</ele>
        <time>2019-09-18T18:45:35Z</time>
      </trkpt>
      <trkpt lat="59.186113526814" lon="17.89668670753">
        <ele>120.4</ele>
        <time>2019-09-18T18:45:36Z</time>
      </trkpt>
      <trkpt lat="59.186087459105" lon="17.896716630913">
        <ele>120.4</ele>
        <time>2019-09-18T18:45:37Z</time>
      </trkpt>
      <trkpt lat="59.186087459105" lon="17.896716630913">
        <ele>120.4</ele>
        <time>2019-09-18T18:45:38Z</time>
      </trkpt>
      <trkpt lat="59.186030629823" lon="17.896769520702">
        <ele>120.4</ele>
        <time>2019-09-18T18:45:39Z</time>
      </trkpt>
      <trkpt lat="59.186004729752" lon="17.896795085497">
        <ele>120.4</ele>
        <time>2019-09-18T18:45:40Z</time>
      </trkpt>
      <trkpt lat="59.185978242948" lon="17.896817046075">
        <ele>120.4</ele>
        <time>2019-09-18T18:45:41Z</time>
      </trkpt>
      <trkpt lat="59.185951001773" lon="17.896838336101">
        <ele>120.4</ele>
        <time>2019-09-18T18:45:42Z</time>
      </trkpt>
      <trkpt lat="59.185927197177" lon="17.896856441005">
        <ele>120.4</ele>
        <time>2019-09-18T18:45:43Z</time>
      </trkpt>
      <trkpt lat="59.185901213287" lon="17.896876473746">
        <ele>120.4</ele>
        <time>2019-09-18T18:45:44Z</time>
      </trkpt>
      <trkpt lat="59.185877995424" lon="17.896888543682">
        <ele>120.6</ele>
        <time>2019-09-18T18:45:45Z</time>
      </trkpt>
      <trkpt lat="59.185847485308" lon="17.896889884786">
        <ele>120.4</ele>
        <time>2019-09-18T18:45:46Z</time>
      </trkpt>
      <trkpt lat="59.185818735391" lon="17.896871025511">
        <ele>120.4</ele>
        <time>2019-09-18T18:45:47Z</time>
      </trkpt>
      <trkpt lat="59.185787219447" lon="17.896839761024">
        <ele>120.4</ele>
        <time>2019-09-18T18:45:48Z</time>
      </trkpt>
      <trkpt lat="59.185754865313" lon="17.896805395234">
        <ele>120.4</ele>
        <time>2019-09-18T18:45:49Z</time>
      </trkpt>
      <trkpt lat="59.185723684645" lon="17.896770191254">
        <ele>120.4</ele>
        <time>2019-09-18T18:45:50Z</time>
      </trkpt>
      <trkpt lat="59.185723684645" lon="17.896770191254">
        <ele>120.4</ele>
        <time>2019-09-18T18:45:51Z</time>
      </trkpt>
      <trkpt lat="59.185641374387" lon="17.89668419296">
        <ele>120.2</ele>
        <time>2019-09-18T18:45:53Z</time>
      </trkpt>
      <trkpt lat="59.185618407981" lon="17.896662232382">
        <ele>120.2</ele>
        <time>2019-09-18T18:45:54Z</time>
      </trkpt>
      <trkpt lat="59.185596195946" lon="17.896639182157">
        <ele>120.2</ele>
        <time>2019-09-18T18:45:55Z</time>
      </trkpt>
      <trkpt lat="59.185573564816" lon="17.896613701181">
        <ele>120.2</ele>
        <time>2019-09-18T18:45:56Z</time>
      </trkpt>
      <trkpt lat="59.185551017505" lon="17.896588806938">
        <ele>120.2</ele>
        <time>2019-09-18T18:45:57Z</time>
      </trkpt>
      <trkpt lat="59.18553048185" lon="17.896563661238">
        <ele>120.2</ele>
        <time>2019-09-18T18:45:58Z</time>
      </trkpt>
      <trkpt lat="59.185509443281" lon="17.896543544678">
        <ele>120.2</ele>
        <time>2019-09-18T18:45:59Z</time>
      </trkpt>
      <trkpt lat="59.185493098576" lon="17.896525104498">
        <ele>120.4</ele>
        <time>2019-09-18T18:46:00Z</time>
      </trkpt>
      <trkpt lat="59.185477256785" lon="17.896505909947">
        <ele>120.4</ele>
        <time>2019-09-18T18:46:01Z</time>
      </trkpt>
      <trkpt lat="59.185460157709" lon="17.896483781731">
        <ele>120.4</ele>
        <time>2019-09-18T18:46:02Z</time>
      </trkpt>
      <trkpt lat="59.185460157709" lon="17.896483781731">
        <ele>120.4</ele>
        <time>2019-09-18T18:46:03Z</time>
      </trkpt>
      <trkpt lat="59.185449261239" lon="17.896437010729">
        <ele>120.4</ele>
        <time>2019-09-18T18:46:04Z</time>
      </trkpt>
      <trkpt lat="59.18545755932" lon="17.896429299381">
        <ele>120.6</ele>
        <time>2019-09-18T18:46:05Z</time>
      </trkpt>
      <trkpt lat="59.185469545437" lon="17.896420498386">
        <ele>120.6</ele>
        <time>2019-09-18T18:46:06Z</time>
      </trkpt>
      <trkpt lat="59.185483878486" lon="17.896411278296">
        <ele>120.6</ele>
        <time>2019-09-18T18:46:07Z</time>
      </trkpt>
      <trkpt lat="59.185499049725" lon="17.896404069862">
        <ele>120.6</ele>
        <time>2019-09-18T18:46:08Z</time>
      </trkpt>
      <trkpt lat="59.185517992819" lon="17.896394346858">
        <ele>120.6</ele>
        <time>2019-09-18T18:46:09Z</time>
      </trkpt>
      <trkpt lat="59.185538444655" lon="17.896382612198">
        <ele>120.6</ele>
        <time>2019-09-18T18:46:10Z</time>
      </trkpt>
      <trkpt lat="59.18555898031" lon="17.89637406266">
        <ele>120.6</ele>
        <time>2019-09-18T18:46:11Z</time>
      </trkpt>
      <trkpt lat="59.185575492653" lon="17.896368949701">
        <ele>120.6</ele>
        <time>2019-09-18T18:46:12Z</time>
      </trkpt>
      <trkpt lat="59.185588149322" lon="17.89636568076">
        <ele>120.6</ele>
        <time>2019-09-18T18:46:13Z</time>
      </trkpt>
      <trkpt lat="59.185600554534" lon="17.896368865882">
        <ele>120.6</ele>
        <time>2019-09-18T18:46:14Z</time>
      </trkpt>
      <trkpt lat="59.185615809592" lon="17.896378505067">
        <ele>120.4</ele>
        <time>2019-09-18T18:46:15Z</time>
      </trkpt>
      <trkpt lat="59.185631148469" lon="17.896388982442">
        <ele>120.4</ele>
        <time>2019-09-18T18:46:16Z</time>
      </trkpt>
      <trkpt lat="59.185651684124" lon="17.896394933591">
        <ele>120.4</ele>
        <time>2019-09-18T18:46:17Z</time>
      </trkpt>
      <trkpt lat="59.185674566711" lon="17.896395185048">
        <ele>120.4</ele>
        <time>2019-09-18T18:46:18Z</time>
      </trkpt>
      <trkpt lat="59.185697030203" lon="17.896392335202">
        <ele>120.4</ele>
        <time>2019-09-18T18:46:19Z</time>
      </trkpt>
      <trkpt lat="59.185721002437" lon="17.896380349085">
        <ele>120.4</ele>
        <time>2019-09-18T18:46:20Z</time>
      </trkpt>
      <trkpt lat="59.185737933875" lon="17.896367776235">
        <ele>120.4</ele>
        <time>2019-09-18T18:46:21Z</time>
      </trkpt>
      <trkpt lat="59.185754697675" lon="17.896347911132">
        <ele>120.4</ele>
        <time>2019-09-18T18:46:22Z</time>
      </trkpt>
      <trkpt lat="59.185782441764" lon="17.896312623333">
        <ele>120.4</ele>
        <time>2019-09-18T18:46:23Z</time>
      </trkpt>
      <trkpt lat="59.18580708455" lon="17.896271887299">
        <ele>120.4</ele>
        <time>2019-09-18T18:46:24Z</time>
      </trkpt>
      <trkpt lat="59.185829464223" lon="17.896231402722">
        <ele>120.4</ele>
        <time>2019-09-18T18:46:25Z</time>
      </trkpt>
      <trkpt lat="59.185847569127" lon="17.896187816842">
        <ele>120.4</ele>
        <time>2019-09-18T18:46:26Z</time>
      </trkpt>
      <trkpt lat="59.185868104782" lon="17.896149595378">
        <ele>120.4</ele>
        <time>2019-09-18T18:46:27Z</time>
      </trkpt>
      <trkpt lat="59.185889143351" lon="17.896118330891">
        <ele>120.4</ele>
        <time>2019-09-18T18:46:28Z</time>
      </trkpt>
      <trkpt lat="59.185889143351" lon="17.896118330891">
        <ele>120.4</ele>
        <time>2019-09-18T18:46:29Z</time>
      </trkpt>
      <trkpt lat="59.185925353159" lon="17.896065524921">
        <ele>120.4</ele>
        <time>2019-09-18T18:46:30Z</time>
      </trkpt>
      <trkpt lat="59.185944966805" lon="17.896042223239">
        <ele>120.4</ele>
        <time>2019-09-18T18:46:31Z</time>
      </trkpt>
      <trkpt lat="59.185962401157" lon="17.896012551313">
        <ele>120.4</ele>
        <time>2019-09-18T18:46:32Z</time>
      </trkpt>
      <trkpt lat="59.185962401157" lon="17.896012551313">
        <ele>120.6</ele>
        <time>2019-09-18T18:46:33Z</time>
      </trkpt>
      <trkpt lat="59.186004562114" lon="17.895942646267">
        <ele>120.6</ele>
        <time>2019-09-18T18:46:34Z</time>
      </trkpt>
      <trkpt lat="59.186029875452" lon="17.895896881093">
        <ele>120.6</ele>
        <time>2019-09-18T18:46:35Z</time>
      </trkpt>
      <trkpt lat="59.186029875452" lon="17.895896881093">
        <ele>120.4</ele>
        <time>2019-09-18T18:46:36Z</time>
      </trkpt>
      <trkpt lat="59.186074634798" lon="17.895811553351">
        <ele>120.4</ele>
        <time>2019-09-18T18:46:37Z</time>
      </trkpt>
      <trkpt lat="59.186074634798" lon="17.895811553351">
        <ele>120.4</ele>
        <time>2019-09-18T18:46:38Z</time>
      </trkpt>
      <trkpt lat="59.186121657257" lon="17.895727901989">
        <ele>120.4</ele>
        <time>2019-09-18T18:46:39Z</time>
      </trkpt>
      <trkpt lat="59.186150071898" lon="17.895685741032">
        <ele>120.4</ele>
        <time>2019-09-18T18:46:40Z</time>
      </trkpt>
      <trkpt lat="59.186182090756" lon="17.895648776853">
        <ele>120.4</ele>
        <time>2019-09-18T18:46:41Z</time>
      </trkpt>
      <trkpt lat="59.186204302791" lon="17.89561130976">
        <ele>120.4</ele>
        <time>2019-09-18T18:46:42Z</time>
      </trkpt>
      <trkpt lat="59.186226933921" lon="17.895582559843">
        <ele>120.4</ele>
        <time>2019-09-18T18:46:43Z</time>
      </trkpt>
      <trkpt lat="59.186247721033" lon="17.895541572352">
        <ele>120.4</ele>
        <time>2019-09-18T18:46:44Z</time>
      </trkpt>
      <trkpt lat="59.186247721033" lon="17.895541572352">
        <ele>120.4</ele>
        <time>2019-09-18T18:46:45Z</time>
      </trkpt>
      <trkpt lat="59.186288624705" lon="17.895472924591">
        <ele>120.4</ele>
        <time>2019-09-18T18:46:46Z</time>
      </trkpt>
      <trkpt lat="59.186309579455" lon="17.895451550746">
        <ele>120.4</ele>
        <time>2019-09-18T18:46:47Z</time>
      </trkpt>
      <trkpt lat="59.186329612196" lon="17.895452808031">
        <ele>120.4</ele>
        <time>2019-09-18T18:46:48Z</time>
      </trkpt>
      <trkpt lat="59.186353165335" lon="17.895469152736">
        <ele>120.4</ele>
        <time>2019-09-18T18:46:49Z</time>
      </trkpt>
      <trkpt lat="59.186373030438" lon="17.89549983049">
        <ele>120.4</ele>
        <time>2019-09-18T18:46:50Z</time>
      </trkpt>
      <trkpt lat="59.186402702364" lon="17.89554760732">
        <ele>120.4</ele>
        <time>2019-09-18T18:46:51Z</time>
      </trkpt>
      <trkpt lat="59.186432122833" lon="17.89560376605">
        <ele>120.4</ele>
        <time>2019-09-18T18:46:52Z</time>
      </trkpt>
      <trkpt lat="59.186454502506" lon="17.895655314735">
        <ele>120.4</ele>
        <time>2019-09-18T18:46:53Z</time>
      </trkpt>
      <trkpt lat="59.18647679836" lon="17.895703259203">
        <ele>120.4</ele>
        <time>2019-09-18T18:46:54Z</time>
      </trkpt>
      <trkpt lat="59.186500519137" lon="17.895760088485">
        <ele>120.6</ele>
        <time>2019-09-18T18:46:55Z</time>
      </trkpt>
      <trkpt lat="59.186531448348" lon="17.895824964391">
        <ele>120.6</ele>
        <time>2019-09-18T18:46:56Z</time>
      </trkpt>
      <trkpt lat="59.186558773342" lon="17.895872992678">
        <ele>120.8</ele>
        <time>2019-09-18T18:46:57Z</time>
      </trkpt>
      <trkpt lat="59.18658660125" lon="17.895905933545">
        <ele>120.8</ele>
        <time>2019-09-18T18:46:58Z</time>
      </trkpt>
      <trkpt lat="59.186609064742" lon="17.895936359842">
        <ele>120.8</ele>
        <time>2019-09-18T18:46:59Z</time>
      </trkpt>
      <trkpt lat="59.186628259293" lon="17.895962427551">
        <ele>121</ele>
        <time>2019-09-18T18:47:00Z</time>
      </trkpt>
      <trkpt lat="59.18664443636" lon="17.895984136672">
        <ele>121</ele>
        <time>2019-09-18T18:47:01Z</time>
      </trkpt>
      <trkpt lat="59.18664443636" lon="17.895984136672">
        <ele>121.2</ele>
        <time>2019-09-18T18:47:02Z</time>
      </trkpt>
      <trkpt lat="59.186669162965" lon="17.896008360363">
        <ele>121.2</ele>
        <time>2019-09-18T18:47:03Z</time>
      </trkpt>
      <trkpt lat="59.186683915109" lon="17.896021771403">
        <ele>121.4</ele>
        <time>2019-09-18T18:47:04Z</time>
      </trkpt>
      <trkpt lat="59.18669305138" lon="17.896031075312">
        <ele>121.4</ele>
        <time>2019-09-18T18:47:05Z</time>
      </trkpt>
      <trkpt lat="59.186702522927" lon="17.896037613194">
        <ele>121.4</ele>
        <time>2019-09-18T18:47:06Z</time>
      </trkpt>
      <trkpt lat="59.186711407741" lon="17.896046833284">
        <ele>121.6</ele>
        <time>2019-09-18T18:47:07Z</time>
      </trkpt>
      <trkpt lat="59.186870663841" lon="17.896094693933">
        <ele>123.6</ele>
        <time>2019-09-18T18:51:29Z</time>
      </trkpt>
      <trkpt lat="59.186893881704" lon="17.896090670621">
        <ele>123.8</ele>
        <time>2019-09-18T18:51:30Z</time>
      </trkpt>
      <trkpt lat="59.186923218354" lon="17.896090335345">
        <ele>123.6</ele>
        <time>2019-09-18T18:51:31Z</time>
      </trkpt>
      <trkpt lat="59.186923218354" lon="17.896090335345">
        <ele>123.6</ele>
        <time>2019-09-18T18:51:32Z</time>
      </trkpt>
      <trkpt lat="59.186987507527" lon="17.896082707816">
        <ele>123.6</ele>
        <time>2019-09-18T18:51:33Z</time>
      </trkpt>
      <trkpt lat="59.187020699851" lon="17.896080193246">
        <ele>123.6</ele>
        <time>2019-09-18T18:51:34Z</time>
      </trkpt>
      <trkpt lat="59.187049868863" lon="17.896076421391">
        <ele>123.6</ele>
        <time>2019-09-18T18:51:35Z</time>
      </trkpt>
      <trkpt lat="59.187077612952" lon="17.896071811346">
        <ele>123.4</ele>
        <time>2019-09-18T18:51:36Z</time>
      </trkpt>
      <trkpt lat="59.187098819159" lon="17.896066111654">
        <ele>123.4</ele>
        <time>2019-09-18T18:51:37Z</time>
      </trkpt>
      <trkpt lat="59.187125473601" lon="17.896059992867">
        <ele>123.4</ele>
        <time>2019-09-18T18:51:38Z</time>
      </trkpt>
      <trkpt lat="59.187157911554" lon="17.896046162732">
        <ele>123.4</ele>
        <time>2019-09-18T18:51:39Z</time>
      </trkpt>
      <trkpt lat="59.187191858249" lon="17.896033673701">
        <ele>123.4</ele>
        <time>2019-09-18T18:51:40Z</time>
      </trkpt>
      <trkpt lat="59.187234438301" lon="17.896019256833">
        <ele>123.2</ele>
        <time>2019-09-18T18:51:41Z</time>
      </trkpt>
      <trkpt lat="59.187276683077" lon="17.896006181069">
        <ele>123.2</ele>
        <time>2019-09-18T18:51:42Z</time>
      </trkpt>
      <trkpt lat="59.187324795183" lon="17.895997547712">
        <ele>123</ele>
        <time>2019-09-18T18:51:43Z</time>
      </trkpt>
      <trkpt lat="59.187324795183" lon="17.895997547712">
        <ele>123</ele>
        <time>2019-09-18T18:51:44Z</time>
      </trkpt>
      <trkpt lat="59.187412302219" lon="17.895995284599">
        <ele>123</ele>
        <time>2019-09-18T18:51:45Z</time>
      </trkpt>
      <trkpt lat="59.187451026597" lon="17.896002241576">
        <ele>123</ele>
        <time>2019-09-18T18:51:46Z</time>
      </trkpt>
      <trkpt lat="59.187451026597" lon="17.896002241576">
        <ele>122.8</ele>
        <time>2019-09-18T18:51:47Z</time>
      </trkpt>
      <trkpt lat="59.187528978267" lon="17.896014898245">
        <ele>122.8</ele>
        <time>2019-09-18T18:51:48Z</time>
      </trkpt>
      <trkpt lat="59.187568792292" lon="17.896014395331">
        <ele>122.6</ele>
        <time>2019-09-18T18:51:49Z</time>
      </trkpt>
      <trkpt lat="59.187568792292" lon="17.896014395331">
        <ele>122.4</ele>
        <time>2019-09-18T18:51:50Z</time>
      </trkpt>
      <trkpt lat="59.18764607341" lon="17.89601447915">
        <ele>122.4</ele>
        <time>2019-09-18T18:51:51Z</time>
      </trkpt>
      <trkpt lat="59.187684797788" lon="17.896012718951">
        <ele>122.4</ele>
        <time>2019-09-18T18:51:52Z</time>
      </trkpt>
      <trkpt lat="59.187714888809" lon="17.896013808598">
        <ele>122.4</ele>
        <time>2019-09-18T18:51:53Z</time>
      </trkpt>
      <trkpt lat="59.187748751685" lon="17.896015484978">
        <ele>122.4</ele>
        <time>2019-09-18T18:51:54Z</time>
      </trkpt>
      <trkpt lat="59.187777585421" lon="17.896014562969">
        <ele>122.4</ele>
        <time>2019-09-18T18:51:55Z</time>
      </trkpt>
      <trkpt lat="59.187810107193" lon="17.896014311512">
        <ele>122.4</ele>
        <time>2019-09-18T18:51:56Z</time>
      </trkpt>
      <trkpt lat="59.18784304806" lon="17.896011210209">
        <ele>122.4</ele>
        <time>2019-09-18T18:51:57Z</time>
      </trkpt>
      <trkpt lat="59.187877665307" lon="17.896003331223">
        <ele>122.4</ele>
        <time>2019-09-18T18:51:58Z</time>
      </trkpt>
      <trkpt lat="59.187905241758" lon="17.895999224092">
        <ele>122.4</ele>
        <time>2019-09-18T18:51:59Z</time>
      </trkpt>
      <trkpt lat="59.187930890372" lon="17.895995619875">
        <ele>122.4</ele>
        <time>2019-09-18T18:52:00Z</time>
      </trkpt>
      <trkpt lat="59.187967603094" lon="17.895993859676">
        <ele>122.4</ele>
        <time>2019-09-18T18:52:01Z</time>
      </trkpt>
      <trkpt lat="59.18799727502" lon="17.895978604618">
        <ele>122.4</ele>
        <time>2019-09-18T18:52:02Z</time>
      </trkpt>
      <trkpt lat="59.188032562819" lon="17.895963098103">
        <ele>122.4</ele>
        <time>2019-09-18T18:52:03Z</time>
      </trkpt>
      <trkpt lat="59.188068604989" lon="17.895941305163">
        <ele>122.4</ele>
        <time>2019-09-18T18:52:04Z</time>
      </trkpt>
      <trkpt lat="59.188101042942" lon="17.89591054359">
        <ele>122.6</ele>
        <time>2019-09-18T18:52:05Z</time>
      </trkpt>
      <trkpt lat="59.188124931357" lon="17.895876093981">
        <ele>122.6</ele>
        <time>2019-09-18T18:52:06Z</time>
      </trkpt>
      <trkpt lat="59.188152591627" lon="17.895846757331">
        <ele>122.8</ele>
        <time>2019-09-18T18:52:07Z</time>
      </trkpt>
      <trkpt lat="59.188183856114" lon="17.895819432337">
        <ele>122.8</ele>
        <time>2019-09-18T18:52:08Z</time>
      </trkpt>
      <trkpt lat="59.188210426737" lon="17.895787916393">
        <ele>123</ele>
        <time>2019-09-18T18:52:09Z</time>
      </trkpt>
      <trkpt lat="59.188240098663" lon="17.895755562259">
        <ele>123</ele>
        <time>2019-09-18T18:52:10Z</time>
      </trkpt>
      <trkpt lat="59.188271111693" lon="17.895724297772">
        <ele>123</ele>
        <time>2019-09-18T18:52:11Z</time>
      </trkpt>
      <trkpt lat="59.188298939601" lon="17.895692530371">
        <ele>123</ele>
        <time>2019-09-18T18:52:12Z</time>
      </trkpt>
      <trkpt lat="59.188333892124" lon="17.8956498665">
        <ele>123</ele>
        <time>2019-09-18T18:52:13Z</time>
      </trkpt>
      <trkpt lat="59.188355098331" lon="17.895608543733">
        <ele>123</ele>
        <time>2019-09-18T18:52:14Z</time>
      </trkpt>
      <trkpt lat="59.188373203235" lon="17.895579961454">
        <ele>123.2</ele>
        <time>2019-09-18T18:52:15Z</time>
      </trkpt>
      <trkpt lat="59.188393319795" lon="17.895553307012">
        <ele>123.2</ele>
        <time>2019-09-18T18:52:16Z</time>
      </trkpt>
      <trkpt lat="59.188414609821" lon="17.895525730561">
        <ele>123.4</ele>
        <time>2019-09-18T18:52:17Z</time>
      </trkpt>
      <trkpt lat="59.188436654218" lon="17.895490358943">
        <ele>123.4</ele>
        <time>2019-09-18T18:52:18Z</time>
      </trkpt>
      <trkpt lat="59.188463979212" lon="17.895454903506">
        <ele>123.4</ele>
        <time>2019-09-18T18:52:19Z</time>
      </trkpt>
      <trkpt lat="59.188491388025" lon="17.895425650675">
        <ele>123.4</ele>
        <time>2019-09-18T18:52:20Z</time>
      </trkpt>
      <trkpt lat="59.188509325291" lon="17.89540260045">
        <ele>123.4</ele>
        <time>2019-09-18T18:52:21Z</time>
      </trkpt>
      <trkpt lat="59.188523825978" lon="17.895386842478">
        <ele>123.4</ele>
        <time>2019-09-18T18:52:22Z</time>
      </trkpt>
      <trkpt lat="59.188544110176" lon="17.895363792253">
        <ele>123.6</ele>
        <time>2019-09-18T18:52:23Z</time>
      </trkpt>
      <trkpt lat="59.188563220908" lon="17.895335042336">
        <ele>123.6</ele>
        <time>2019-09-18T18:52:24Z</time>
      </trkpt>
      <trkpt lat="59.188579481794" lon="17.895298078157">
        <ele>123.6</ele>
        <time>2019-09-18T18:52:25Z</time>
      </trkpt>
      <trkpt lat="59.188596664689" lon="17.895267819498">
        <ele>124</ele>
        <time>2019-09-18T18:52:26Z</time>
      </trkpt>
      <trkpt lat="59.188611584471" lon="17.895242925255">
        <ele>124.2</ele>
        <time>2019-09-18T18:52:27Z</time>
      </trkpt>
      <trkpt lat="59.188623486769" lon="17.895213253329">
        <ele>124.2</ele>
        <time>2019-09-18T18:52:28Z</time>
      </trkpt>
      <trkpt lat="59.188638155094" lon="17.895187688534">
        <ele>124.2</ele>
        <time>2019-09-18T18:52:29Z</time>
      </trkpt>
      <trkpt lat="59.188652488143" lon="17.895160531178">
        <ele>124.4</ele>
        <time>2019-09-18T18:52:30Z</time>
      </trkpt>
      <trkpt lat="59.188665144812" lon="17.895135972211">
        <ele>124.4</ele>
        <time>2019-09-18T18:52:31Z</time>
      </trkpt>
      <trkpt lat="59.188676544196" lon="17.895114011633">
        <ele>124.4</ele>
        <time>2019-09-18T18:52:32Z</time>
      </trkpt>
      <trkpt lat="59.188676544196" lon="17.895114011633">
        <ele>124.6</ele>
        <time>2019-09-18T18:52:33Z</time>
      </trkpt>
      <trkpt lat="59.188709568882" lon="17.895052069392">
        <ele>124.6</ele>
        <time>2019-09-18T18:52:34Z</time>
      </trkpt>
      <trkpt lat="59.188726332682" lon="17.895019882896">
        <ele>124.6</ele>
        <time>2019-09-18T18:52:35Z</time>
      </trkpt>
      <trkpt lat="59.188744689043" lon="17.894983756907">
        <ele>124.6</ele>
        <time>2019-09-18T18:52:36Z</time>
      </trkpt>
      <trkpt lat="59.188756339884" lon="17.894957773017">
        <ele>124.6</ele>
        <time>2019-09-18T18:52:37Z</time>
      </trkpt>
      <trkpt lat="59.188768828915" lon="17.894932962593">
        <ele>124.6</ele>
        <time>2019-09-18T18:52:38Z</time>
      </trkpt>
      <trkpt lat="59.188786347086" lon="17.894900440821">
        <ele>124.6</ele>
        <time>2019-09-18T18:52:39Z</time>
      </trkpt>
      <trkpt lat="59.188803362343" lon="17.894873618741">
        <ele>124.8</ele>
        <time>2019-09-18T18:52:40Z</time>
      </trkpt>
      <trkpt lat="59.188818282125" lon="17.894856603484">
        <ele>124.8</ele>
        <time>2019-09-18T18:52:41Z</time>
      </trkpt>
      <trkpt lat="59.188836051753" lon="17.894826261006">
        <ele>124.8</ele>
        <time>2019-09-18T18:52:42Z</time>
      </trkpt>
      <trkpt lat="59.18885139063" lon="17.894791643759">
        <ele>124.8</ele>
        <time>2019-09-18T18:52:43Z</time>
      </trkpt>
      <trkpt lat="59.18885139063" lon="17.894791643759">
        <ele>124.8</ele>
        <time>2019-09-18T18:52:44Z</time>
      </trkpt>
      <trkpt lat="59.188881062556" lon="17.894737664323">
        <ele>124.8</ele>
        <time>2019-09-18T18:52:45Z</time>
      </trkpt>
      <trkpt lat="59.188896066157" lon="17.894710926062">
        <ele>124.8</ele>
        <time>2019-09-18T18:52:46Z</time>
      </trkpt>
      <trkpt lat="59.188912243224" lon="17.894680583584">
        <ele>124.8</ele>
        <time>2019-09-18T18:52:47Z</time>
      </trkpt>
      <trkpt lat="59.188931521594" lon="17.8946440385">
        <ele>124.8</ele>
        <time>2019-09-18T18:52:48Z</time>
      </trkpt>
      <trkpt lat="59.188948033937" lon="17.894605649398">
        <ele>124.8</ele>
        <time>2019-09-18T18:52:49Z</time>
      </trkpt>
      <trkpt lat="59.188948033937" lon="17.894605649398">
        <ele>124.8</ele>
        <time>2019-09-18T18:52:50Z</time>
      </trkpt>
      <trkpt lat="59.188988183238" lon="17.894538510379">
        <ele>124.8</ele>
        <time>2019-09-18T18:52:51Z</time>
      </trkpt>
      <trkpt lat="59.189008299798" lon="17.894508503177">
        <ele>125</ele>
        <time>2019-09-18T18:52:52Z</time>
      </trkpt>
      <trkpt lat="59.189024812141" lon="17.894478412156">
        <ele>125</ele>
        <time>2019-09-18T18:52:53Z</time>
      </trkpt>
      <trkpt lat="59.189046018348" lon="17.89445041661">
        <ele>125</ele>
        <time>2019-09-18T18:52:54Z</time>
      </trkpt>
      <trkpt lat="59.189070325858" lon="17.89441856539">
        <ele>125.2</ele>
        <time>2019-09-18T18:52:55Z</time>
      </trkpt>
      <trkpt lat="59.189092202617" lon="17.894392832957">
        <ele>125.2</ele>
        <time>2019-09-18T18:52:56Z</time>
      </trkpt>
      <trkpt lat="59.189108044408" lon="17.894359724452">
        <ele>125.2</ele>
        <time>2019-09-18T18:52:57Z</time>
      </trkpt>
      <trkpt lat="59.189128160968" lon="17.894344217937">
        <ele>125.2</ele>
        <time>2019-09-18T18:52:58Z</time>
      </trkpt>
      <trkpt lat="59.189145008587" lon="17.894335668399">
        <ele>125.4</ele>
        <time>2019-09-18T18:52:59Z</time>
      </trkpt>
      <trkpt lat="59.189166214794" lon="17.894335333123">
        <ele>125.4</ele>
        <time>2019-09-18T18:53:00Z</time>
      </trkpt>
      <trkpt lat="59.189187085725" lon="17.894340362263">
        <ele>125.4</ele>
        <time>2019-09-18T18:53:01Z</time>
      </trkpt>
      <trkpt lat="59.189215416547" lon="17.89434815743">
        <ele>125.4</ele>
        <time>2019-09-18T18:53:02Z</time>
      </trkpt>
      <trkpt lat="59.189234862555" lon="17.894355868778">
        <ele>125.4</ele>
        <time>2019-09-18T18:53:03Z</time>
      </trkpt>
      <trkpt lat="59.189255649667" lon="17.894369279818">
        <ele>125.4</ele>
        <time>2019-09-18T18:53:04Z</time>
      </trkpt>
      <trkpt lat="59.189276604417" lon="17.894388474369">
        <ele>125.4</ele>
        <time>2019-09-18T18:53:05Z</time>
      </trkpt>
      <trkpt lat="59.189295296054" lon="17.894412530422">
        <ele>125.4</ele>
        <time>2019-09-18T18:53:06Z</time>
      </trkpt>
      <trkpt lat="59.189318346279" lon="17.894439101045">
        <ele>125.4</ele>
        <time>2019-09-18T18:53:07Z</time>
      </trkpt>
      <trkpt lat="59.189342067056" lon="17.894466090763">
        <ele>125.4</ele>
        <time>2019-09-18T18:53:08Z</time>
      </trkpt>
      <trkpt lat="59.189364027634" lon="17.894489727721">
        <ele>125.4</ele>
        <time>2019-09-18T18:53:09Z</time>
      </trkpt>
      <trkpt lat="59.189386742583" lon="17.894518812914">
        <ele>125.4</ele>
        <time>2019-09-18T18:53:10Z</time>
      </trkpt>
      <trkpt lat="59.189410798636" lon="17.894549071573">
        <ele>125.4</ele>
        <time>2019-09-18T18:53:11Z</time>
      </trkpt>
      <trkpt lat="59.189431334291" lon="17.894576396567">
        <ele>125.4</ele>
        <time>2019-09-18T18:53:12Z</time>
      </trkpt>
      <trkpt lat="59.189448349548" lon="17.894607744873">
        <ele>125.4</ele>
        <time>2019-09-18T18:53:13Z</time>
      </trkpt>
      <trkpt lat="59.189469471936" lon="17.894647642717">
        <ele>125.2</ele>
        <time>2019-09-18T18:53:14Z</time>
      </trkpt>
      <trkpt lat="59.189469471936" lon="17.894647642717">
        <ele>125</ele>
        <time>2019-09-18T18:53:15Z</time>
      </trkpt>
      <trkpt lat="59.18953703005" lon="17.894789296827">
        <ele>124.8</ele>
        <time>2019-09-18T18:53:17Z</time>
      </trkpt>
      <trkpt lat="59.189554799678" lon="17.89483514582">
        <ele>124.6</ele>
        <time>2019-09-18T18:53:18Z</time>
      </trkpt>
      <trkpt lat="59.189573742772" lon="17.894881916822">
        <ele>124.6</ele>
        <time>2019-09-18T18:53:19Z</time>
      </trkpt>
      <trkpt lat="59.189596122445" lon="17.894931789127">
        <ele>124.4</ele>
        <time>2019-09-18T18:53:20Z</time>
      </trkpt>
      <trkpt lat="59.189596122445" lon="17.894931789127">
        <ele>124.4</ele>
        <time>2019-09-18T18:53:21Z</time>
      </trkpt>
      <trkpt lat="59.189634343909" lon="17.895023235656">
        <ele>124.4</ele>
        <time>2019-09-18T18:53:22Z</time>
      </trkpt>
      <trkpt lat="59.189650940071" lon="17.895067072993">
        <ele>124.4</ele>
        <time>2019-09-18T18:53:23Z</time>
      </trkpt>
      <trkpt lat="59.189664770206" lon="17.895115855651">
        <ele>124.4</ele>
        <time>2019-09-18T18:53:24Z</time>
      </trkpt>
      <trkpt lat="59.189684635309" lon="17.895174864227">
        <ele>124.4</ele>
        <time>2019-09-18T18:53:25Z</time>
      </trkpt>
      <trkpt lat="59.189705422421" lon="17.895235633002">
        <ele>124.2</ele>
        <time>2019-09-18T18:53:26Z</time>
      </trkpt>
      <trkpt lat="59.189720090746" lon="17.895294641578">
        <ele>124.2</ele>
        <time>2019-09-18T18:53:27Z</time>
      </trkpt>
      <trkpt lat="59.189735010528" lon="17.895352895783">
        <ele>124.2</ele>
        <time>2019-09-18T18:53:28Z</time>
      </trkpt>
      <trkpt lat="59.1897507685" lon="17.895406456124">
        <ele>124.2</ele>
        <time>2019-09-18T18:53:29Z</time>
      </trkpt>
      <trkpt lat="59.189768286671" lon="17.895462531035">
        <ele>124.2</ele>
        <time>2019-09-18T18:53:30Z</time>
      </trkpt>
      <trkpt lat="59.189793013276" lon="17.895532436081">
        <ele>124.2</ele>
        <time>2019-09-18T18:53:31Z</time>
      </trkpt>
      <trkpt lat="59.18983039655" lon="17.8955995751">
        <ele>124.2</ele>
        <time>2019-09-18T18:53:32Z</time>
      </trkpt>
      <trkpt lat="59.18986476234" lon="17.895645927007">
        <ele>124.2</ele>
        <time>2019-09-18T18:53:33Z</time>
      </trkpt>
      <trkpt lat="59.18986476234" lon="17.895645927007">
        <ele>124.2</ele>
        <time>2019-09-18T18:53:34Z</time>
      </trkpt>
      <trkpt lat="59.189912958265" lon="17.895720525917">
        <ele>124.2</ele>
        <time>2019-09-18T18:53:35Z</time>
      </trkpt>
      <trkpt lat="59.189933829196" lon="17.895757490096">
        <ele>124.2</ele>
        <time>2019-09-18T18:53:36Z</time>
      </trkpt>
      <trkpt lat="59.189956544145" lon="17.895795460103">
        <ele>124.2</ele>
        <time>2019-09-18T18:53:37Z</time>
      </trkpt>
      <trkpt lat="59.189956544145" lon="17.895795460103">
        <ele>124.2</ele>
        <time>2019-09-18T18:53:38Z</time>
      </trkpt>
      <trkpt lat="59.189994849428" lon="17.895851115919">
        <ele>124.2</ele>
        <time>2019-09-18T18:53:39Z</time>
      </trkpt>
      <trkpt lat="59.190012870513" lon="17.895856564154">
        <ele>124.2</ele>
        <time>2019-09-18T18:53:40Z</time>
      </trkpt>
      <trkpt lat="59.190035669281" lon="17.895855893602">
        <ele>124.2</ele>
        <time>2019-09-18T18:53:41Z</time>
      </trkpt>
      <trkpt lat="59.190061234076" lon="17.89584767934">
        <ele>124.2</ele>
        <time>2019-09-18T18:53:42Z</time>
      </trkpt>
      <trkpt lat="59.190086379776" lon="17.895846589693">
        <ele>124.2</ele>
        <time>2019-09-18T18:53:43Z</time>
      </trkpt>
      <trkpt lat="59.190102975938" lon="17.895844829494">
        <ele>124.2</ele>
        <time>2019-09-18T18:53:44Z</time>
      </trkpt>
      <trkpt lat="59.190123008679" lon="17.895839045983">
        <ele>124.4</ele>
        <time>2019-09-18T18:53:45Z</time>
      </trkpt>
      <trkpt lat="59.190137425547" lon="17.895835609404">
        <ele>124.4</ele>
        <time>2019-09-18T18:53:46Z</time>
      </trkpt>
      <trkpt lat="59.190146813275" lon="17.895829993531">
        <ele>124.4</ele>
        <time>2019-09-18T18:53:47Z</time>
      </trkpt>
      <trkpt lat="59.190153518795" lon="17.895824545296">
        <ele>124.4</ele>
        <time>2019-09-18T18:53:48Z</time>
      </trkpt>
      <trkpt lat="59.190161146324" lon="17.895814235559">
        <ele>124.4</ele>
        <time>2019-09-18T18:53:49Z</time>
      </trkpt>
      <trkpt lat="59.190166846016" lon="17.895807110944">
        <ele>124.4</ele>
        <time>2019-09-18T18:53:50Z</time>
      </trkpt>
      <trkpt lat="59.190173383898" lon="17.895801997985">
        <ele>124.4</ele>
        <time>2019-09-18T18:53:51Z</time>
      </trkpt>
      <trkpt lat="59.190180424694" lon="17.895805686021">
        <ele>124.4</ele>
        <time>2019-09-18T18:53:52Z</time>
      </trkpt>
      <trkpt lat="59.190190063879" lon="17.895809038781">
        <ele>124.4</ele>
        <time>2019-09-18T18:53:53Z</time>
      </trkpt>
      <trkpt lat="59.190199954521" lon="17.89580660803">
        <ele>124.4</ele>
        <time>2019-09-18T18:53:54Z</time>
      </trkpt>
      <trkpt lat="59.190215461036" lon="17.895799567234">
        <ele>124.4</ele>
        <time>2019-09-18T18:53:55Z</time>
      </trkpt>
      <trkpt lat="59.190224764945" lon="17.895792526438">
        <ele>124.4</ele>
        <time>2019-09-18T18:53:56Z</time>
      </trkpt>
      <trkpt lat="59.190234487949" lon="17.895777858113">
        <ele>124.4</ele>
        <time>2019-09-18T18:53:57Z</time>
      </trkpt>
      <trkpt lat="59.190238678899" lon="17.895768470385">
        <ele>124.6</ele>
        <time>2019-09-18T18:53:58Z</time>
      </trkpt>
      <trkpt lat="59.190239265632" lon="17.89576553672">
        <ele>124.6</ele>
        <time>2019-09-18T18:53:59Z</time>
      </trkpt>
      <trkpt lat="59.190326856487" lon="17.895777355199">
        <ele>124.6</ele>
        <time>2019-09-18T18:57:11Z</time>
      </trkpt>
      <trkpt lat="59.190338172052" lon="17.895797723216">
        <ele>124.6</ele>
        <time>2019-09-18T18:57:12Z</time>
      </trkpt>
      <trkpt lat="59.190350241988" lon="17.895820354346">
        <ele>124.6</ele>
        <time>2019-09-18T18:57:13Z</time>
      </trkpt>
      <trkpt lat="59.190361389915" lon="17.89584684115">
        <ele>124.6</ele>
        <time>2019-09-18T18:57:14Z</time>
      </trkpt>
      <trkpt lat="59.190372370204" lon="17.895879362922">
        <ele>124.6</ele>
        <time>2019-09-18T18:57:15Z</time>
      </trkpt>
      <trkpt lat="59.190384859235" lon="17.895914818359">
        <ele>124.6</ele>
        <time>2019-09-18T18:57:16Z</time>
      </trkpt>
      <trkpt lat="59.190394833696" lon="17.895951866357">
        <ele>124.6</ele>
        <time>2019-09-18T18:57:17Z</time>
      </trkpt>
      <trkpt lat="59.19040204213" lon="17.895990590735">
        <ele>124.6</ele>
        <time>2019-09-18T18:57:18Z</time>
      </trkpt>
      <trkpt lat="59.190412519505" lon="17.896028476923">
        <ele>124.6</ele>
        <time>2019-09-18T18:57:19Z</time>
      </trkpt>
      <trkpt lat="59.19042215869" lon="17.896063513265">
        <ele>124.6</ele>
        <time>2019-09-18T18:57:20Z</time>
      </trkpt>
      <trkpt lat="59.190434647721" lon="17.896097124684">
        <ele>124.6</ele>
        <time>2019-09-18T18:57:21Z</time>
      </trkpt>
      <trkpt lat="59.19045317172" lon="17.896130736103">
        <ele>124.4</ele>
        <time>2019-09-18T18:57:22Z</time>
      </trkpt>
      <trkpt lat="59.190473455918" lon="17.896164179884">
        <ele>124.4</ele>
        <time>2019-09-18T18:57:23Z</time>
      </trkpt>
      <trkpt lat="59.190492315193" lon="17.896199300045">
        <ele>124.2</ele>
        <time>2019-09-18T18:57:24Z</time>
      </trkpt>
      <trkpt lat="59.190511174468" lon="17.896233079102">
        <ele>124.2</ele>
        <time>2019-09-18T18:57:25Z</time>
      </trkpt>
      <trkpt lat="59.190530704295" lon="17.896264511227">
        <ele>124.2</ele>
        <time>2019-09-18T18:57:26Z</time>
      </trkpt>
      <trkpt lat="59.190548641561" lon="17.896296865361">
        <ele>124.2</ele>
        <time>2019-09-18T18:57:27Z</time>
      </trkpt>
      <trkpt lat="59.190566997922" lon="17.896331566427">
        <ele>124.2</ele>
        <time>2019-09-18T18:57:28Z</time>
      </trkpt>
      <trkpt lat="59.19058392936" lon="17.89636484257">
        <ele>124</ele>
        <time>2019-09-18T18:57:29Z</time>
      </trkpt>
      <trkpt lat="59.190601363712" lon="17.89639334103">
        <ele>124</ele>
        <time>2019-09-18T18:57:30Z</time>
      </trkpt>
      <trkpt lat="59.190622905195" lon="17.896419408739">
        <ele>124</ele>
        <time>2019-09-18T18:57:31Z</time>
      </trkpt>
      <trkpt lat="59.190632628199" lon="17.896444805896">
        <ele>124</ele>
        <time>2019-09-18T18:57:32Z</time>
      </trkpt>
      <trkpt lat="59.190645368687" lon="17.896469532501">
        <ele>124</ele>
        <time>2019-09-18T18:57:33Z</time>
      </trkpt>
      <trkpt lat="59.190658276813" lon="17.896491325441">
        <ele>124</ele>
        <time>2019-09-18T18:57:34Z</time>
      </trkpt>
      <trkpt lat="59.190669089464" lon="17.896505155576">
        <ele>124</ele>
        <time>2019-09-18T18:57:35Z</time>
      </trkpt>
      <trkpt lat="59.19067948302" lon="17.896516806417">
        <ele>124</ele>
        <time>2019-09-18T18:57:36Z</time>
      </trkpt>
      <trkpt lat="59.190692307327" lon="17.896525104498">
        <ele>124</ele>
        <time>2019-09-18T18:57:37Z</time>
      </trkpt>
      <trkpt lat="59.19070379053" lon="17.896526277964">
        <ele>124</ele>
        <time>2019-09-18T18:57:38Z</time>
      </trkpt>
      <trkpt lat="59.190715441371" lon="17.896524350127">
        <ele>124</ele>
        <time>2019-09-18T18:57:39Z</time>
      </trkpt>
      <trkpt lat="59.190731702257" lon="17.896526864697">
        <ele>124</ele>
        <time>2019-09-18T18:57:40Z</time>
      </trkpt>
      <trkpt lat="59.190746286763" lon="17.896530385095">
        <ele>124</ele>
        <time>2019-09-18T18:57:41Z</time>
      </trkpt>
      <trkpt lat="59.190758189061" lon="17.896538766995">
        <ele>124</ele>
        <time>2019-09-18T18:57:42Z</time>
      </trkpt>
      <trkpt lat="59.190768834074" lon="17.896548909094">
        <ele>123.8</ele>
        <time>2019-09-18T18:57:43Z</time>
      </trkpt>
      <trkpt lat="59.190777718888" lon="17.896551675121">
        <ele>123.8</ele>
        <time>2019-09-18T18:57:44Z</time>
      </trkpt>
      <trkpt lat="59.191011992993" lon="17.896633482465">
        <ele>124</ele>
        <time>2019-09-18T18:58:04Z</time>
      </trkpt>
      <trkpt lat="59.191029175888" lon="17.8966473126">
        <ele>124</ele>
        <time>2019-09-18T18:58:05Z</time>
      </trkpt>
      <trkpt lat="59.191046442602" lon="17.896655945957">
        <ele>123.8</ele>
        <time>2019-09-18T18:58:06Z</time>
      </trkpt>
      <trkpt lat="59.191066307705" lon="17.896662316201">
        <ele>123.8</ele>
        <time>2019-09-18T18:58:07Z</time>
      </trkpt>
      <trkpt lat="59.191091118129" lon="17.896661058916">
        <ele>123.8</ele>
        <time>2019-09-18T18:58:08Z</time>
      </trkpt>
      <trkpt lat="59.191116934381" lon="17.896654521034">
        <ele>123.8</ele>
        <time>2019-09-18T18:58:09Z</time>
      </trkpt>
      <trkpt lat="59.191140822796" lon="17.896654940129">
        <ele>123.8</ele>
        <time>2019-09-18T18:58:10Z</time>
      </trkpt>
      <trkpt lat="59.191164124478" lon="17.896655191586">
        <ele>123.8</ele>
        <time>2019-09-18T18:58:11Z</time>
      </trkpt>
      <trkpt lat="59.191183989581" lon="17.896656700328">
        <ele>123.8</ele>
        <time>2019-09-18T18:58:12Z</time>
      </trkpt>
      <trkpt lat="59.191199412277" lon="17.89666659097">
        <ele>123.8</ele>
        <time>2019-09-18T18:58:13Z</time>
      </trkpt>
      <trkpt lat="59.191216511353" lon="17.896688719186">
        <ele>123.8</ele>
        <time>2019-09-18T18:58:14Z</time>
      </trkpt>
      <trkpt lat="59.191227407823" lon="17.89671855875">
        <ele>123.8</ele>
        <time>2019-09-18T18:58:15Z</time>
      </trkpt>
      <trkpt lat="59.191238974845" lon="17.896746554296">
        <ele>123.8</ele>
        <time>2019-09-18T18:58:16Z</time>
      </trkpt>
      <trkpt lat="59.191254816636" lon="17.896772035272">
        <ele>123.8</ele>
        <time>2019-09-18T18:58:17Z</time>
      </trkpt>
      <trkpt lat="59.191273675911" lon="17.896800869008">
        <ele>123.8</ele>
        <time>2019-09-18T18:58:18Z</time>
      </trkpt>
      <trkpt lat="59.191286584037" lon="17.896831295305">
        <ele>123.8</ele>
        <time>2019-09-18T18:58:19Z</time>
      </trkpt>
      <trkpt lat="59.191297061412" lon="17.896860380498">
        <ele>123.8</ele>
        <time>2019-09-18T18:58:20Z</time>
      </trkpt>
      <trkpt lat="59.191305778588" lon="17.896893153727">
        <ele>123.8</ele>
        <time>2019-09-18T18:58:21Z</time>
      </trkpt>
      <trkpt lat="59.191315417773" lon="17.896931375191">
        <ele>123.8</ele>
        <time>2019-09-18T18:58:22Z</time>
      </trkpt>
      <trkpt lat="59.191332013935" lon="17.896969261379">
        <ele>123.8</ele>
        <time>2019-09-18T18:58:23Z</time>
      </trkpt>
      <trkpt lat="59.191332013935" lon="17.896969261379">
        <ele>123.8</ele>
        <time>2019-09-18T18:58:24Z</time>
      </trkpt>
      <trkpt lat="59.191354058332" lon="17.897028102317">
        <ele>123.8</ele>
        <time>2019-09-18T18:58:25Z</time>
      </trkpt>
      <trkpt lat="59.191362104956" lon="17.897050649628">
        <ele>123.8</ele>
        <time>2019-09-18T18:58:26Z</time>
      </trkpt>
      <trkpt lat="59.191376186548" lon="17.897074035129">
        <ele>123.8</ele>
        <time>2019-09-18T18:58:27Z</time>
      </trkpt>
      <trkpt lat="59.191390519597" lon="17.897088703454">
        <ele>123.8</ele>
        <time>2019-09-18T18:58:28Z</time>
      </trkpt>
      <trkpt lat="59.191398901497" lon="17.897106053987">
        <ele>123.8</ele>
        <time>2019-09-18T18:58:29Z</time>
      </trkpt>
      <trkpt lat="59.19141289927" lon="17.897136564103">
        <ele>123.8</ele>
        <time>2019-09-18T18:58:30Z</time>
      </trkpt>
      <trkpt lat="59.191425975034" lon="17.897158524681">
        <ele>123.8</ele>
        <time>2019-09-18T18:58:31Z</time>
      </trkpt>
      <trkpt lat="59.191431758545" lon="17.897182161639">
        <ele>123.8</ele>
        <time>2019-09-18T18:58:32Z</time>
      </trkpt>
      <trkpt lat="59.191440224264" lon="17.897208983719">
        <ele>124</ele>
        <time>2019-09-18T18:58:33Z</time>
      </trkpt>
      <trkpt lat="59.191445756318" lon="17.897230273745">
        <ele>124</ele>
        <time>2019-09-18T18:58:34Z</time>
      </trkpt>
      <trkpt lat="59.191461849566" lon="17.897257934015">
        <ele>124</ele>
        <time>2019-09-18T18:58:35Z</time>
      </trkpt>
      <trkpt lat="59.191477523719" lon="17.897283750267">
        <ele>124</ele>
        <time>2019-09-18T18:58:36Z</time>
      </trkpt>
      <trkpt lat="59.191496382994" lon="17.897302274266">
        <ele>124</ele>
        <time>2019-09-18T18:58:37Z</time>
      </trkpt>
      <trkpt lat="59.191507195645" lon="17.897317445505">
        <ele>124.4</ele>
        <time>2019-09-18T18:58:38Z</time>
      </trkpt>
      <trkpt lat="59.191520941961" lon="17.897335298952">
        <ele>124.4</ele>
        <time>2019-09-18T18:58:39Z</time>
      </trkpt>
      <trkpt lat="59.191531503155" lon="17.897348207078">
        <ele>124.4</ele>
        <time>2019-09-18T18:58:40Z</time>
      </trkpt>
      <trkpt lat="59.191546255299" lon="17.89736145048">
        <ele>124.4</ele>
        <time>2019-09-18T18:58:41Z</time>
      </trkpt>
      <trkpt lat="59.191563522013" lon="17.897381818497">
        <ele>124.4</ele>
        <time>2019-09-18T18:58:42Z</time>
      </trkpt>
      <trkpt lat="59.191578274157" lon="17.897397995564">
        <ele>124.4</ele>
        <time>2019-09-18T18:58:43Z</time>
      </trkpt>
      <trkpt lat="59.191593361577" lon="17.897408472939">
        <ele>124.4</ele>
        <time>2019-09-18T18:58:44Z</time>
      </trkpt>
      <trkpt lat="59.191606353522" lon="17.897418531219">
        <ele>124.4</ele>
        <time>2019-09-18T18:58:45Z</time>
      </trkpt>
      <trkpt lat="59.191622614408" lon="17.897424398549">
        <ele>124.4</ele>
        <time>2019-09-18T18:58:46Z</time>
      </trkpt>
      <trkpt lat="59.191762508319" lon="17.897413082984">
        <ele>124.2</ele>
        <time>2019-09-18T18:59:48Z</time>
      </trkpt>
      <trkpt lat="59.191780110309" lon="17.897393972252">
        <ele>124.2</ele>
        <time>2019-09-18T18:59:49Z</time>
      </trkpt>
      <trkpt lat="59.191795700643" lon="17.89737067057">
        <ele>124.2</ele>
        <time>2019-09-18T18:59:50Z</time>
      </trkpt>
      <trkpt lat="59.191822941818" lon="17.897342339748">
        <ele>124.2</ele>
        <time>2019-09-18T18:59:51Z</time>
      </trkpt>
      <trkpt lat="59.191844148025" lon="17.897321720274">
        <ele>124.2</ele>
        <time>2019-09-18T18:59:52Z</time>
      </trkpt>
      <trkpt lat="59.191862839662" lon="17.897301519895">
        <ele>124.2</ele>
        <time>2019-09-18T18:59:53Z</time>
      </trkpt>
      <trkpt lat="59.191880693109" lon="17.897285678104">
        <ele>124.2</ele>
        <time>2019-09-18T18:59:54Z</time>
      </trkpt>
      <trkpt lat="59.191904413886" lon="17.897270842141">
        <ele>124.2</ele>
        <time>2019-09-18T18:59:55Z</time>
      </trkpt>
      <trkpt lat="59.19193509164" lon="17.897253491608">
        <ele>124.2</ele>
        <time>2019-09-18T18:59:56Z</time>
      </trkpt>
      <trkpt lat="59.191964763566" lon="17.897240667301">
        <ele>124.2</ele>
        <time>2019-09-18T18:59:57Z</time>
      </trkpt>
      <trkpt lat="59.191964763566" lon="17.897240667301">
        <ele>124.2</ele>
        <time>2019-09-18T18:59:58Z</time>
      </trkpt>
      <trkpt lat="59.192024023599" lon="17.897239410016">
        <ele>124.2</ele>
        <time>2019-09-18T18:59:59Z</time>
      </trkpt>
      <trkpt lat="59.192043721064" lon="17.897254497436">
        <ele>124.2</ele>
        <time>2019-09-18T19:00:00Z</time>
      </trkpt>
      <trkpt lat="59.192055623362" lon="17.897288025036">
        <ele>124.2</ele>
        <time>2019-09-18T19:00:01Z</time>
      </trkpt>
      <trkpt lat="59.192055623362" lon="17.897288025036">
        <ele>124</ele>
        <time>2019-09-18T19:00:02Z</time>
      </trkpt>
      <trkpt lat="59.192073895904" lon="17.89735893591">
        <ele>124</ele>
        <time>2019-09-18T19:00:03Z</time>
      </trkpt>
      <trkpt lat="59.192076242836" lon="17.897368910371">
        <ele>123.8</ele>
        <time>2019-09-18T19:00:04Z</time>
      </trkpt>
      <trkpt lat="59.192079930872" lon="17.897370335294">
        <ele>123.8</ele>
        <time>2019-09-18T19:00:05Z</time>
      </trkpt>
      <trkpt lat="59.192074734094" lon="17.897378633375">
        <ele>124</ele>
        <time>2019-09-18T19:00:06Z</time>
      </trkpt>
      <trkpt lat="59.192062580339" lon="17.897385841809">
        <ele>124</ele>
        <time>2019-09-18T19:00:07Z</time>
      </trkpt>
      <trkpt lat="59.19205830557" lon="17.897392295872">
        <ele>124</ele>
        <time>2019-09-18T19:00:08Z</time>
      </trkpt>
      <trkpt lat="59.192051348593" lon="17.897406126007">
        <ele>124</ele>
        <time>2019-09-18T19:00:09Z</time>
      </trkpt>
      <trkpt lat="59.192052019145" lon="17.897418112124">
        <ele>124</ele>
        <time>2019-09-18T19:00:10Z</time>
      </trkpt>
      <trkpt lat="59.192049336937" lon="17.897438228684">
        <ele>124</ele>
        <time>2019-09-18T19:00:11Z</time>
      </trkpt>
      <trkpt lat="59.192043804883" lon="17.897450382439">
        <ele>124</ele>
        <time>2019-09-18T19:00:12Z</time>
      </trkpt>
      <trkpt lat="59.192037686096" lon="17.897458261425">
        <ele>124</ele>
        <time>2019-09-18T19:00:13Z</time>
      </trkpt>
      <trkpt lat="59.192037686096" lon="17.897458261425">
        <ele>124</ele>
        <time>2019-09-18T19:00:14Z</time>
      </trkpt>
      <trkpt lat="59.19201220512" lon="17.897481563107">
        <ele>124.4</ele>
        <time>2019-09-18T19:00:15Z</time>
      </trkpt>
      <trkpt lat="59.192003152668" lon="17.897492627215">
        <ele>124.6</ele>
        <time>2019-09-18T19:00:16Z</time>
      </trkpt>
      <trkpt lat="59.19198957399" lon="17.897504026599">
        <ele>124.8</ele>
        <time>2019-09-18T19:00:17Z</time>
      </trkpt>
      <trkpt lat="59.191974989484" lon="17.897520203666">
        <ele>125</ele>
        <time>2019-09-18T19:00:18Z</time>
      </trkpt>
      <trkpt lat="59.191963087186" lon="17.897549121221">
        <ele>125</ele>
        <time>2019-09-18T19:00:19Z</time>
      </trkpt>
      <trkpt lat="59.191952609811" lon="17.897572339084">
        <ele>125</ele>
        <time>2019-09-18T19:00:20Z</time>
      </trkpt>
      <trkpt lat="59.191939366409" lon="17.897595473128">
        <ele>125</ele>
        <time>2019-09-18T19:00:21Z</time>
      </trkpt>
      <trkpt lat="59.191928469939" lon="17.897614164765">
        <ele>125</ele>
        <time>2019-09-18T19:00:22Z</time>
      </trkpt>
      <trkpt lat="59.191919920401" lon="17.897640316293">
        <ele>125</ele>
        <time>2019-09-18T19:00:23Z</time>
      </trkpt>
      <trkpt lat="59.191916986736" lon="17.897668311839">
        <ele>125</ele>
        <time>2019-09-18T19:00:24Z</time>
      </trkpt>
      <trkpt lat="59.191914304528" lon="17.897696475023">
        <ele>125.2</ele>
        <time>2019-09-18T19:00:25Z</time>
      </trkpt>
      <trkpt lat="59.191909526845" lon="17.897730421718">
        <ele>125.2</ele>
        <time>2019-09-18T19:00:26Z</time>
      </trkpt>
      <trkpt lat="59.191904246248" lon="17.897754729228">
        <ele>125.2</ele>
        <time>2019-09-18T19:00:27Z</time>
      </trkpt>
      <trkpt lat="59.191904246248" lon="17.897754729228">
        <ele>125.4</ele>
        <time>2019-09-18T19:00:28Z</time>
      </trkpt>
      <trkpt lat="59.191889410285" lon="17.897808708664">
        <ele>125.4</ele>
        <time>2019-09-18T19:00:29Z</time>
      </trkpt>
      <trkpt lat="59.191883375317" lon="17.89782748412">
        <ele>125.6</ele>
        <time>2019-09-18T19:00:30Z</time>
      </trkpt>
      <trkpt lat="59.191880022557" lon="17.89784089516">
        <ele>125.6</ele>
        <time>2019-09-18T19:00:31Z</time>
      </trkpt>
      <trkpt lat="59.191877340349" lon="17.897854390019">
        <ele>125.6</ele>
        <time>2019-09-18T19:00:32Z</time>
      </trkpt>
      <trkpt lat="59.191877340349" lon="17.89787442276">
        <ele>125.6</ele>
        <time>2019-09-18T19:00:33Z</time>
      </trkpt>
      <trkpt lat="59.191808189674" lon="17.897871992009">
        <ele>125.8</ele>
        <time>2019-09-18T19:00:41Z</time>
      </trkpt>
      <trkpt lat="59.191788576028" lon="17.897863023376">
        <ele>125.8</ele>
        <time>2019-09-18T19:00:42Z</time>
      </trkpt>
      <trkpt lat="59.191772147504" lon="17.897851623992">
        <ele>125.8</ele>
        <time>2019-09-18T19:00:43Z</time>
      </trkpt>
      <trkpt lat="59.191761753948" lon="17.897844750834">
        <ele>125.6</ele>
        <time>2019-09-18T19:00:44Z</time>
      </trkpt>
      <trkpt lat="59.191750186926" lon="17.897849025603">
        <ele>125.6</ele>
        <time>2019-09-18T19:00:45Z</time>
      </trkpt>
      <trkpt lat="59.191738284628" lon="17.897849947612">
        <ele>125.6</ele>
        <time>2019-09-18T19:00:46Z</time>
      </trkpt>
      <trkpt lat="59.191721101733" lon="17.897849947612">
        <ele>125.4</ele>
        <time>2019-09-18T19:00:47Z</time>
      </trkpt>
      <trkpt lat="59.191709115616" lon="17.897844750834">
        <ele>125</ele>
        <time>2019-09-18T19:00:48Z</time>
      </trkpt>
      <trkpt lat="59.191696123671" lon="17.897839973151">
        <ele>124.8</ele>
        <time>2019-09-18T19:00:49Z</time>
      </trkpt>
      <trkpt lat="59.19168195826" lon="17.897823712265">
        <ele>124.8</ele>
        <time>2019-09-18T19:00:50Z</time>
      </trkpt>
      <trkpt lat="59.19167189998" lon="17.897806445551">
        <ele>124.6</ele>
        <time>2019-09-18T19:00:51Z</time>
      </trkpt>
      <trkpt lat="59.191656393465" lon="17.897790855217">
        <ele>124.6</ele>
        <time>2019-09-18T19:00:52Z</time>
      </trkpt>
      <trkpt lat="59.19164340152" lon="17.897768643182">
        <ele>124.6</ele>
        <time>2019-09-18T19:00:53Z</time>
      </trkpt>
      <trkpt lat="59.191636696" lon="17.897740899093">
        <ele>124.4</ele>
        <time>2019-09-18T19:00:54Z</time>
      </trkpt>
      <trkpt lat="59.19163082867" lon="17.89771432847">
        <ele>124.4</ele>
        <time>2019-09-18T19:00:55Z</time>
      </trkpt>
      <trkpt lat="59.191624793702" lon="17.897688847494">
        <ele>124.4</ele>
        <time>2019-09-18T19:00:56Z</time>
      </trkpt>
      <trkpt lat="59.191622698227" lon="17.89767409535">
        <ele>124.2</ele>
        <time>2019-09-18T19:00:57Z</time>
      </trkpt>
      <trkpt lat="59.19162160858" lon="17.89766236069">
        <ele>124</ele>
        <time>2019-09-18T19:00:58Z</time>
      </trkpt>
      <trkpt lat="59.191622362951" lon="17.897651967134">
        <ele>123.8</ele>
        <time>2019-09-18T19:00:59Z</time>
      </trkpt>
      <trkpt lat="59.191626805358" lon="17.897645345433">
        <ele>123.8</ele>
        <time>2019-09-18T19:01:00Z</time>
      </trkpt>
      <trkpt lat="59.191635354896" lon="17.897637382628">
        <ele>123.8</ele>
        <time>2019-09-18T19:01:01Z</time>
      </trkpt>
      <trkpt lat="59.191645664633" lon="17.897624474502">
        <ele>123.8</ele>
        <time>2019-09-18T19:01:02Z</time>
      </trkpt>
      <trkpt lat="59.191656728741" lon="17.897602597743">
        <ele>123.8</ele>
        <time>2019-09-18T19:01:03Z</time>
      </trkpt>
      <trkpt lat="59.191667541392" lon="17.89757518893">
        <ele>123.8</ele>
        <time>2019-09-18T19:01:04Z</time>
      </trkpt>
      <trkpt lat="59.191681036251" lon="17.897545936099">
        <ele>123.6</ele>
        <time>2019-09-18T19:01:05Z</time>
      </trkpt>
      <trkpt lat="59.191681036251" lon="17.897545936099">
        <ele>123.6</ele>
        <time>2019-09-18T19:01:06Z</time>
      </trkpt>
      <trkpt lat="59.191712049281" lon="17.897492878672">
        <ele>123.6</ele>
        <time>2019-09-18T19:01:07Z</time>
      </trkpt>
      <trkpt lat="59.191728310167" lon="17.89747209156">
        <ele>123.6</ele>
        <time>2019-09-18T19:01:08Z</time>
      </trkpt>
      <trkpt lat="59.191747169442" lon="17.897457087959">
        <ele>123.6</ele>
        <time>2019-09-18T19:01:09Z</time>
      </trkpt>
      <trkpt lat="59.191763514147" lon="17.897439905064">
        <ele>123.6</ele>
        <time>2019-09-18T19:01:10Z</time>
      </trkpt>
      <trkpt lat="59.191777679558" lon="17.897427499852">
        <ele>123.6</ele>
        <time>2019-09-18T19:01:11Z</time>
      </trkpt>
      <trkpt lat="59.19178924658" lon="17.897411490423">
        <ele>123.8</ele>
        <time>2019-09-18T19:01:12Z</time>
      </trkpt>
      <trkpt lat="59.191801316516" lon="17.897392798786">
        <ele>123.8</ele>
        <time>2019-09-18T19:01:13Z</time>
      </trkpt>
      <trkpt lat="59.191818247954" lon="17.897377795185">
        <ele>123.8</ele>
        <time>2019-09-18T19:01:14Z</time>
      </trkpt>
      <trkpt lat="59.191833251555" lon="17.897362372489">
        <ele>123.8</ele>
        <time>2019-09-18T19:01:15Z</time>
      </trkpt>
      <trkpt lat="59.191850518269" lon="17.897351811295">
        <ele>123.8</ele>
        <time>2019-09-18T19:01:16Z</time>
      </trkpt>
      <trkpt lat="59.191866024784" lon="17.897335801866">
        <ele>123.8</ele>
        <time>2019-09-18T19:01:17Z</time>
      </trkpt>
      <trkpt lat="59.191866024784" lon="17.897335801866">
        <ele>124</ele>
        <time>2019-09-18T19:01:18Z</time>
      </trkpt>
      <trkpt lat="59.191898462737" lon="17.897296155479">
        <ele>124</ele>
        <time>2019-09-18T19:01:19Z</time>
      </trkpt>
      <trkpt lat="59.191916567641" lon="17.897283163534">
        <ele>124</ele>
        <time>2019-09-18T19:01:20Z</time>
      </trkpt>
      <trkpt lat="59.191933499079" lon="17.897275033091">
        <ele>124.2</ele>
        <time>2019-09-18T19:01:21Z</time>
      </trkpt>
      <trkpt lat="59.191951687802" lon="17.897261035318">
        <ele>124.2</ele>
        <time>2019-09-18T19:01:22Z</time>
      </trkpt>
      <trkpt lat="59.191968703059" lon="17.897247875735">
        <ele>124.2</ele>
        <time>2019-09-18T19:01:23Z</time>
      </trkpt>
      <trkpt lat="59.191981527366" lon="17.897235554342">
        <ele>124.2</ele>
        <time>2019-09-18T19:01:24Z</time>
      </trkpt>
      <trkpt lat="59.192003739401" lon="17.897218622904">
        <ele>124.2</ele>
        <time>2019-09-18T19:01:25Z</time>
      </trkpt>
      <trkpt lat="59.192027963092" lon="17.897197835792">
        <ele>124.2</ele>
        <time>2019-09-18T19:01:26Z</time>
      </trkpt>
      <trkpt lat="59.192049588394" lon="17.897185262942">
        <ele>124.2</ele>
        <time>2019-09-18T19:01:27Z</time>
      </trkpt>
      <trkpt lat="59.192066855108" lon="17.897201775285">
        <ele>124.2</ele>
        <time>2019-09-18T19:01:28Z</time>
      </trkpt>
      <trkpt lat="59.192085211469" lon="17.897222227121">
        <ele>124.2</ele>
        <time>2019-09-18T19:01:29Z</time>
      </trkpt>
      <trkpt lat="59.192093006636" lon="17.897245864079">
        <ele>124.2</ele>
        <time>2019-09-18T19:01:30Z</time>
      </trkpt>
      <trkpt lat="59.192102645821" lon="17.897268495209">
        <ele>124.2</ele>
        <time>2019-09-18T19:01:31Z</time>
      </trkpt>
      <trkpt lat="59.192112368825" lon="17.897287354484">
        <ele>124.2</ele>
        <time>2019-09-18T19:01:32Z</time>
      </trkpt>
      <trkpt lat="59.192118822888" lon="17.897294060004">
        <ele>124.2</ele>
        <time>2019-09-18T19:01:33Z</time>
      </trkpt>
      <trkpt lat="59.192121253639" lon="17.89730361537">
        <ele>124.2</ele>
        <time>2019-09-18T19:01:34Z</time>
      </trkpt>
      <trkpt lat="59.192117481784" lon="17.897318032238">
        <ele>124.2</ele>
        <time>2019-09-18T19:01:35Z</time>
      </trkpt>
      <trkpt lat="59.192111698273" lon="17.897339070807">
        <ele>124.2</ele>
        <time>2019-09-18T19:01:36Z</time>
      </trkpt>
      <trkpt lat="59.192097029948" lon="17.897353152399">
        <ele>124.2</ele>
        <time>2019-09-18T19:01:37Z</time>
      </trkpt>
      <trkpt lat="59.192083283632" lon="17.897371592579">
        <ele>124.2</ele>
        <time>2019-09-18T19:01:38Z</time>
      </trkpt>
      <trkpt lat="59.192066603651" lon="17.897405287817">
        <ele>124.2</ele>
        <time>2019-09-18T19:01:39Z</time>
      </trkpt>
      <trkpt lat="59.192050678041" lon="17.897439150693">
        <ele>124.2</ele>
        <time>2019-09-18T19:01:40Z</time>
      </trkpt>
      <trkpt lat="59.192028885101" lon="17.897462284737">
        <ele>124.2</ele>
        <time>2019-09-18T19:01:41Z</time>
      </trkpt>
      <trkpt lat="59.192010109645" lon="17.897480138184">
        <ele>124.2</ele>
        <time>2019-09-18T19:01:42Z</time>
      </trkpt>
      <trkpt lat="59.191992256198" lon="17.897504697151">
        <ele>124.2</ele>
        <time>2019-09-18T19:01:43Z</time>
      </trkpt>
      <trkpt lat="59.191981275909" lon="17.897527998833">
        <ele>124.2</ele>
        <time>2019-09-18T19:01:44Z</time>
      </trkpt>
      <trkpt lat="59.191981275909" lon="17.897527998833">
        <ele>124.2</ele>
        <time>2019-09-18T19:01:45Z</time>
      </trkpt>
      <trkpt lat="59.191965685575" lon="17.897580972441">
        <ele>124.2</ele>
        <time>2019-09-18T19:01:46Z</time>
      </trkpt>
      <trkpt lat="59.191952274535" lon="17.897613494213">
        <ele>124.2</ele>
        <time>2019-09-18T19:01:47Z</time>
      </trkpt>
      <trkpt lat="59.191938947314" lon="17.897653308238">
        <ele>124.4</ele>
        <time>2019-09-18T19:01:48Z</time>
      </trkpt>
      <trkpt lat="59.191937690029" lon="17.897689518046">
        <ele>124.4</ele>
        <time>2019-09-18T19:01:49Z</time>
      </trkpt>
      <trkpt lat="59.191926206826" lon="17.89770846114">
        <ele>124.4</ele>
        <time>2019-09-18T19:01:50Z</time>
      </trkpt>
      <trkpt lat="59.191920423315" lon="17.897725895492">
        <ele>124.6</ele>
        <time>2019-09-18T19:01:51Z</time>
      </trkpt>
      <trkpt lat="59.191831742813" lon="17.89777970729">
        <ele>125.2</ele>
        <time>2019-09-18T19:01:57Z</time>
      </trkpt>
      <trkpt lat="59.191807016208" lon="17.897779874928">
        <ele>125.2</ele>
        <time>2019-09-18T19:01:58Z</time>
      </trkpt>
      <trkpt lat="59.191787151105" lon="17.897785239344">
        <ele>125.2</ele>
        <time>2019-09-18T19:01:59Z</time>
      </trkpt>
      <trkpt lat="59.191763346509" lon="17.897770068105">
        <ele>125.2</ele>
        <time>2019-09-18T19:02:00Z</time>
      </trkpt>
      <trkpt lat="59.191741050655" lon="17.897760177463">
        <ele>125.2</ele>
        <time>2019-09-18T19:02:01Z</time>
      </trkpt>
      <trkpt lat="59.191717748973" lon="17.897738049247">
        <ele>125.2</ele>
        <time>2019-09-18T19:02:02Z</time>
      </trkpt>
      <trkpt lat="59.19169788387" lon="17.897714831384">
        <ele>125</ele>
        <time>2019-09-18T19:02:03Z</time>
      </trkpt>
      <trkpt lat="59.191680868613" lon="17.897692367892">
        <ele>124.8</ele>
        <time>2019-09-18T19:02:04Z</time>
      </trkpt>
      <trkpt lat="59.191667289935" lon="17.897668647115">
        <ele>124.6</ele>
        <time>2019-09-18T19:02:05Z</time>
      </trkpt>
      <trkpt lat="59.19165848894" lon="17.89766236069">
        <ele>124.4</ele>
        <time>2019-09-18T19:02:06Z</time>
      </trkpt>
      <trkpt lat="59.191655387637" lon="17.897645429252">
        <ele>124.2</ele>
        <time>2019-09-18T19:02:07Z</time>
      </trkpt>
      <trkpt lat="59.191796538833" lon="17.897474019397">
        <ele>124</ele>
        <time>2019-09-18T19:02:23Z</time>
      </trkpt>
      <trkpt lat="59.191811290977" lon="17.897450717715">
        <ele>124</ele>
        <time>2019-09-18T19:02:24Z</time>
      </trkpt>
      <trkpt lat="59.191831072261" lon="17.897422805988">
        <ele>124</ele>
        <time>2019-09-18T19:02:25Z</time>
      </trkpt>
      <trkpt lat="59.191831072261" lon="17.897422805988">
        <ele>124</ele>
        <time>2019-09-18T19:02:26Z</time>
      </trkpt>
      <trkpt lat="59.191872646485" lon="17.897373352778">
        <ele>124.2</ele>
        <time>2019-09-18T19:02:27Z</time>
      </trkpt>
      <trkpt lat="59.191882620946" lon="17.897351056924">
        <ele>124.2</ele>
        <time>2019-09-18T19:02:28Z</time>
      </trkpt>
      <trkpt lat="59.191898127461" lon="17.897333874029">
        <ele>124.2</ele>
        <time>2019-09-18T19:02:29Z</time>
      </trkpt>
      <trkpt lat="59.191911119406" lon="17.897311829632">
        <ele>124.2</ele>
        <time>2019-09-18T19:02:30Z</time>
      </trkpt>
      <trkpt lat="59.191927631749" lon="17.897305543207">
        <ele>124.2</ele>
        <time>2019-09-18T19:02:31Z</time>
      </trkpt>
      <trkpt lat="59.191944479368" lon="17.897286767751">
        <ele>124.2</ele>
        <time>2019-09-18T19:02:32Z</time>
      </trkpt>
      <trkpt lat="59.191944479368" lon="17.897286767751">
        <ele>124.2</ele>
        <time>2019-09-18T19:02:33Z</time>
      </trkpt>
      <trkpt lat="59.192002314478" lon="17.897244187699">
        <ele>124.2</ele>
        <time>2019-09-18T19:02:35Z</time>
      </trkpt>
      <trkpt lat="59.192025113246" lon="17.897222646216">
        <ele>124.2</ele>
        <time>2019-09-18T19:02:36Z</time>
      </trkpt>
      <trkpt lat="59.192051180955" lon="17.897206217692">
        <ele>124.2</ele>
        <time>2019-09-18T19:02:37Z</time>
      </trkpt>
      <trkpt lat="59.192075572284" lon="17.897196243231">
        <ele>124.2</ele>
        <time>2019-09-18T19:02:38Z</time>
      </trkpt>
      <trkpt lat="59.192093593369" lon="17.897191800824">
        <ele>124.2</ele>
        <time>2019-09-18T19:02:39Z</time>
      </trkpt>
      <trkpt lat="59.192109770436" lon="17.897194147756">
        <ele>124.2</ele>
        <time>2019-09-18T19:02:40Z</time>
      </trkpt>
      <trkpt lat="59.192109770436" lon="17.897194147756">
        <ele>124.2</ele>
        <time>2019-09-18T19:02:41Z</time>
      </trkpt>
      <trkpt lat="59.192132233928" lon="17.897222478578">
        <ele>124.2</ele>
        <time>2019-09-18T19:02:42Z</time>
      </trkpt>
      <trkpt lat="59.192138687991" lon="17.897241924586">
        <ele>124.2</ele>
        <time>2019-09-18T19:02:43Z</time>
      </trkpt>
      <trkpt lat="59.19213709543" lon="17.897261454413">
        <ele>124.2</ele>
        <time>2019-09-18T19:02:44Z</time>
      </trkpt>
      <trkpt lat="59.192138939448" lon="17.897279224041">
        <ele>124.2</ele>
        <time>2019-09-18T19:02:45Z</time>
      </trkpt>
      <trkpt lat="59.192138268896" lon="17.897297580402">
        <ele>124.2</ele>
        <time>2019-09-18T19:02:46Z</time>
      </trkpt>
      <trkpt lat="59.192139190905" lon="17.897306800492">
        <ele>124.2</ele>
        <time>2019-09-18T19:02:47Z</time>
      </trkpt>
      <trkpt lat="59.192141705475" lon="17.897317361686">
        <ele>124.2</ele>
        <time>2019-09-18T19:02:48Z</time>
      </trkpt>
      <trkpt lat="59.192137682163" lon="17.89732457012">
        <ele>124.2</ele>
        <time>2019-09-18T19:02:49Z</time>
      </trkpt>
      <trkpt lat="59.192133323575" lon="17.897327755242">
        <ele>124.2</ele>
        <time>2019-09-18T19:02:50Z</time>
      </trkpt>
      <trkpt lat="59.192130557548" lon="17.897338651712">
        <ele>124.2</ele>
        <time>2019-09-18T19:02:51Z</time>
      </trkpt>
      <trkpt lat="59.192124271123" lon="17.897350302553">
        <ele>124.2</ele>
        <time>2019-09-18T19:02:52Z</time>
      </trkpt>
      <trkpt lat="59.192114967214" lon="17.897350805467">
        <ele>124.2</ele>
        <time>2019-09-18T19:02:53Z</time>
      </trkpt>
      <trkpt lat="59.192101304717" lon="17.897355918426">
        <ele>124.2</ele>
        <time>2019-09-18T19:02:54Z</time>
      </trkpt>
      <trkpt lat="59.19208512765" lon="17.89736145048">
        <ele>124.2</ele>
        <time>2019-09-18T19:02:55Z</time>
      </trkpt>
      <trkpt lat="59.192064675814" lon="17.897370335294">
        <ele>124.2</ele>
        <time>2019-09-18T19:02:56Z</time>
      </trkpt>
      <trkpt lat="59.192046151815" lon="17.897386177085">
        <ele>124.2</ele>
        <time>2019-09-18T19:02:57Z</time>
      </trkpt>
      <trkpt lat="59.192030561481" lon="17.897395480994">
        <ele>124.2</ele>
        <time>2019-09-18T19:02:58Z</time>
      </trkpt>
      <trkpt lat="59.192015222604" lon="17.897406796559">
        <ele>124.4</ele>
        <time>2019-09-18T19:02:59Z</time>
      </trkpt>
      <trkpt lat="59.191997369157" lon="17.897419537047">
        <ele>124.4</ele>
        <time>2019-09-18T19:03:00Z</time>
      </trkpt>
      <trkpt lat="59.191984712488" lon="17.897419788504">
        <ele>124.4</ele>
        <time>2019-09-18T19:03:01Z</time>
      </trkpt>
      <trkpt lat="59.191968870697" lon="17.897425236739">
        <ele>124.4</ele>
        <time>2019-09-18T19:03:02Z</time>
      </trkpt>
      <trkpt lat="59.191951603983" lon="17.897430684974">
        <ele>124.4</ele>
        <time>2019-09-18T19:03:03Z</time>
      </trkpt>
      <trkpt lat="59.191935510735" lon="17.897443090186">
        <ele>124.4</ele>
        <time>2019-09-18T19:03:04Z</time>
      </trkpt>
      <trkpt lat="59.191920674772" lon="17.89744778405">
        <ele>124.4</ele>
        <time>2019-09-18T19:03:05Z</time>
      </trkpt>
      <trkpt lat="59.191907179913" lon="17.897453064647">
        <ele>124.4</ele>
        <time>2019-09-18T19:03:06Z</time>
      </trkpt>
      <trkpt lat="59.191889158828" lon="17.897464715488">
        <ele>124.4</ele>
        <time>2019-09-18T19:03:07Z</time>
      </trkpt>
      <trkpt lat="59.191874574322" lon="17.89745951871">
        <ele>124.4</ele>
        <time>2019-09-18T19:03:08Z</time>
      </trkpt>
      <trkpt lat="59.191874574322" lon="17.89745951871">
        <ele>124.4</ele>
        <time>2019-09-18T19:03:09Z</time>
      </trkpt>
      <trkpt lat="59.191858145798" lon="17.897454992484">
        <ele>124.4</ele>
        <time>2019-09-18T19:03:10Z</time>
      </trkpt>
      <trkpt lat="59.191850685907" lon="17.897450717715">
        <ele>124.4</ele>
        <time>2019-09-18T19:03:11Z</time>
      </trkpt>
      <trkpt lat="59.191794359539" lon="17.898054214515">
        <ele>125.4</ele>
        <time>2019-09-18T19:04:52Z</time>
      </trkpt>
      <trkpt lat="59.191798131394" lon="17.898083718803">
        <ele>125.4</ele>
        <time>2019-09-18T19:04:53Z</time>
      </trkpt>
      <trkpt lat="59.191803831086" lon="17.898112301082">
        <ele>125.4</ele>
        <time>2019-09-18T19:04:54Z</time>
      </trkpt>
      <trkpt lat="59.191810620425" lon="17.898139374619">
        <ele>125.4</ele>
        <time>2019-09-18T19:04:55Z</time>
      </trkpt>
      <trkpt lat="59.191819505239" lon="17.898163095396">
        <ele>125.4</ele>
        <time>2019-09-18T19:04:56Z</time>
      </trkpt>
      <trkpt lat="59.191826713673" lon="17.898189833657">
        <ele>125.4</ele>
        <time>2019-09-18T19:04:57Z</time>
      </trkpt>
      <trkpt lat="59.191839370342" lon="17.898223864171">
        <ele>125.4</ele>
        <time>2019-09-18T19:04:58Z</time>
      </trkpt>
      <trkpt lat="59.191850853545" lon="17.898254374287">
        <ele>125.4</ele>
        <time>2019-09-18T19:04:59Z</time>
      </trkpt>
      <trkpt lat="59.191861414739" lon="17.898280777272">
        <ele>125.2</ele>
        <time>2019-09-18T19:05:00Z</time>
      </trkpt>
      <trkpt lat="59.191870048096" lon="17.898297792529">
        <ele>125</ele>
        <time>2019-09-18T19:05:01Z</time>
      </trkpt>
      <trkpt lat="59.191880441652" lon="17.898320591297">
        <ele>125</ele>
        <time>2019-09-18T19:05:02Z</time>
      </trkpt>
      <trkpt lat="59.191886728077" lon="17.898348251567">
        <ele>124.8</ele>
        <time>2019-09-18T19:05:03Z</time>
      </trkpt>
      <trkpt lat="59.191891841036" lon="17.898374486914">
        <ele>124.6</ele>
        <time>2019-09-18T19:05:04Z</time>
      </trkpt>
      <trkpt lat="59.191893349778" lon="17.898398710605">
        <ele>124.6</ele>
        <time>2019-09-18T19:05:05Z</time>
      </trkpt>
      <trkpt lat="59.191897037814" lon="17.898429639816">
        <ele>124.6</ele>
        <time>2019-09-18T19:05:06Z</time>
      </trkpt>
      <trkpt lat="59.191898965651" lon="17.898461407217">
        <ele>124.6</ele>
        <time>2019-09-18T19:05:07Z</time>
      </trkpt>
      <trkpt lat="59.191900474393" lon="17.898486888193">
        <ele>124.4</ele>
        <time>2019-09-18T19:05:08Z</time>
      </trkpt>
      <trkpt lat="59.191902486049" lon="17.898510944246">
        <ele>124.4</ele>
        <time>2019-09-18T19:05:09Z</time>
      </trkpt>
      <trkpt lat="59.191907096094" lon="17.898535922308">
        <ele>124.4</ele>
        <time>2019-09-18T19:05:10Z</time>
      </trkpt>
      <trkpt lat="59.19190826956" lon="17.89856090037">
        <ele>124.4</ele>
        <time>2019-09-18T19:05:11Z</time>
      </trkpt>
      <trkpt lat="59.191908772474" lon="17.898582358034">
        <ele>124.4</ele>
        <time>2019-09-18T19:05:12Z</time>
      </trkpt>
      <trkpt lat="59.191915645632" lon="17.898599373291">
        <ele>124.4</ele>
        <time>2019-09-18T19:05:13Z</time>
      </trkpt>
      <trkpt lat="59.191915645632" lon="17.898599373291">
        <ele>124.4</ele>
        <time>2019-09-18T19:05:14Z</time>
      </trkpt>
      <trkpt lat="59.19194514992" lon="17.898933140549">
        <ele>125</ele>
        <time>2019-09-18T19:06:13Z</time>
      </trkpt>
      <trkpt lat="59.191945485196" lon="17.898966919606">
        <ele>125</ele>
        <time>2019-09-18T19:06:14Z</time>
      </trkpt>
      <trkpt lat="59.191945569015" lon="17.89899256822">
        <ele>125</ele>
        <time>2019-09-18T19:06:15Z</time>
      </trkpt>
      <trkpt lat="59.191951184888" lon="17.899018887386">
        <ele>125</ele>
        <time>2019-09-18T19:06:16Z</time>
      </trkpt>
      <trkpt lat="59.191959818245" lon="17.899049984235">
        <ele>124.8</ele>
        <time>2019-09-18T19:06:17Z</time>
      </trkpt>
      <trkpt lat="59.191966439946" lon="17.899076638677">
        <ele>124.8</ele>
        <time>2019-09-18T19:06:18Z</time>
      </trkpt>
      <trkpt lat="59.191976330588" lon="17.899106226784">
        <ele>124.4</ele>
        <time>2019-09-18T19:06:19Z</time>
      </trkpt>
      <trkpt lat="59.191983371384" lon="17.899134138511">
        <ele>124.4</ele>
        <time>2019-09-18T19:06:20Z</time>
      </trkpt>
      <trkpt lat="59.19199041218" lon="17.899164145713">
        <ele>124</ele>
        <time>2019-09-18T19:06:21Z</time>
      </trkpt>
      <trkpt lat="59.192001224831" lon="17.899194404372">
        <ele>123.6</ele>
        <time>2019-09-18T19:06:22Z</time>
      </trkpt>
      <trkpt lat="59.192016815165" lon="17.899229189257">
        <ele>123.2</ele>
        <time>2019-09-18T19:06:23Z</time>
      </trkpt>
      <trkpt lat="59.192036009716" lon="17.89928342015">
        <ele>122.4</ele>
        <time>2019-09-18T19:06:24Z</time>
      </trkpt>
      <trkpt lat="59.192058137932" lon="17.899355336852">
        <ele>122.2</ele>
        <time>2019-09-18T19:06:25Z</time>
      </trkpt>
      <trkpt lat="59.192079511777" lon="17.899438317662">
        <ele>122</ele>
        <time>2019-09-18T19:06:26Z</time>
      </trkpt>
      <trkpt lat="59.192097532862" lon="17.899532949313">
        <ele>121.8</ele>
        <time>2019-09-18T19:06:27Z</time>
      </trkpt>
      <trkpt lat="59.192119996354" lon="17.899650631189">
        <ele>121.8</ele>
        <time>2019-09-18T19:06:28Z</time>
      </trkpt>
      <trkpt lat="59.19214463914" lon="17.899757584233">
        <ele>121.6</ele>
        <time>2019-09-18T19:06:29Z</time>
      </trkpt>
      <trkpt lat="59.19214463914" lon="17.899757584233">
        <ele>121.6</ele>
        <time>2019-09-18T19:06:30Z</time>
      </trkpt>
      <trkpt lat="59.192204234449" lon="17.899946093164">
        <ele>121.4</ele>
        <time>2019-09-18T19:06:31Z</time>
      </trkpt>
      <trkpt lat="59.192231559443" lon="17.90002270373">
        <ele>121</ele>
        <time>2019-09-18T19:06:32Z</time>
      </trkpt>
      <trkpt lat="59.192257291876" lon="17.900098895201">
        <ele>120.6</ele>
        <time>2019-09-18T19:06:33Z</time>
      </trkpt>
      <trkpt lat="59.19228377868" lon="17.900173494111">
        <ele>120.2</ele>
        <time>2019-09-18T19:06:34Z</time>
      </trkpt>
      <trkpt lat="59.192315462262" lon="17.900245243175">
        <ele>119.8</ele>
        <time>2019-09-18T19:06:35Z</time>
      </trkpt>
      <trkpt lat="59.19235586302" lon="17.900313388022">
        <ele>119.4</ele>
        <time>2019-09-18T19:06:36Z</time>
      </trkpt>
      <trkpt lat="59.192397185787" lon="17.90037390534">
        <ele>119.2</ele>
        <time>2019-09-18T19:06:37Z</time>
      </trkpt>
      <trkpt lat="59.19243884383" lon="17.90043257864">
        <ele>119</ele>
        <time>2019-09-18T19:06:38Z</time>
      </trkpt>
      <trkpt lat="59.192475891828" lon="17.900488988827">
        <ele>118.8</ele>
        <time>2019-09-18T19:06:39Z</time>
      </trkpt>
      <trkpt lat="59.192508832695" lon="17.900537017114">
        <ele>118.8</ele>
        <time>2019-09-18T19:06:40Z</time>
      </trkpt>
      <trkpt lat="59.192544874865" lon="17.900579513347">
        <ele>118.8</ele>
        <time>2019-09-18T19:06:41Z</time>
      </trkpt>
      <trkpt lat="59.192570523479" lon="17.900622344856">
        <ele>118.6</ele>
        <time>2019-09-18T19:06:42Z</time>
      </trkpt>
      <trkpt lat="59.192601787966" lon="17.900674144998">
        <ele>118.6</ele>
        <time>2019-09-18T19:06:43Z</time>
      </trkpt>
      <trkpt lat="59.192639590335" lon="17.900711528272">
        <ele>118.4</ele>
        <time>2019-09-18T19:06:44Z</time>
      </trkpt>
      <trkpt lat="59.192673453211" lon="17.900749749736">
        <ele>118.4</ele>
        <time>2019-09-18T19:06:45Z</time>
      </trkpt>
      <trkpt lat="59.192707819001" lon="17.900778834929">
        <ele>118.4</ele>
        <time>2019-09-18T19:06:46Z</time>
      </trkpt>
      <trkpt lat="59.192740508411" lon="17.900813619814">
        <ele>118.4</ele>
        <time>2019-09-18T19:06:47Z</time>
      </trkpt>
      <trkpt lat="59.192777053495" lon="17.900848991432">
        <ele>118.4</ele>
        <time>2019-09-18T19:06:48Z</time>
      </trkpt>
      <trkpt lat="59.192810916371" lon="17.900892074398">
        <ele>118.4</ele>
        <time>2019-09-18T19:06:49Z</time>
      </trkpt>
      <trkpt lat="59.19283698408" lon="17.900948736042">
        <ele>118.4</ele>
        <time>2019-09-18T19:06:50Z</time>
      </trkpt>
      <trkpt lat="59.192854250794" lon="17.901016294156">
        <ele>118.2</ele>
        <time>2019-09-18T19:06:51Z</time>
      </trkpt>
      <trkpt lat="59.192870176404" lon="17.901086031564">
        <ele>118.2</ele>
        <time>2019-09-18T19:06:52Z</time>
      </trkpt>
      <trkpt lat="59.192870595499" lon="17.901152667669">
        <ele>118.2</ele>
        <time>2019-09-18T19:06:53Z</time>
      </trkpt>
      <trkpt lat="59.192881156693" lon="17.901225925475">
        <ele>118.4</ele>
        <time>2019-09-18T19:06:54Z</time>
      </trkpt>
      <trkpt lat="59.192897585217" lon="17.901292393942">
        <ele>118.4</ele>
        <time>2019-09-18T19:06:55Z</time>
      </trkpt>
      <trkpt lat="59.192907978773" lon="17.90136045497">
        <ele>118.4</ele>
        <time>2019-09-18T19:06:56Z</time>
      </trkpt>
      <trkpt lat="59.192907978773" lon="17.90136045497">
        <ele>118.4</ele>
        <time>2019-09-18T19:06:57Z</time>
      </trkpt>
      <trkpt lat="59.192922898555" lon="17.90148283071">
        <ele>118.6</ele>
        <time>2019-09-18T19:06:58Z</time>
      </trkpt>
      <trkpt lat="59.192931364274" lon="17.901533457386">
        <ele>118.8</ele>
        <time>2019-09-18T19:06:59Z</time>
      </trkpt>
      <trkpt lat="59.192937734518" lon="17.901573858144">
        <ele>118.8</ele>
        <time>2019-09-18T19:07:00Z</time>
      </trkpt>
      <trkpt lat="59.192942679839" lon="17.901607804839">
        <ele>118.8</ele>
        <time>2019-09-18T19:07:01Z</time>
      </trkpt>
      <trkpt lat="59.192942679839" lon="17.901607804839">
        <ele>118.8</ele>
        <time>2019-09-18T19:07:02Z</time>
      </trkpt>
      <trkpt lat="59.192976207439" lon="17.901675362953">
        <ele>118.8</ele>
        <time>2019-09-18T19:07:03Z</time>
      </trkpt>
      <trkpt lat="59.192994060886" lon="17.901694725142">
        <ele>118.8</ele>
        <time>2019-09-18T19:07:04Z</time>
      </trkpt>
    </trkseg>
  </trk>
</gpx>